Time,TemperatureF,DewpointF,PressureIn,WindDirection,WindDirectionDegrees,WindSpeedMPH,WindSpeedGustMPH,Humidity,HourlyPrecipIn,Conditions,Clouds,dailyrainin,SoftwareType,DateUTC
2013-01-22 00:01:00,50.1,-6.5,30.10,West,277,10.0,13.0,9,0.00,,,0.00,VWS V14.01,2013-01-22 07:01:00,
2013-01-22 00:06:00,50.4,-6.3,30.10,WNW,290,11.0,11.0,9,0.00,,,0.00,VWS V14.01,2013-01-22 07:06:00,
2013-01-22 00:11:00,50.5,-8.6,30.10,WSW,258,4.0,7.0,8,0.00,,,0.00,VWS V14.01,2013-01-22 07:11:00,
2013-01-22 00:16:00,50.2,-6.4,30.10,West,261,5.0,7.0,9,0.00,,,0.00,VWS V14.01,2013-01-22 07:16:00,
2013-01-22 00:21:00,50.1,-8.9,30.09,WNW,283,6.0,6.0,8,0.00,,,0.00,VWS V14.01,2013-01-22 07:21:00,
2013-01-22 00:26:00,49.8,-6.8,30.09,West,279,2.0,6.0,9,0.00,,,0.00,VWS V14.01,2013-01-22 07:26:00,
2013-01-22 00:31:00,49.4,-7.1,30.09,WNW,285,4.0,6.0,9,0.00,,,0.00,VWS V14.01,2013-01-22 07:31:00,
2013-01-22 00:36:00,49.0,-7.4,30.09,NW,311,4.0,4.0,9,0.00,,,0.00,VWS V14.01,2013-01-22 07:36:00,
2013-01-22 00:41:00,49.0,-7.4,30.09,NW,311,4.0,4.0,9,0.00,,,0.00,VWS V14.01,2013-01-22 07:41:00,
2013-01-22 00:46:00,49.0,-7.4,30.09,NW,311,4.0,4.0,9,0.00,,,0.00,VWS V14.01,2013-01-22 07:46:00,
2013-01-22 00:51:00,49.0,-7.4,30.09,NW,311,4.0,4.0,9,0.00,,,0.00,VWS V14.01,2013-01-22 07:51:00,
2013-01-22 00:56:00,49.0,-7.4,30.08,NW,311,4.0,4.0,9,0.00,,,0.00,VWS V14.01,2013-01-22 07:56:00,
2013-01-22 01:01:00,49.0,-7.4,30.08,NW,311,4.0,4.0,9,0.00,,,0.00,VWS V14.01,2013-01-22 08:01:00,
2013-01-22 01:06:00,49.0,-7.4,30.07,NW,311,4.0,4.0,9,0.00,,,0.00,VWS V14.01,2013-01-22 08:06:00,
2013-01-22 01:11:00,49.0,-7.4,30.07,NW,311,4.0,4.0,9,0.00,,,0.00,VWS V14.01,2013-01-22 08:11:00,
2013-01-22 01:16:00,49.0,-7.4,30.07,NW,311,4.0,4.0,9,0.00,,,0.00,VWS V14.01,2013-01-22 08:16:00,
2013-01-22 01:21:00,49.0,-7.4,30.07,NW,311,4.0,4.0,9,0.00,,,0.00,VWS V14.01,2013-01-22 08:21:00,
2013-01-22 01:26:00,49.0,-7.4,30.06,NW,311,4.0,4.0,9,0.00,,,0.00,VWS V14.01,2013-01-22 08:26:00,
2013-01-22 01:31:00,49.0,-7.4,30.06,NW,311,4.0,4.0,9,0.00,,,0.00,VWS V14.01,2013-01-22 08:31:00,
2013-01-22 01:36:00,49.2,-7.2,30.06,NW,313,2.0,5.0,9,0.00,,,0.00,VWS V14.01,2013-01-22 08:36:00,
2013-01-22 01:41:00,48.8,-7.5,30.06,NW,313,3.0,3.0,9,0.00,,,0.00,VWS V14.01,2013-01-22 08:41:00,
2013-01-22 01:46:00,48.3,-7.9,30.06,NW,316,4.0,7.0,9,0.00,,,0.00,VWS V14.01,2013-01-22 08:46:00,
2013-01-22 01:51:00,48.3,-7.9,30.06,NW,317,5.0,6.0,9,0.00,,,0.00,VWS V14.01,2013-01-22 08:51:00,
2013-01-22 01:56:00,48.1,-5.9,30.06,NW,317,5.0,5.0,10,0.00,,,0.00,VWS V14.01,2013-01-22 08:56:00,
2013-01-22 02:01:00,47.9,-6.1,30.05,NW,317,3.0,4.0,10,0.00,,,0.00,VWS V14.01,2013-01-22 09:01:00,
2013-01-22 02:06:00,47.7,-6.2,30.05,NW,317,0.0,2.0,10,0.00,,,0.00,VWS V14.01,2013-01-22 09:06:00,
2013-01-22 02:11:00,47.4,-6.4,30.06,NW,317,4.0,5.0,10,0.00,,,0.00,VWS V14.01,2013-01-22 09:11:00,
2013-01-22 02:16:00,46.8,-4.9,30.05,NW,317,1.0,1.0,11,0.00,,,0.00,VWS V14.01,2013-01-22 09:16:00,
2013-01-22 02:21:00,46.3,-5.3,30.05,NW,317,0.0,0.0,11,0.00,,,0.00,VWS V14.01,2013-01-22 09:21:00,
2013-01-22 02:26:00,45.8,-5.7,30.05,NW,317,1.0,2.0,11,0.00,,,0.00,VWS V14.01,2013-01-22 09:26:00,
2013-01-22 02:31:00,45.5,-6.0,30.05,NW,317,4.0,4.0,11,0.00,,,0.00,VWS V14.01,2013-01-22 09:31:00,
2013-01-22 02:36:00,46.0,-7.5,30.05,NW,317,0.0,0.0,10,0.00,,,0.00,VWS V14.01,2013-01-22 09:36:00,
2013-01-22 02:41:00,46.9,-6.8,30.04,NW,317,2.0,3.0,10,0.00,,,0.00,VWS V14.01,2013-01-22 09:41:00,
2013-01-22 02:46:00,47.2,-6.6,30.04,NW,317,0.0,1.0,10,0.00,,,0.00,VWS V14.01,2013-01-22 09:46:00,
2013-01-22 02:51:00,47.2,-8.8,30.03,SW,232,8.0,14.0,9,0.00,,,0.00,VWS V14.01,2013-01-22 09:51:00,
2013-01-22 02:55:00,48.5,-10.1,30.04,West,272,6.0,6.0,8,0.00,,,0.00,VWS V14.01,2013-01-22 09:55:00,
2013-01-22 02:56:00,48.7,-10.0,30.04,WNW,289,2.0,7.0,8,0.00,,,0.00,VWS V14.01,2013-01-22 09:56:00,
2013-01-22 02:57:00,49.0,-9.8,30.04,WSW,248,6.0,7.0,8,0.00,,,0.00,VWS V14.01,2013-01-22 09:57:00,
2013-01-22 02:58:00,49.3,-9.5,30.03,West,267,4.0,14.0,8,0.00,,,0.00,VWS V14.01,2013-01-22 09:58:00,
2013-01-22 02:59:00,49.6,-9.3,30.03,West,269,2.0,6.0,8,0.00,,,0.00,VWS V14.01,2013-01-22 09:59:00,
2013-01-22 03:00:00,49.8,-9.2,30.04,WNW,291,4.0,5.0,8,0.00,,,0.00,VWS V14.01,2013-01-22 10:00:00,
2013-01-22 03:01:00,50.0,-9.0,30.03,West,278,4.0,8.0,8,0.00,,,0.00,VWS V14.01,2013-01-22 10:01:00,
2013-01-22 03:02:00,50.3,-11.5,30.03,WNW,289,9.0,11.0,7,0.00,,,0.00,VWS V14.01,2013-01-22 10:02:00,
2013-01-22 03:03:00,50.6,-11.3,30.03,WNW,297,7.0,9.0,7,0.00,,,0.00,VWS V14.01,2013-01-22 10:03:00,
2013-01-22 03:04:00,50.9,-11.0,30.03,WNW,297,3.0,8.0,7,0.00,,,0.00,VWS V14.01,2013-01-22 10:04:00,
2013-01-22 03:05:00,51.1,-10.9,30.03,NNW,327,4.0,8.0,7,0.00,,,0.00,VWS V14.01,2013-01-22 10:05:00,
2013-01-22 03:06:00,51.2,-10.8,30.03,NW,326,6.0,6.0,7,0.00,,,0.00,VWS V14.01,2013-01-22 10:06:00,
2013-01-22 03:07:00,51.4,-10.7,30.03,West,273,2.0,8.0,7,0.00,,,0.00,VWS V14.01,2013-01-22 10:07:00,
2013-01-22 03:08:00,51.5,-10.6,30.03,West,275,0.0,4.0,7,0.00,,,0.00,VWS V14.01,2013-01-22 10:08:00,
2013-01-22 03:09:00,51.6,-10.5,30.03,WNW,298,9.0,11.0,7,0.00,,,0.00,VWS V14.01,2013-01-22 10:09:00,
2013-01-22 03:10:00,51.7,-10.4,30.02,WNW,293,4.0,14.0,7,0.00,,,0.00,VWS V14.01,2013-01-22 10:10:00,
2013-01-22 03:11:00,51.8,-10.4,30.03,WNW,294,0.0,5.0,7,0.00,,,0.00,VWS V14.01,2013-01-22 10:11:00,
2013-01-22 03:12:00,51.9,-10.3,30.02,WNW,290,5.0,10.0,7,0.00,,,0.00,VWS V14.01,2013-01-22 10:12:00,
2013-01-22 03:13:00,51.9,-10.3,30.02,WNW,290,4.0,5.0,7,0.00,,,0.00,VWS V14.01,2013-01-22 10:13:00,
2013-01-22 03:14:00,51.9,-10.3,30.03,West,280,5.0,5.0,7,0.00,,,0.00,VWS V14.01,2013-01-22 10:14:00,
2013-01-22 03:15:00,52.0,-10.2,30.02,West,281,6.0,6.0,7,0.00,,,0.00,VWS V14.01,2013-01-22 10:15:00,
2013-01-22 03:16:00,52.0,-10.2,30.02,NW,317,8.0,10.0,7,0.00,,,0.00,VWS V14.01,2013-01-22 10:16:00,
2013-01-22 03:17:00,52.2,-13.2,30.02,WSW,256,18.0,18.0,6,0.00,,,0.00,VWS V14.01,2013-01-22 10:17:00,
2013-01-22 03:18:00,52.3,-13.1,30.02,WNW,287,9.0,18.0,6,0.00,,,0.00,VWS V14.01,2013-01-22 10:18:00,
2013-01-22 03:19:00,52.6,-12.9,30.02,WSW,256,12.0,13.0,6,0.00,,,0.00,VWS V14.01,2013-01-22 10:19:00,
2013-01-22 03:20:00,52.7,-12.8,30.02,West,281,10.0,13.0,6,0.00,,,0.00,VWS V14.01,2013-01-22 10:20:00,
2013-01-22 03:21:00,52.8,-12.7,30.02,West,260,8.0,14.0,6,0.00,,,0.00,VWS V14.01,2013-01-22 10:21:00,
2013-01-22 03:22:00,52.9,-12.6,30.01,NW,304,9.0,16.0,6,0.00,,,0.00,VWS V14.01,2013-01-22 10:22:00,
2013-01-22 03:23:00,53.0,-12.6,30.01,WNW,292,8.0,11.0,6,0.00,,,0.00,VWS V14.01,2013-01-22 10:23:00,
2013-01-22 03:24:00,53.1,-12.5,30.01,WSW,247,8.0,16.0,6,0.00,,,0.00,VWS V14.01,2013-01-22 10:24:00,
2013-01-22 03:25:00,53.2,-12.4,30.01,West,270,10.0,12.0,6,0.00,,,0.00,VWS V14.01,2013-01-22 10:25:00,
2013-01-22 03:26:00,53.2,-12.4,30.01,WNW,284,7.0,12.0,6,0.00,,,0.00,VWS V14.01,2013-01-22 10:26:00,
2013-01-22 03:27:00,53.3,-12.4,30.01,NW,313,9.0,12.0,6,0.00,,,0.00,VWS V14.01,2013-01-22 10:27:00,
2013-01-22 03:28:00,53.3,-12.4,30.01,WSW,251,8.0,12.0,6,0.00,,,0.00,VWS V14.01,2013-01-22 10:28:00,
2013-01-22 03:29:00,53.4,-12.3,30.01,WSW,246,7.0,13.0,6,0.00,,,0.00,VWS V14.01,2013-01-22 10:29:00,
2013-01-22 03:30:00,53.5,-12.2,30.01,West,261,4.0,12.0,6,0.00,,,0.00,VWS V14.01,2013-01-22 10:30:00,
2013-01-22 03:31:00,53.5,-12.2,30.01,WNW,282,7.0,12.0,6,0.00,,,0.00,VWS V14.01,2013-01-22 10:31:00,
2013-01-22 03:32:00,53.6,-12.1,30.01,West,274,6.0,11.0,6,0.00,,,0.00,VWS V14.01,2013-01-22 10:32:00,
2013-01-22 03:33:00,53.6,-12.1,30.01,SSW,202,5.0,13.0,6,0.00,,,0.00,VWS V14.01,2013-01-22 10:33:00,
2013-01-22 03:34:00,53.6,-12.1,30.00,WNW,286,11.0,11.0,6,0.00,,,0.00,VWS V14.01,2013-01-22 10:34:00,
2013-01-22 03:35:00,53.5,-12.2,30.01,WSW,238,5.0,10.0,6,0.00,,,0.00,VWS V14.01,2013-01-22 10:35:00,
2013-01-22 03:36:00,53.5,-12.2,30.00,WNW,298,15.0,15.0,6,0.00,,,0.00,VWS V14.01,2013-01-22 10:36:00,
2013-01-22 03:37:00,53.4,-12.3,30.01,West,276,11.0,11.0,6,0.00,,,0.00,VWS V14.01,2013-01-22 10:37:00,
2013-01-22 03:38:00,53.3,-12.4,30.00,WNW,301,6.0,9.0,6,0.00,,,0.00,VWS V14.01,2013-01-22 10:38:00,
2013-01-22 03:39:00,53.2,-12.4,30.00,NW,311,5.0,8.0,6,0.00,,,0.00,VWS V14.01,2013-01-22 10:39:00,
2013-01-22 03:40:00,53.2,-12.4,30.01,NW,306,4.0,5.0,6,0.00,,,0.00,VWS V14.01,2013-01-22 10:40:00,
2013-01-22 03:41:00,53.1,-12.5,30.01,West,264,8.0,8.0,6,0.00,,,0.00,VWS V14.01,2013-01-22 10:41:00,
2013-01-22 03:42:00,53.0,-12.6,30.00,West,270,2.0,3.0,6,0.00,,,0.00,VWS V14.01,2013-01-22 10:42:00,
2013-01-22 03:43:00,52.9,-12.6,30.00,West,260,4.0,6.0,6,0.00,,,0.00,VWS V14.01,2013-01-22 10:43:00,
2013-01-22 03:44:00,52.8,-12.7,30.00,WSW,248,2.0,10.0,6,0.00,,,0.00,VWS V14.01,2013-01-22 10:44:00,
2013-01-22 03:45:00,52.8,-12.7,30.00,West,273,16.0,16.0,6,0.00,,,0.00,VWS V14.01,2013-01-22 10:45:00,
2013-01-22 03:46:00,52.7,-12.8,30.00,WNW,300,9.0,16.0,6,0.00,,,0.00,VWS V14.01,2013-01-22 10:46:00,
2013-01-22 03:47:00,52.8,-16.3,30.00,WSW,249,3.0,10.0,5,0.00,,,0.00,VWS V14.01,2013-01-22 10:47:00,
2013-01-22 03:48:00,52.8,-12.7,30.00,WSW,252,8.0,10.0,6,0.00,,,0.00,VWS V14.01,2013-01-22 10:48:00,
2013-01-22 03:49:00,52.9,-12.6,30.00,WSW,238,2.0,8.0,6,0.00,,,0.00,VWS V14.01,2013-01-22 10:49:00,
2013-01-22 03:50:00,52.9,-12.6,30.00,WSW,239,0.0,3.0,6,0.00,,,0.00,VWS V14.01,2013-01-22 10:50:00,
2013-01-22 03:51:00,52.9,-12.6,30.00,WSW,247,6.0,6.0,6,0.00,,,0.00,VWS V14.01,2013-01-22 10:51:00,
2013-01-22 03:52:00,52.9,-12.6,30.00,West,259,2.0,8.0,6,0.00,,,0.00,VWS V14.01,2013-01-22 10:52:00,
2013-01-22 03:53:00,52.8,-12.7,30.00,West,259,1.0,5.0,6,0.00,,,0.00,VWS V14.01,2013-01-22 10:53:00,
2013-01-22 03:54:00,52.9,-12.6,30.00,WSW,257,3.0,3.0,6,0.00,,,0.00,VWS V14.01,2013-01-22 10:54:00,
2013-01-22 03:55:00,52.8,-12.7,30.00,West,266,5.0,7.0,6,0.00,,,0.00,VWS V14.01,2013-01-22 10:55:00,
2013-01-22 03:56:00,52.8,-12.7,30.00,West,265,4.0,7.0,6,0.00,,,0.00,VWS V14.01,2013-01-22 10:56:00,
2013-01-22 03:57:00,52.8,-16.3,30.01,WSW,253,3.0,10.0,5,0.00,,,0.00,VWS V14.01,2013-01-22 10:57:00,
2013-01-22 03:58:00,52.9,-16.2,30.01,WSW,253,2.0,4.0,5,0.00,,,0.00,VWS V14.01,2013-01-22 10:58:00,
2013-01-22 03:59:00,53.0,-16.2,30.01,WSW,253,1.0,3.0,5,0.00,,,0.00,VWS V14.01,2013-01-22 10:59:00,
2013-01-22 04:00:00,53.0,-16.2,30.01,WSW,253,5.0,5.0,5,0.00,,,0.00,VWS V14.01,2013-01-22 11:00:00,
2013-01-22 04:01:00,53.0,-16.2,30.01,WSW,252,5.0,6.0,5,0.00,,,0.00,VWS V14.01,2013-01-22 11:01:00,
2013-01-22 04:02:00,53.1,-16.1,30.01,WSW,252,0.0,6.0,5,0.00,,,0.00,VWS V14.01,2013-01-22 11:02:00,
2013-01-22 04:03:00,53.1,-16.1,30.00,WSW,252,2.0,2.0,5,0.00,,,0.00,VWS V14.01,2013-01-22 11:03:00,
2013-01-22 04:04:00,52.9,-12.6,30.00,SW,232,2.0,5.0,6,0.00,,,0.00,VWS V14.01,2013-01-22 11:04:00,
2013-01-22 04:05:00,52.6,-12.9,30.00,SW,232,1.0,1.0,6,0.00,,,0.00,VWS V14.01,2013-01-22 11:05:00,
2013-01-22 04:06:00,52.4,-13.0,30.00,SW,232,2.0,2.0,6,0.00,,,0.00,VWS V14.01,2013-01-22 11:06:00,
2013-01-22 04:07:00,52.0,-10.2,30.00,SW,232,3.0,5.0,7,0.00,,,0.00,VWS V14.01,2013-01-22 11:07:00,
2013-01-22 04:08:00,51.7,-10.4,30.00,SW,232,2.0,3.0,7,0.00,,,0.00,VWS V14.01,2013-01-22 11:08:00,
2013-01-22 04:09:00,51.4,-10.7,30.00,SW,232,2.0,4.0,7,0.00,,,0.00,VWS V14.01,2013-01-22 11:09:00,
2013-01-22 04:10:00,50.9,-11.0,30.00,SW,232,2.0,4.0,7,0.00,,,0.00,VWS V14.01,2013-01-22 11:10:00,
2013-01-22 04:11:00,50.7,-11.2,30.00,SW,232,1.0,3.0,7,0.00,,,0.00,VWS V14.01,2013-01-22 11:11:00,
2013-01-22 04:12:00,50.3,-8.8,30.00,SW,232,0.0,0.0,8,0.00,,,0.00,VWS V14.01,2013-01-22 11:12:00,
2013-01-22 04:13:00,50.0,-11.7,30.00,SW,232,0.0,1.0,7,0.00,,,0.00,VWS V14.01,2013-01-22 11:13:00,
2013-01-22 04:14:00,49.8,-11.9,30.00,SW,232,0.0,1.0,7,0.00,,,0.00,VWS V14.01,2013-01-22 11:14:00,
2013-01-22 04:15:00,49.5,-9.4,30.00,SW,232,1.0,3.0,8,0.00,,,0.00,VWS V14.01,2013-01-22 11:15:00,
2013-01-22 04:16:00,49.3,-9.5,30.00,SW,232,3.0,3.0,8,0.00,,,0.00,VWS V14.01,2013-01-22 11:16:00,
2013-01-22 04:17:00,49.0,-9.8,30.00,SW,232,1.0,2.0,8,0.00,,,0.00,VWS V14.01,2013-01-22 11:17:00,
2013-01-22 04:18:00,48.8,-9.9,30.00,SW,232,0.0,1.0,8,0.00,,,0.00,VWS V14.01,2013-01-22 11:18:00,
2013-01-22 04:19:00,48.6,-10.1,30.00,SW,232,2.0,4.0,8,0.00,,,0.00,VWS V14.01,2013-01-22 11:19:00,
2013-01-22 04:20:00,48.4,-10.2,30.00,SW,232,2.0,2.0,8,0.00,,,0.00,VWS V14.01,2013-01-22 11:20:00,
2013-01-22 04:21:00,48.4,-10.2,30.00,SW,232,0.0,4.0,8,0.00,,,0.00,VWS V14.01,2013-01-22 11:21:00,
2013-01-22 04:22:00,48.2,-10.4,30.00,SW,232,0.0,1.0,8,0.00,,,0.00,VWS V14.01,2013-01-22 11:22:00,
2013-01-22 04:23:00,48.1,-10.4,30.00,SW,232,2.0,4.0,8,0.00,,,0.00,VWS V14.01,2013-01-22 11:23:00,
2013-01-22 04:24:00,48.2,-10.4,30.00,SW,233,5.0,5.0,8,0.00,,,0.00,VWS V14.01,2013-01-22 11:24:00,
2013-01-22 04:25:00,48.3,-10.3,30.00,WSW,243,2.0,6.0,8,0.00,,,0.00,VWS V14.01,2013-01-22 11:25:00,
2013-01-22 04:26:00,48.3,-10.3,30.00,WSW,244,4.0,4.0,8,0.00,,,0.00,VWS V14.01,2013-01-22 11:26:00,
2013-01-22 04:27:00,48.6,-12.8,30.00,WSW,244,1.0,6.0,7,0.00,,,0.00,VWS V14.01,2013-01-22 11:27:00,
2013-01-22 04:28:00,48.7,-12.7,30.00,WSW,244,2.0,2.0,7,0.00,,,0.00,VWS V14.01,2013-01-22 11:28:00,
2013-01-22 04:29:00,48.8,-12.6,30.00,WSW,244,2.0,5.0,7,0.00,,,0.00,VWS V14.01,2013-01-22 11:29:00,
2013-01-22 04:30:00,48.9,-9.9,29.99,WSW,244,0.0,2.0,8,0.00,,,0.00,VWS V14.01,2013-01-22 11:30:00,
2013-01-22 04:31:00,49.0,-9.8,29.99,WSW,244,0.0,1.0,8,0.00,,,0.00,VWS V14.01,2013-01-22 11:31:00,
2013-01-22 04:32:00,49.0,-12.4,30.00,WSW,244,0.0,1.0,7,0.00,,,0.00,VWS V14.01,2013-01-22 11:32:00,
2013-01-22 04:33:00,49.0,-12.4,30.00,WSW,244,0.0,0.0,7,0.00,,,0.00,VWS V14.01,2013-01-22 11:33:00,
2013-01-22 04:34:00,49.1,-12.4,30.00,WSW,244,3.0,5.0,7,0.00,,,0.00,VWS V14.01,2013-01-22 11:34:00,
2013-01-22 04:35:00,49.2,-12.3,30.00,NW,311,5.0,7.0,7,0.00,,,0.00,VWS V14.01,2013-01-22 11:35:00,
2013-01-22 04:36:00,49.3,-12.2,30.00,NW,318,5.0,6.0,7,0.00,,,0.00,VWS V14.01,2013-01-22 11:36:00,
2013-01-22 04:37:00,49.5,-12.1,30.00,NW,318,2.0,4.0,7,0.00,,,0.00,VWS V14.01,2013-01-22 11:37:00,
2013-01-22 04:38:00,49.5,-12.1,30.00,NW,318,1.0,4.0,7,0.00,,,0.00,VWS V14.01,2013-01-22 11:38:00,
2013-01-22 04:39:00,49.6,-12.0,30.00,NW,317,1.0,5.0,7,0.00,,,0.00,VWS V14.01,2013-01-22 11:39:00,
2013-01-22 04:40:00,49.7,-11.9,30.00,NW,317,1.0,2.0,7,0.00,,,0.00,VWS V14.01,2013-01-22 11:40:00,
2013-01-22 04:41:00,49.7,-11.9,30.00,NW,317,0.0,2.0,7,0.00,,,0.00,VWS V14.01,2013-01-22 11:41:00,
2013-01-22 04:42:00,49.6,-12.0,30.00,South,171,5.0,6.0,7,0.00,,,0.00,VWS V14.01,2013-01-22 11:42:00,
2013-01-22 04:43:00,49.6,-12.0,30.00,SSW,193,8.0,9.0,7,0.00,,,0.00,VWS V14.01,2013-01-22 11:43:00,
2013-01-22 04:44:00,49.3,-9.5,30.00,SSE,158,6.0,9.0,8,0.00,,,0.00,VWS V14.01,2013-01-22 11:44:00,
2013-01-22 04:45:00,48.7,-7.6,30.00,South,186,6.0,7.0,9,0.00,,,0.00,VWS V14.01,2013-01-22 11:45:00,
2013-01-22 04:46:00,48.5,-7.8,30.00,South,187,5.0,7.0,9,0.00,,,0.00,VWS V14.01,2013-01-22 11:46:00,
2013-01-22 04:47:00,48.1,-5.9,30.00,SSW,196,5.0,7.0,10,0.00,,,0.00,VWS V14.01,2013-01-22 11:47:00,
2013-01-22 04:48:00,47.8,-8.3,30.01,SSW,207,5.0,7.0,9,0.00,,,0.00,VWS V14.01,2013-01-22 11:48:00,
2013-01-22 04:49:00,47.5,-8.5,30.01,SSW,213,6.0,6.0,9,0.00,,,0.00,VWS V14.01,2013-01-22 11:49:00,
2013-01-22 04:50:00,47.1,-8.8,30.01,SW,224,5.0,6.0,9,0.00,,,0.00,VWS V14.01,2013-01-22 11:50:00,
2013-01-22 04:51:00,47.0,-8.9,30.01,WSW,245,3.0,8.0,9,0.00,,,0.00,VWS V14.01,2013-01-22 11:51:00,
2013-01-22 04:52:00,46.8,-6.9,30.01,WSW,246,4.0,6.0,10,0.00,,,0.00,VWS V14.01,2013-01-22 11:52:00,
2013-01-22 04:53:00,46.7,-7.0,30.01,WSW,245,5.0,5.0,10,0.00,,,0.00,VWS V14.01,2013-01-22 11:53:00,
2013-01-22 04:54:00,46.6,-9.2,30.00,WSW,246,3.0,5.0,9,0.00,,,0.00,VWS V14.01,2013-01-22 11:54:00,
2013-01-22 04:55:00,46.5,-7.1,30.01,WSW,245,4.0,5.0,10,0.00,,,0.00,VWS V14.01,2013-01-22 11:55:00,
2013-01-22 04:56:00,46.5,-7.1,30.01,WSW,245,1.0,5.0,10,0.00,,,0.00,VWS V14.01,2013-01-22 11:56:00,
2013-01-22 04:57:00,46.4,-9.4,30.01,WSW,245,0.0,2.0,9,0.00,,,0.00,VWS V14.01,2013-01-22 11:57:00,
2013-01-22 04:58:00,46.3,-7.3,30.01,WSW,245,4.0,4.0,10,0.00,,,0.00,VWS V14.01,2013-01-22 11:58:00,
2013-01-22 04:59:00,46.2,-7.4,30.01,West,267,6.0,7.0,10,0.00,,,0.00,VWS V14.01,2013-01-22 11:59:00,
2013-01-22 05:00:00,46.0,-7.5,30.02,West,267,2.0,6.0,10,0.00,,,0.00,VWS V14.01,2013-01-22 12:00:00,
2013-01-22 05:01:00,46.0,-7.5,30.02,West,267,0.0,2.0,10,0.00,,,0.00,VWS V14.01,2013-01-22 12:01:00,
2013-01-22 05:02:00,46.0,-7.5,30.02,West,267,4.0,5.0,10,0.00,,,0.00,VWS V14.01,2013-01-22 12:02:00,
2013-01-22 05:03:00,46.0,-7.5,30.02,West,267,2.0,4.0,10,0.00,,,0.00,VWS V14.01,2013-01-22 12:03:00,
2013-01-22 05:04:00,46.0,-7.5,30.02,West,267,5.0,5.0,10,0.00,,,0.00,VWS V14.01,2013-01-22 12:04:00,
2013-01-22 05:05:00,45.9,-7.6,30.02,West,267,2.0,5.0,10,0.00,,,0.00,VWS V14.01,2013-01-22 12:05:00,
2013-01-22 05:06:00,45.9,-7.6,30.02,West,267,1.0,2.0,10,0.00,,,0.00,VWS V14.01,2013-01-22 12:06:00,
2013-01-22 05:07:00,45.9,-7.6,30.02,West,267,2.0,4.0,10,0.00,,,0.00,VWS V14.01,2013-01-22 12:07:00,
2013-01-22 05:08:00,45.9,-9.8,30.02,West,267,4.0,6.0,9,0.00,,,0.00,VWS V14.01,2013-01-22 12:08:00,
2013-01-22 05:09:00,45.9,-7.6,30.02,West,267,1.0,4.0,10,0.00,,,0.00,VWS V14.01,2013-01-22 12:09:00,
2013-01-22 05:10:00,45.8,-9.8,30.01,West,267,3.0,4.0,9,0.00,,,0.00,VWS V14.01,2013-01-22 12:10:00,
2013-01-22 05:11:00,45.8,-9.8,30.01,West,267,1.0,3.0,9,0.00,,,0.00,VWS V14.01,2013-01-22 12:11:00,
2013-01-22 05:12:00,45.9,-9.8,30.02,West,267,1.0,4.0,9,0.00,,,0.00,VWS V14.01,2013-01-22 12:12:00,
2013-01-22 05:13:00,46.0,-9.7,30.01,West,267,0.0,4.0,9,0.00,,,0.00,VWS V14.01,2013-01-22 12:13:00,
2013-01-22 05:14:00,46.1,-12.0,30.01,West,267,2.0,2.0,8,0.00,,,0.00,VWS V14.01,2013-01-22 12:14:00,
2013-01-22 05:15:00,46.3,-11.8,30.01,WNW,283,4.0,7.0,8,0.00,,,0.00,VWS V14.01,2013-01-22 12:15:00,
2013-01-22 05:16:00,46.4,-11.7,30.01,WNW,283,2.0,4.0,8,0.00,,,0.00,VWS V14.01,2013-01-22 12:16:00,
2013-01-22 05:17:00,46.7,-11.5,30.01,WNW,283,2.0,5.0,8,0.00,,,0.00,VWS V14.01,2013-01-22 12:17:00,
2013-01-22 05:18:00,47.0,-11.3,30.01,WNW,292,2.0,9.0,8,0.00,,,0.00,VWS V14.01,2013-01-22 12:18:00,
2013-01-22 05:19:00,47.4,-11.0,30.02,North,355,3.0,9.0,8,0.00,,,0.00,VWS V14.01,2013-01-22 12:19:00,
2013-01-22 05:20:00,47.8,-10.7,30.02,NNW,331,2.0,9.0,8,0.00,,,0.00,VWS V14.01,2013-01-22 12:20:00,
2013-01-22 05:21:00,48.0,-10.5,30.01,NNW,331,1.0,2.0,8,0.00,,,0.00,VWS V14.01,2013-01-22 12:21:00,
2013-01-22 05:22:00,48.2,-10.4,30.02,NW,319,5.0,5.0,8,0.00,,,0.00,VWS V14.01,2013-01-22 12:22:00,
2013-01-22 05:23:00,48.4,-10.2,30.02,WNW,299,7.0,7.0,8,0.00,,,0.00,VWS V14.01,2013-01-22 12:23:00,
2013-01-22 05:24:00,48.6,-10.1,30.02,WNW,298,4.0,7.0,8,0.00,,,0.00,VWS V14.01,2013-01-22 12:24:00,
2013-01-22 05:25:00,48.7,-10.0,30.02,NW,320,6.0,8.0,8,0.00,,,0.00,VWS V14.01,2013-01-22 12:25:00,
2013-01-22 05:26:00,48.8,-9.9,30.02,WNW,294,4.0,8.0,8,0.00,,,0.00,VWS V14.01,2013-01-22 12:26:00,
2013-01-22 05:27:00,49.0,-9.8,30.02,WNW,302,3.0,5.0,8,0.00,,,0.00,VWS V14.01,2013-01-22 12:27:00,
2013-01-22 05:28:00,49.0,-9.8,30.02,NNW,333,2.0,6.0,8,0.00,,,0.00,VWS V14.01,2013-01-22 12:28:00,
2013-01-22 05:29:00,49.0,-9.8,30.02,NW,321,2.0,5.0,8,0.00,,,0.00,VWS V14.01,2013-01-22 12:29:00,
2013-01-22 05:30:00,49.1,-9.7,30.02,NW,304,6.0,8.0,8,0.00,,,0.00,VWS V14.01,2013-01-22 12:30:00,
2013-01-22 05:31:00,49.1,-9.7,30.02,NW,307,6.0,7.0,8,0.00,,,0.00,VWS V14.01,2013-01-22 12:31:00,
2013-01-22 05:32:00,49.1,-9.7,30.02,NW,304,8.0,8.0,8,0.00,,,0.00,VWS V14.01,2013-01-22 12:32:00,
2013-01-22 05:33:00,49.2,-9.6,30.02,WNW,301,5.0,8.0,8,0.00,,,0.00,VWS V14.01,2013-01-22 12:33:00,
2013-01-22 05:34:00,49.2,-12.3,30.02,WNW,285,5.0,8.0,7,0.00,,,0.00,VWS V14.01,2013-01-22 12:34:00,
2013-01-22 05:35:00,49.2,-12.3,30.02,WNW,295,4.0,8.0,7,0.00,,,0.00,VWS V14.01,2013-01-22 12:35:00,
2013-01-22 05:36:00,49.2,-9.6,30.02,WNW,295,4.0,4.0,8,0.00,,,0.00,VWS V14.01,2013-01-22 12:36:00,
2013-01-22 05:37:00,49.2,-12.3,30.03,WNW,294,5.0,8.0,7,0.00,,,0.00,VWS V14.01,2013-01-22 12:37:00,
2013-01-22 05:38:00,49.2,-12.3,30.02,WNW,300,2.0,7.0,7,0.00,,,0.00,VWS V14.01,2013-01-22 12:38:00,
2013-01-22 05:39:00,49.3,-12.2,30.02,West,273,3.0,6.0,7,0.00,,,0.00,VWS V14.01,2013-01-22 12:39:00,
2013-01-22 05:40:00,49.3,-12.2,30.02,WNW,287,10.0,10.0,7,0.00,,,0.00,VWS V14.01,2013-01-22 12:40:00,
2013-01-22 05:41:00,49.3,-12.2,30.02,West,279,4.0,10.0,7,0.00,,,0.00,VWS V14.01,2013-01-22 12:41:00,
2013-01-22 05:42:00,49.5,-12.1,30.02,WNW,286,7.0,9.0,7,0.00,,,0.00,VWS V14.01,2013-01-22 12:42:00,
2013-01-22 05:43:00,49.5,-12.1,30.02,WNW,299,5.0,12.0,7,0.00,,,0.00,VWS V14.01,2013-01-22 12:43:00,
2013-01-22 05:44:00,49.6,-12.0,30.02,WNW,290,2.0,7.0,7,0.00,,,0.00,VWS V14.01,2013-01-22 12:44:00,
2013-01-22 05:45:00,49.6,-12.0,30.02,WNW,292,1.0,5.0,7,0.00,,,0.00,VWS V14.01,2013-01-22 12:45:00,
2013-01-22 05:46:00,49.6,-12.0,30.02,West,279,3.0,11.0,7,0.00,,,0.00,VWS V14.01,2013-01-22 12:46:00,
2013-01-22 05:47:00,49.6,-12.0,30.02,West,281,7.0,12.0,7,0.00,,,0.00,VWS V14.01,2013-01-22 12:47:00,
2013-01-22 05:48:00,49.6,-12.0,30.02,West,271,9.0,18.0,7,0.00,,,0.00,VWS V14.01,2013-01-22 12:48:00,
2013-01-22 05:49:00,49.7,-11.9,30.02,WNW,290,5.0,9.0,7,0.00,,,0.00,VWS V14.01,2013-01-22 12:49:00,
2013-01-22 05:50:00,49.7,-11.9,30.02,WSW,257,6.0,10.0,7,0.00,,,0.00,VWS V14.01,2013-01-22 12:50:00,
2013-01-22 05:51:00,49.8,-11.9,30.02,West,280,3.0,7.0,7,0.00,,,0.00,VWS V14.01,2013-01-22 12:51:00,
2013-01-22 05:52:00,49.8,-11.9,30.01,WSW,251,8.0,11.0,7,0.00,,,0.00,VWS V14.01,2013-01-22 12:52:00,
2013-01-22 05:53:00,49.8,-11.9,30.01,West,267,5.0,8.0,7,0.00,,,0.00,VWS V14.01,2013-01-22 12:53:00,
2013-01-22 05:54:00,49.8,-11.9,30.02,West,272,5.0,8.0,7,0.00,,,0.00,VWS V14.01,2013-01-22 12:54:00,
2013-01-22 05:55:00,49.9,-11.8,30.02,WNW,288,6.0,11.0,7,0.00,,,0.00,VWS V14.01,2013-01-22 12:55:00,
2013-01-22 05:56:00,49.9,-11.8,30.01,West,260,6.0,15.0,7,0.00,,,0.00,VWS V14.01,2013-01-22 12:56:00,
2013-01-22 05:57:00,49.9,-11.8,30.02,WSW,244,7.0,21.0,7,0.00,,,0.00,VWS V14.01,2013-01-22 12:57:00,
2013-01-22 05:58:00,49.9,-11.8,30.01,West,260,13.0,14.0,7,0.00,,,0.00,VWS V14.01,2013-01-22 12:58:00,
2013-01-22 05:59:00,50.0,-11.7,30.01,West,279,5.0,13.0,7,0.00,,,0.00,VWS V14.01,2013-01-22 12:59:00,
2013-01-22 06:00:00,50.0,-11.7,30.01,West,275,4.0,13.0,7,0.00,,,0.00,VWS V14.01,2013-01-22 13:00:00,
2013-01-22 06:01:00,50.1,-11.6,30.02,West,280,8.0,8.0,7,0.00,,,0.00,VWS V14.01,2013-01-22 13:01:00,
2013-01-22 06:02:00,50.0,-11.7,30.01,West,266,4.0,7.0,7,0.00,,,0.00,VWS V14.01,2013-01-22 13:02:00,
2013-01-22 06:03:00,50.0,-11.7,30.01,WNW,288,6.0,9.0,7,0.00,,,0.00,VWS V14.01,2013-01-22 13:03:00,
2013-01-22 06:04:00,50.0,-11.7,30.02,West,277,9.0,9.0,7,0.00,,,0.00,VWS V14.01,2013-01-22 13:04:00,
2013-01-22 06:05:00,50.0,-11.7,30.02,WSW,248,8.0,10.0,7,0.00,,,0.00,VWS V14.01,2013-01-22 13:05:00,
2013-01-22 06:06:00,50.0,-11.7,30.02,WSW,248,10.0,11.0,7,0.00,,,0.00,VWS V14.01,2013-01-22 13:06:00,
2013-01-22 06:07:00,50.1,-11.6,30.02,WSW,257,5.0,9.0,7,0.00,,,0.00,VWS V14.01,2013-01-22 13:07:00,
2013-01-22 06:08:00,50.1,-11.6,30.02,WNW,282,9.0,13.0,7,0.00,,,0.00,VWS V14.01,2013-01-22 13:08:00,
2013-01-22 06:09:00,50.2,-11.6,30.02,West,275,7.0,8.0,7,0.00,,,0.00,VWS V14.01,2013-01-22 13:09:00,
2013-01-22 06:10:00,50.3,-11.5,30.02,West,281,6.0,11.0,7,0.00,,,0.00,VWS V14.01,2013-01-22 13:10:00,
2013-01-22 06:11:00,50.3,-11.5,30.02,WNW,293,8.0,18.0,7,0.00,,,0.00,VWS V14.01,2013-01-22 13:11:00,
2013-01-22 06:12:00,50.4,-11.4,30.02,WNW,294,5.0,8.0,7,0.00,,,0.00,VWS V14.01,2013-01-22 13:12:00,
2013-01-22 06:13:00,50.4,-11.4,30.02,WNW,285,10.0,10.0,7,0.00,,,0.00,VWS V14.01,2013-01-22 13:13:00,
2013-01-22 06:14:00,50.4,-11.4,30.02,SW,227,4.0,8.0,7,0.00,,,0.00,VWS V14.01,2013-01-22 13:14:00,
2013-01-22 06:15:00,50.5,-11.3,30.02,West,260,6.0,11.0,7,0.00,,,0.00,VWS V14.01,2013-01-22 13:15:00,
2013-01-22 06:16:00,50.5,-11.3,30.02,WSW,242,4.0,9.0,7,0.00,,,0.00,VWS V14.01,2013-01-22 13:16:00,
2013-01-22 06:17:00,50.6,-11.3,30.02,WNW,288,14.0,14.0,7,0.00,,,0.00,VWS V14.01,2013-01-22 13:17:00,
2013-01-22 06:18:00,50.8,-11.1,30.02,SW,233,14.0,15.0,7,0.00,,,0.00,VWS V14.01,2013-01-22 13:18:00,
2013-01-22 06:19:00,50.9,-11.0,30.02,WNW,290,5.0,15.0,7,0.00,,,0.00,VWS V14.01,2013-01-22 13:19:00,
2013-01-22 06:20:00,51.0,-14.0,30.02,SW,231,4.0,9.0,6,0.00,,,0.00,VWS V14.01,2013-01-22 13:20:00,
2013-01-22 06:21:00,51.0,-14.0,30.02,WSW,250,4.0,9.0,6,0.00,,,0.00,VWS V14.01,2013-01-22 13:21:00,
2013-01-22 06:22:00,51.0,-11.0,30.02,NNW,328,11.0,11.0,7,0.00,,,0.00,VWS V14.01,2013-01-22 13:22:00,
2013-01-22 06:23:00,51.1,-14.0,30.02,West,270,8.0,18.0,6,0.00,,,0.00,VWS V14.01,2013-01-22 13:23:00,
2013-01-22 06:24:00,51.1,-14.0,30.02,WSW,254,2.0,9.0,6,0.00,,,0.00,VWS V14.01,2013-01-22 13:24:00,
2013-01-22 06:25:00,51.1,-14.0,30.02,WSW,254,7.0,10.0,6,0.00,,,0.00,VWS V14.01,2013-01-22 13:25:00,
2013-01-22 06:26:00,51.2,-13.9,30.02,NW,309,8.0,11.0,6,0.00,,,0.00,VWS V14.01,2013-01-22 13:26:00,
2013-01-22 06:27:00,51.2,-13.9,30.02,West,272,6.0,13.0,6,0.00,,,0.00,VWS V14.01,2013-01-22 13:27:00,
2013-01-22 06:28:00,51.3,-13.8,30.02,WNW,290,6.0,13.0,6,0.00,,,0.00,VWS V14.01,2013-01-22 13:28:00,
2013-01-22 06:29:00,51.3,-13.8,30.02,NW,318,6.0,10.0,6,0.00,,,0.00,VWS V14.01,2013-01-22 13:29:00,
2013-01-22 06:30:00,51.3,-13.8,30.02,WNW,290,5.0,11.0,6,0.00,,,0.00,VWS V14.01,2013-01-22 13:30:00,
2013-01-22 06:31:00,51.3,-13.8,30.02,WNW,290,4.0,5.0,6,0.00,,,0.00,VWS V14.01,2013-01-22 13:31:00,
2013-01-22 06:32:00,51.3,-13.8,30.02,West,265,5.0,7.0,6,0.00,,,0.00,VWS V14.01,2013-01-22 13:32:00,
2013-01-22 06:33:00,51.2,-13.9,30.02,West,277,12.0,12.0,6,0.00,,,0.00,VWS V14.01,2013-01-22 13:33:00,
2013-01-22 06:34:00,51.2,-13.9,30.02,WNW,296,2.0,12.0,6,0.00,,,0.00,VWS V14.01,2013-01-22 13:34:00,
2013-01-22 06:35:00,51.2,-13.9,30.03,WNW,284,1.0,5.0,6,0.00,,,0.00,VWS V14.01,2013-01-22 13:35:00,
2013-01-22 06:36:00,51.1,-14.0,30.02,WNW,287,0.0,4.0,6,0.00,,,0.00,VWS V14.01,2013-01-22 13:36:00,
2013-01-22 06:37:00,51.0,-14.0,30.02,West,264,1.0,5.0,6,0.00,,,0.00,VWS V14.01,2013-01-22 13:37:00,
2013-01-22 06:38:00,50.9,-14.1,30.03,WSW,255,2.0,6.0,6,0.00,,,0.00,VWS V14.01,2013-01-22 13:38:00,
2013-01-22 06:39:00,50.9,-14.1,30.02,WSW,257,6.0,6.0,6,0.00,,,0.00,VWS V14.01,2013-01-22 13:39:00,
2013-01-22 06:40:00,50.8,-14.2,30.03,West,277,5.0,8.0,6,0.00,,,0.00,VWS V14.01,2013-01-22 13:40:00,
2013-01-22 06:41:00,50.7,-14.3,30.03,WNW,289,3.0,7.0,6,0.00,,,0.00,VWS V14.01,2013-01-22 13:41:00,
2013-01-22 06:42:00,50.6,-14.3,30.03,WNW,288,3.0,6.0,6,0.00,,,0.00,VWS V14.01,2013-01-22 13:42:00,
2013-01-22 06:43:00,50.4,-14.5,30.03,WNW,288,4.0,4.0,6,0.00,,,0.00,VWS V14.01,2013-01-22 13:43:00,
2013-01-22 06:44:00,50.4,-14.5,30.03,WNW,282,4.0,5.0,6,0.00,,,0.00,VWS V14.01,2013-01-22 13:44:00,
2013-01-22 06:45:00,50.3,-14.6,30.03,West,272,3.0,6.0,6,0.00,,,0.00,VWS V14.01,2013-01-22 13:45:00,
2013-01-22 06:46:00,50.2,-14.6,30.03,West,271,4.0,8.0,6,0.00,,,0.00,VWS V14.01,2013-01-22 13:46:00,
2013-01-22 06:47:00,50.1,-14.7,30.03,West,271,3.0,4.0,6,0.00,,,0.00,VWS V14.01,2013-01-22 13:47:00,
2013-01-22 06:48:00,50.1,-14.7,30.03,West,271,2.0,4.0,6,0.00,,,0.00,VWS V14.01,2013-01-22 13:48:00,
2013-01-22 06:49:00,50.0,-14.8,30.03,West,271,3.0,6.0,6,0.00,,,0.00,VWS V14.01,2013-01-22 13:49:00,
2013-01-22 06:50:00,49.9,-14.9,30.03,West,272,2.0,5.0,6,0.00,,,0.00,VWS V14.01,2013-01-22 13:50:00,
2013-01-22 06:51:00,49.8,-14.9,30.03,West,275,6.0,6.0,6,0.00,,,0.00,VWS V14.01,2013-01-22 13:51:00,
2013-01-22 06:52:00,49.8,-14.9,30.04,WNW,286,4.0,7.0,6,0.00,,,0.00,VWS V14.01,2013-01-22 13:52:00,
2013-01-22 06:53:00,49.7,-15.0,30.04,WNW,286,1.0,4.0,6,0.00,,,0.00,VWS V14.01,2013-01-22 13:53:00,
2013-01-22 06:54:00,49.7,-15.0,30.04,West,273,5.0,6.0,6,0.00,,,0.00,VWS V14.01,2013-01-22 13:54:00,
2013-01-22 06:55:00,49.6,-12.0,30.03,West,274,1.0,4.0,7,0.00,,,0.00,VWS V14.01,2013-01-22 13:55:00,
2013-01-22 06:56:00,49.5,-12.1,30.03,West,268,5.0,5.0,7,0.00,,,0.00,VWS V14.01,2013-01-22 13:56:00,
2013-01-22 06:57:00,49.4,-12.1,30.03,WSW,250,4.0,5.0,7,0.00,,,0.00,VWS V14.01,2013-01-22 13:57:00,
2013-01-22 06:58:00,49.2,-12.3,30.03,West,279,8.0,8.0,7,0.00,,,0.00,VWS V14.01,2013-01-22 13:58:00,
2013-01-22 06:59:00,49.2,-15.4,30.03,WSW,254,3.0,10.0,6,0.00,,,0.00,VWS V14.01,2013-01-22 13:59:00,
2013-01-22 07:00:00,49.2,-15.4,30.03,WSW,254,2.0,2.0,6,0.00,,,0.00,VWS V14.01,2013-01-22 14:00:00,
2013-01-22 07:01:00,49.2,-15.4,30.03,WSW,254,6.0,6.0,6,0.00,,,0.00,VWS V14.01,2013-01-22 14:01:00,
2013-01-22 07:02:00,49.1,-15.4,30.03,WSW,254,5.0,5.0,6,0.00,,,0.00,VWS V14.01,2013-01-22 14:02:00,
2013-01-22 07:03:00,49.1,-15.4,30.03,WSW,244,8.0,8.0,6,0.00,,,0.00,VWS V14.01,2013-01-22 14:03:00,
2013-01-22 07:04:00,49.0,-15.5,30.03,WSW,247,6.0,8.0,6,0.00,,,0.00,VWS V14.01,2013-01-22 14:04:00,
2013-01-22 07:05:00,49.0,-15.5,30.03,West,275,5.0,9.0,6,0.00,,,0.00,VWS V14.01,2013-01-22 14:05:00,
2013-01-22 07:06:00,49.0,-15.5,30.03,West,267,5.0,7.0,6,0.00,,,0.00,VWS V14.01,2013-01-22 14:06:00,
2013-01-22 07:07:00,49.1,-15.4,30.03,WSW,257,1.0,6.0,6,0.00,,,0.00,VWS V14.01,2013-01-22 14:07:00,
2013-01-22 07:08:00,49.1,-15.4,30.03,West,273,3.0,7.0,6,0.00,,,0.00,VWS V14.01,2013-01-22 14:08:00,
2013-01-22 07:09:00,49.1,-15.4,30.03,WSW,245,3.0,6.0,6,0.00,,,0.00,VWS V14.01,2013-01-22 14:09:00,
2013-01-22 07:10:00,49.0,-15.5,30.03,West,280,6.0,7.0,6,0.00,,,0.00,VWS V14.01,2013-01-22 14:10:00,
2013-01-22 07:11:00,49.0,-15.5,30.03,West,280,6.0,6.0,6,0.00,,,0.00,VWS V14.01,2013-01-22 14:11:00,
2013-01-22 07:12:00,49.0,-15.5,30.03,West,265,4.0,6.0,6,0.00,,,0.00,VWS V14.01,2013-01-22 14:12:00,
2013-01-22 07:13:00,49.0,-15.5,30.03,West,265,4.0,8.0,6,0.00,,,0.00,VWS V14.01,2013-01-22 14:13:00,
2013-01-22 07:14:00,49.1,-15.4,30.03,West,259,8.0,8.0,6,0.00,,,0.00,VWS V14.01,2013-01-22 14:14:00,
2013-01-22 07:15:00,49.2,-15.4,30.03,West,263,6.0,9.0,6,0.00,,,0.00,VWS V14.01,2013-01-22 14:15:00,
2013-01-22 07:16:00,49.3,-15.3,30.03,West,277,8.0,8.0,6,0.00,,,0.00,VWS V14.01,2013-01-22 14:16:00,
2013-01-22 07:17:00,49.4,-15.2,30.03,SW,227,4.0,10.0,6,0.00,,,0.00,VWS V14.01,2013-01-22 14:17:00,
2013-01-22 07:18:00,49.5,-15.1,30.03,West,266,7.0,11.0,6,0.00,,,0.00,VWS V14.01,2013-01-22 14:18:00,
2013-01-22 07:19:00,49.5,-15.1,30.03,West,263,2.0,6.0,6,0.00,,,0.00,VWS V14.01,2013-01-22 14:19:00,
2013-01-22 07:20:00,49.6,-15.1,30.03,West,277,5.0,6.0,6,0.00,,,0.00,VWS V14.01,2013-01-22 14:20:00,
2013-01-22 07:21:00,49.6,-15.1,30.03,West,260,6.0,9.0,6,0.00,,,0.00,VWS V14.01,2013-01-22 14:21:00,
2013-01-22 07:22:00,49.8,-14.9,30.03,West,259,4.0,11.0,6,0.00,,,0.00,VWS V14.01,2013-01-22 14:22:00,
2013-01-22 07:23:00,49.8,-14.9,30.03,West,261,5.0,5.0,6,0.00,,,0.00,VWS V14.01,2013-01-22 14:23:00,
2013-01-22 07:24:00,49.9,-14.9,30.03,SW,232,3.0,8.0,6,0.00,,,0.00,VWS V14.01,2013-01-22 14:24:00,
2013-01-22 07:25:00,50.0,-14.8,30.03,West,264,8.0,8.0,6,0.00,,,0.00,VWS V14.01,2013-01-22 14:25:00,
2013-01-22 07:26:00,50.0,-14.8,30.03,West,263,3.0,8.0,6,0.00,,,0.00,VWS V14.01,2013-01-22 14:26:00,
2013-01-22 07:27:00,50.1,-14.7,30.03,West,263,2.0,3.0,6,0.00,,,0.00,VWS V14.01,2013-01-22 14:27:00,
2013-01-22 07:28:00,50.2,-14.6,30.03,West,277,4.0,7.0,6,0.00,,,0.00,VWS V14.01,2013-01-22 14:28:00,
2013-01-22 07:29:00,50.3,-14.6,30.03,West,281,1.0,5.0,6,0.00,,,0.00,VWS V14.01,2013-01-22 14:29:00,
2013-01-22 07:30:00,50.4,-14.5,30.03,West,280,4.0,6.0,6,0.00,,,0.00,VWS V14.01,2013-01-22 14:30:00,
2013-01-22 07:31:00,50.4,-14.5,30.03,WNW,292,6.0,6.0,6,0.00,,,0.00,VWS V14.01,2013-01-22 14:31:00,
2013-01-22 07:32:00,50.6,-17.9,30.03,West,277,1.0,6.0,5,0.00,,,0.00,VWS V14.01,2013-01-22 14:32:00,
2013-01-22 07:33:00,50.7,-14.3,30.03,West,277,1.0,1.0,6,0.00,,,0.00,VWS V14.01,2013-01-22 14:33:00,
2013-01-22 07:34:00,50.4,-11.4,30.03,East,91,4.0,7.0,7,0.00,,,0.00,VWS V14.01,2013-01-22 14:34:00,
2013-01-22 07:35:00,49.3,-1.1,30.03,East,91,6.0,8.0,12,0.00,,,0.00,VWS V14.01,2013-01-22 14:35:00,
2013-01-22 07:36:00,48.3,1.3,30.03,East,83,7.0,7.0,14,0.00,,,0.00,VWS V14.01,2013-01-22 14:36:00,
2013-01-22 07:37:00,46.1,2.4,30.04,East,80,1.0,6.0,16,0.00,,,0.00,VWS V14.01,2013-01-22 14:37:00,
2013-01-22 07:38:00,44.9,2.7,30.04,East,80,2.0,5.0,17,0.00,,,0.00,VWS V14.01,2013-01-22 14:38:00,
2013-01-22 07:39:00,43.6,2.9,30.03,East,80,0.0,5.0,18,0.00,,,0.00,VWS V14.01,2013-01-22 14:39:00,
2013-01-22 07:40:00,42.9,3.5,30.04,East,80,1.0,2.0,19,0.00,,,0.00,VWS V14.01,2013-01-22 14:40:00,
2013-01-22 07:41:00,42.3,4.1,30.04,East,80,1.0,2.0,20,0.00,,,0.00,VWS V14.01,2013-01-22 14:41:00,
2013-01-22 07:42:00,41.5,4.5,30.04,East,80,0.0,3.0,21,0.00,,,0.00,VWS V14.01,2013-01-22 14:42:00,
2013-01-22 07:43:00,40.9,5.0,30.04,East,80,3.0,4.0,22,0.00,,,0.00,VWS V14.01,2013-01-22 14:43:00,
2013-01-22 07:44:00,40.4,4.6,30.04,East,80,4.0,4.0,22,0.00,,,0.00,VWS V14.01,2013-01-22 14:44:00,
2013-01-22 07:45:00,39.8,5.0,30.05,ESE,104,2.0,6.0,23,0.00,,,0.00,VWS V14.01,2013-01-22 14:45:00,
2013-01-22 07:46:00,39.5,4.8,30.04,ESE,104,4.0,4.0,23,0.00,,,0.00,VWS V14.01,2013-01-22 14:46:00,
2013-01-22 07:47:00,39.0,5.3,30.04,East,93,6.0,6.0,24,0.00,,,0.00,VWS V14.01,2013-01-22 14:47:00,
2013-01-22 07:48:00,38.7,5.0,30.04,East,93,0.0,5.0,24,0.00,,,0.00,VWS V14.01,2013-01-22 14:48:00,
2013-01-22 07:49:00,38.5,4.9,30.05,East,93,2.0,4.0,24,0.00,,,0.00,VWS V14.01,2013-01-22 14:49:00,
2013-01-22 07:50:00,38.3,5.6,30.04,East,93,0.0,4.0,25,0.00,,,0.00,VWS V14.01,2013-01-22 14:50:00,
2013-01-22 07:51:00,38.2,5.5,30.05,East,93,0.0,0.0,25,0.00,,,0.00,VWS V14.01,2013-01-22 14:51:00,
2013-01-22 07:52:00,38.0,5.3,30.05,ENE,67,5.0,6.0,25,0.00,,,0.00,VWS V14.01,2013-01-22 14:52:00,
2013-01-22 07:53:00,37.8,5.2,30.04,ENE,65,2.0,6.0,25,0.00,,,0.00,VWS V14.01,2013-01-22 14:53:00,
2013-01-22 07:54:00,37.6,5.0,30.05,East,89,8.0,8.0,25,0.00,,,0.00,VWS V14.01,2013-01-22 14:54:00,
2013-01-22 07:55:00,37.5,4.9,30.04,East,92,2.0,8.0,25,0.00,,,0.00,VWS V14.01,2013-01-22 14:55:00,
2013-01-22 07:56:00,37.5,4.9,30.05,East,92,2.0,3.0,25,0.00,,,0.00,VWS V14.01,2013-01-22 14:56:00,
2013-01-22 07:57:00,37.6,5.0,30.05,East,82,1.0,6.0,25,0.00,,,0.00,VWS V14.01,2013-01-22 14:57:00,
2013-01-22 07:58:00,37.6,5.0,30.05,East,82,4.0,4.0,25,0.00,,,0.00,VWS V14.01,2013-01-22 14:58:00,
2013-01-22 07:59:00,37.7,5.1,30.05,East,82,4.0,5.0,25,0.00,,,0.00,VWS V14.01,2013-01-22 14:59:00,
2013-01-22 08:00:00,37.7,5.1,30.05,East,82,0.0,4.0,25,0.00,,,0.00,VWS V14.01,2013-01-22 15:00:00,
2013-01-22 08:01:00,37.7,5.1,30.05,East,82,0.0,1.0,25,0.00,,,0.00,VWS V14.01,2013-01-22 15:01:00,
2013-01-22 08:02:00,37.7,5.1,30.05,East,82,0.0,0.0,25,0.00,,,0.00,VWS V14.01,2013-01-22 15:02:00,
2013-01-22 08:03:00,37.7,5.1,30.05,East,82,2.0,3.0,25,0.00,,,0.00,VWS V14.01,2013-01-22 15:03:00,
2013-01-22 08:04:00,37.8,5.2,30.05,East,82,0.0,5.0,25,0.00,,,0.00,VWS V14.01,2013-01-22 15:04:00,
2013-01-22 08:05:00,37.8,4.3,30.05,East,82,2.0,4.0,24,0.00,,,0.00,VWS V14.01,2013-01-22 15:05:00,
2013-01-22 08:06:00,37.8,4.3,30.05,East,82,2.0,3.0,24,0.00,,,0.00,VWS V14.01,2013-01-22 15:06:00,
2013-01-22 08:07:00,37.9,4.3,30.05,East,82,0.0,5.0,24,0.00,,,0.00,VWS V14.01,2013-01-22 15:07:00,
2013-01-22 08:08:00,38.0,4.4,30.05,East,82,0.0,1.0,24,0.00,,,0.00,VWS V14.01,2013-01-22 15:08:00,
2013-01-22 08:09:00,38.1,4.5,30.05,East,82,0.0,0.0,24,0.00,,,0.00,VWS V14.01,2013-01-22 15:09:00,
2013-01-22 08:10:00,38.3,4.7,30.05,East,82,0.0,0.0,24,0.00,,,0.00,VWS V14.01,2013-01-22 15:10:00,
2013-01-22 08:11:00,38.4,3.8,30.05,East,82,0.0,1.0,23,0.00,,,0.00,VWS V14.01,2013-01-22 15:11:00,
2013-01-22 08:12:00,38.6,3.1,30.05,East,82,0.0,0.0,22,0.00,,,0.00,VWS V14.01,2013-01-22 15:12:00,
2013-01-22 08:13:00,38.8,3.2,30.04,East,82,1.0,1.0,22,0.00,,,0.00,VWS V14.01,2013-01-22 15:13:00,
2013-01-22 08:14:00,39.0,3.4,30.05,East,82,0.0,1.0,22,0.00,,,0.00,VWS V14.01,2013-01-22 15:14:00,
2013-01-22 08:15:00,39.1,3.5,30.04,East,82,0.0,0.0,22,0.00,,,0.00,VWS V14.01,2013-01-22 15:15:00,
2013-01-22 08:16:00,39.2,3.6,30.04,East,82,1.0,1.0,22,0.00,,,0.00,VWS V14.01,2013-01-22 15:16:00,
2013-01-22 08:17:00,39.6,2.9,30.04,ENE,60,5.0,6.0,21,0.00,,,0.00,VWS V14.01,2013-01-22 15:17:00,
2013-01-22 08:18:00,39.9,2.1,30.04,ENE,60,0.0,5.0,20,0.00,,,0.00,VWS V14.01,2013-01-22 15:18:00,
2013-01-22 08:19:00,40.1,2.3,30.04,ENE,60,0.0,0.0,20,0.00,,,0.00,VWS V14.01,2013-01-22 15:19:00,
2013-01-22 08:20:00,40.4,2.5,30.04,ENE,60,0.0,0.0,20,0.00,,,0.00,VWS V14.01,2013-01-22 15:20:00,
2013-01-22 08:21:00,40.5,2.6,30.04,ENE,60,0.0,0.0,20,0.00,,,0.00,VWS V14.01,2013-01-22 15:21:00,
2013-01-22 08:22:00,40.8,1.8,30.04,ENE,60,0.0,0.0,19,0.00,,,0.00,VWS V14.01,2013-01-22 15:22:00,
2013-01-22 08:23:00,41.1,2.0,30.04,ENE,60,0.0,0.0,19,0.00,,,0.00,VWS V14.01,2013-01-22 15:23:00,
2013-01-22 08:24:00,41.5,2.3,30.04,ENE,60,2.0,2.0,19,0.00,,,0.00,VWS V14.01,2013-01-22 15:24:00,
2013-01-22 08:25:00,41.9,2.7,30.04,ESE,115,4.0,4.0,19,0.00,,,0.00,VWS V14.01,2013-01-22 15:25:00,
2013-01-22 08:26:00,42.1,2.8,30.04,SE,136,6.0,6.0,19,0.00,,,0.00,VWS V14.01,2013-01-22 15:26:00,
2013-01-22 08:27:00,42.5,2.0,30.04,SE,138,1.0,5.0,18,0.00,,,0.00,VWS V14.01,2013-01-22 15:27:00,
2013-01-22 08:28:00,42.6,2.1,30.04,SE,138,0.0,1.0,18,0.00,,,0.00,VWS V14.01,2013-01-22 15:28:00,
2013-01-22 08:29:00,42.7,2.2,30.04,SE,138,0.0,1.0,18,0.00,,,0.00,VWS V14.01,2013-01-22 15:29:00,
2013-01-22 08:30:00,42.9,2.3,30.04,SE,138,0.0,0.0,18,0.00,,,0.00,VWS V14.01,2013-01-22 15:30:00,
2013-01-22 08:31:00,43.0,3.6,30.04,SE,138,2.0,2.0,19,0.00,,,0.00,VWS V14.01,2013-01-22 15:31:00,
2013-01-22 08:32:00,43.4,1.5,30.04,SE,138,0.0,3.0,17,0.00,,,0.00,VWS V14.01,2013-01-22 15:32:00,
2013-01-22 08:33:00,43.6,2.9,30.04,SE,138,1.0,1.0,18,0.00,,,0.00,VWS V14.01,2013-01-22 15:33:00,
2013-01-22 08:34:00,44.0,3.2,30.04,SE,138,2.0,3.0,18,0.00,,,0.00,VWS V14.01,2013-01-22 15:34:00,
2013-01-22 08:35:00,44.3,3.5,30.04,SE,138,1.0,3.0,18,0.00,,,0.00,VWS V14.01,2013-01-22 15:35:00,
2013-01-22 08:36:00,44.4,3.6,30.04,SE,138,1.0,2.0,18,0.00,,,0.00,VWS V14.01,2013-01-22 15:36:00,
2013-01-22 08:37:00,44.6,2.5,30.04,SE,138,0.0,2.0,17,0.00,,,0.00,VWS V14.01,2013-01-22 15:37:00,
2013-01-22 08:38:00,44.8,3.9,30.04,SE,138,0.0,0.0,18,0.00,,,0.00,VWS V14.01,2013-01-22 15:38:00,
2013-01-22 08:39:00,45.1,4.1,30.04,SE,138,1.0,1.0,18,0.00,,,0.00,VWS V14.01,2013-01-22 15:39:00,
2013-01-22 08:40:00,45.3,4.3,30.04,SE,138,1.0,2.0,18,0.00,,,0.00,VWS V14.01,2013-01-22 15:40:00,
2013-01-22 08:41:00,45.3,4.3,30.04,SE,138,0.0,1.0,18,0.00,,,0.00,VWS V14.01,2013-01-22 15:41:00,
2013-01-22 08:42:00,45.6,4.6,30.04,SE,138,1.0,4.0,18,0.00,,,0.00,VWS V14.01,2013-01-22 15:42:00,
2013-01-22 08:43:00,45.8,4.7,30.04,SE,138,2.0,2.0,18,0.00,,,0.00,VWS V14.01,2013-01-22 15:43:00,
2013-01-22 08:44:00,46.0,4.9,30.04,SE,138,1.0,2.0,18,0.00,,,0.00,VWS V14.01,2013-01-22 15:44:00,
2013-01-22 08:45:00,46.1,5.0,30.04,SE,138,2.0,5.0,18,0.00,,,0.00,VWS V14.01,2013-01-22 15:45:00,
2013-01-22 08:46:00,46.1,3.7,30.04,SE,138,2.0,2.0,17,0.00,,,0.00,VWS V14.01,2013-01-22 15:46:00,
2013-01-22 08:47:00,46.1,5.0,30.04,SE,138,4.0,5.0,18,0.00,,,0.00,VWS V14.01,2013-01-22 15:47:00,
2013-01-22 08:48:00,46.0,4.9,30.04,SE,144,2.0,6.0,18,0.00,,,0.00,VWS V14.01,2013-01-22 15:48:00,
2013-01-22 08:49:00,45.9,3.6,30.04,SE,144,1.0,5.0,17,0.00,,,0.00,VWS V14.01,2013-01-22 15:49:00,
2013-01-22 08:50:00,45.8,2.2,30.04,SE,144,2.0,4.0,16,0.00,,,0.00,VWS V14.01,2013-01-22 15:50:00,
2013-01-22 08:51:00,45.7,2.1,30.04,SSE,147,5.0,5.0,16,0.00,,,0.00,VWS V14.01,2013-01-22 15:51:00,
2013-01-22 08:52:00,45.4,1.9,30.04,SSE,161,1.0,5.0,16,0.00,,,0.00,VWS V14.01,2013-01-22 15:52:00,
2013-01-22 08:53:00,45.2,1.7,30.04,SSE,161,3.0,3.0,16,0.00,,,0.00,VWS V14.01,2013-01-22 15:53:00,
2013-01-22 08:54:00,45.1,1.6,30.04,SSE,161,2.0,3.0,16,0.00,,,0.00,VWS V14.01,2013-01-22 15:54:00,
2013-01-22 08:55:00,45.1,1.6,30.04,SSE,161,0.0,2.0,16,0.00,,,0.00,VWS V14.01,2013-01-22 15:55:00,
2013-01-22 08:56:00,45.1,1.6,30.03,SSE,161,2.0,2.0,16,0.00,,,0.00,VWS V14.01,2013-01-22 15:56:00,
2013-01-22 08:57:00,45.2,1.7,30.03,SSE,161,0.0,3.0,16,0.00,,,0.00,VWS V14.01,2013-01-22 15:57:00,
2013-01-22 08:58:00,45.3,0.4,30.03,SSE,161,4.0,4.0,15,0.00,,,0.00,VWS V14.01,2013-01-22 15:58:00,
2013-01-22 08:59:00,45.3,1.8,30.03,SSE,161,2.0,4.0,16,0.00,,,0.00,VWS V14.01,2013-01-22 15:59:00,
2013-01-22 09:00:00,45.4,1.9,30.03,SSE,161,1.0,2.0,16,0.00,,,0.00,VWS V14.01,2013-01-22 16:00:00,
2013-01-22 09:01:00,45.4,1.9,30.03,SSE,161,1.0,5.0,16,0.00,,,0.00,VWS V14.01,2013-01-22 16:01:00,
2013-01-22 09:02:00,45.4,1.9,30.03,SSE,161,2.0,5.0,16,0.00,,,0.00,VWS V14.01,2013-01-22 16:02:00,
2013-01-22 09:03:00,45.3,1.8,30.04,SSE,161,1.0,5.0,16,0.00,,,0.00,VWS V14.01,2013-01-22 16:03:00,
2013-01-22 09:04:00,45.3,1.8,30.03,SSE,161,2.0,3.0,16,0.00,,,0.00,VWS V14.01,2013-01-22 16:04:00,
2013-01-22 09:05:00,45.3,0.4,30.04,SSE,161,5.0,5.0,15,0.00,,,0.00,VWS V14.01,2013-01-22 16:05:00,
2013-01-22 09:06:00,45.2,1.7,30.04,ENE,74,5.0,5.0,16,0.00,,,0.00,VWS V14.01,2013-01-22 16:06:00,
2013-01-22 09:07:00,45.1,1.6,30.04,ENE,72,4.0,6.0,16,0.00,,,0.00,VWS V14.01,2013-01-22 16:07:00,
2013-01-22 09:08:00,44.9,1.4,30.04,ENE,72,0.0,5.0,16,0.00,,,0.00,VWS V14.01,2013-01-22 16:08:00,
2013-01-22 09:09:00,44.9,1.4,30.04,ENE,72,2.0,4.0,16,0.00,,,0.00,VWS V14.01,2013-01-22 16:09:00,
2013-01-22 09:10:00,44.9,1.4,30.04,ENE,72,1.0,3.0,16,0.00,,,0.00,VWS V14.01,2013-01-22 16:10:00,
2013-01-22 09:11:00,44.9,1.4,30.04,ENE,72,2.0,3.0,16,0.00,,,0.00,VWS V14.01,2013-01-22 16:11:00,
2013-01-22 09:12:00,44.9,2.7,30.03,ENE,72,4.0,5.0,17,0.00,,,0.00,VWS V14.01,2013-01-22 16:12:00,
2013-01-22 09:13:00,44.9,1.4,30.03,ENE,72,2.0,5.0,16,0.00,,,0.00,VWS V14.01,2013-01-22 16:13:00,
2013-01-22 09:14:00,45.0,2.8,30.03,East,87,4.0,5.0,17,0.00,,,0.00,VWS V14.01,2013-01-22 16:14:00,
2013-01-22 09:15:00,45.1,2.9,30.04,ESE,116,4.0,7.0,17,0.00,,,0.00,VWS V14.01,2013-01-22 16:15:00,
2013-01-22 09:16:00,45.1,2.9,30.04,ESE,116,4.0,5.0,17,0.00,,,0.00,VWS V14.01,2013-01-22 16:16:00,
2013-01-22 09:17:00,45.2,3.0,30.04,SSE,161,6.0,7.0,17,0.00,,,0.00,VWS V14.01,2013-01-22 16:17:00,
2013-01-22 09:18:00,45.2,1.7,30.04,SE,134,2.0,6.0,16,0.00,,,0.00,VWS V14.01,2013-01-22 16:18:00,
2013-01-22 09:19:00,45.2,1.7,30.04,SE,134,0.0,5.0,16,0.00,,,0.00,VWS V14.01,2013-01-22 16:19:00,
2013-01-22 09:20:00,45.4,0.5,30.04,SE,125,2.0,5.0,15,0.00,,,0.00,VWS V14.01,2013-01-22 16:20:00,
2013-01-22 09:21:00,45.4,0.5,30.04,SE,125,4.0,4.0,15,0.00,,,0.00,VWS V14.01,2013-01-22 16:21:00,
2013-01-22 09:22:00,45.6,0.6,30.04,SE,126,1.0,5.0,15,0.00,,,0.00,VWS V14.01,2013-01-22 16:22:00,
2013-01-22 09:23:00,45.7,0.7,30.03,SE,126,2.0,2.0,15,0.00,,,0.00,VWS V14.01,2013-01-22 16:23:00,
2013-01-22 09:24:00,45.8,0.8,30.04,SE,142,2.0,6.0,15,0.00,,,0.00,VWS V14.01,2013-01-22 16:24:00,
2013-01-22 09:25:00,45.9,-0.6,30.03,SE,142,3.0,4.0,14,0.00,,,0.00,VWS V14.01,2013-01-22 16:25:00,
2013-01-22 09:26:00,46.0,0.9,30.03,SE,142,5.0,5.0,15,0.00,,,0.00,VWS V14.01,2013-01-22 16:26:00,
2013-01-22 09:27:00,46.2,-0.4,30.03,SSE,167,2.0,5.0,14,0.00,,,0.00,VWS V14.01,2013-01-22 16:27:00,
2013-01-22 09:28:00,46.3,-0.3,30.04,SSE,167,0.0,2.0,14,0.00,,,0.00,VWS V14.01,2013-01-22 16:28:00,
2013-01-22 09:29:00,46.5,-0.1,30.04,SSE,167,2.0,2.0,14,0.00,,,0.00,VWS V14.01,2013-01-22 16:29:00,
2013-01-22 09:30:00,46.6,0.0,30.04,SSE,167,1.0,5.0,14,0.00,,,0.00,VWS V14.01,2013-01-22 16:30:00,
2013-01-22 09:31:00,46.7,0.0,30.04,SSE,167,4.0,4.0,14,0.00,,,0.00,VWS V14.01,2013-01-22 16:31:00,
2013-01-22 09:32:00,46.9,0.2,30.04,SSE,167,0.0,4.0,14,0.00,,,0.00,VWS V14.01,2013-01-22 16:32:00,
2013-01-22 09:33:00,47.1,-2.9,30.03,SE,136,1.0,7.0,12,0.00,,,0.00,VWS V14.01,2013-01-22 16:33:00,
2013-01-22 09:34:00,47.3,-2.7,30.03,SE,136,3.0,5.0,12,0.00,,,0.00,VWS V14.01,2013-01-22 16:34:00,
2013-01-22 09:35:00,47.6,-2.5,30.03,SE,136,4.0,5.0,12,0.00,,,0.00,VWS V14.01,2013-01-22 16:35:00,
2013-01-22 09:36:00,47.7,-2.4,30.03,SE,136,0.0,5.0,12,0.00,,,0.00,VWS V14.01,2013-01-22 16:36:00,
2013-01-22 09:37:00,48.0,-2.2,30.03,SE,136,1.0,1.0,12,0.00,,,0.00,VWS V14.01,2013-01-22 16:37:00,
2013-01-22 09:38:00,48.2,-2.0,30.03,SE,136,1.0,4.0,12,0.00,,,0.00,VWS V14.01,2013-01-22 16:38:00,
2013-01-22 09:39:00,48.5,-1.8,30.04,SE,136,0.0,1.0,12,0.00,,,0.00,VWS V14.01,2013-01-22 16:39:00,
2013-01-22 09:40:00,48.7,-1.6,30.04,SE,136,0.0,4.0,12,0.00,,,0.00,VWS V14.01,2013-01-22 16:40:00,
2013-01-22 09:41:00,48.9,-1.5,30.04,SE,136,0.0,1.0,12,0.00,,,0.00,VWS V14.01,2013-01-22 16:41:00,
2013-01-22 09:42:00,49.1,-1.3,30.04,SE,136,4.0,5.0,12,0.00,,,0.00,VWS V14.01,2013-01-22 16:42:00,
2013-01-22 09:43:00,49.2,-1.2,30.04,SE,136,2.0,4.0,12,0.00,,,0.00,VWS V14.01,2013-01-22 16:43:00,
2013-01-22 09:44:00,49.3,-1.1,30.04,SE,136,0.0,2.0,12,0.00,,,0.00,VWS V14.01,2013-01-22 16:44:00,
2013-01-22 09:45:00,49.5,-1.0,30.04,SE,136,2.0,2.0,12,0.00,,,0.00,VWS V14.01,2013-01-22 16:45:00,
2013-01-22 09:46:00,49.6,-0.9,30.04,SE,136,1.0,2.0,12,0.00,,,0.00,VWS V14.01,2013-01-22 16:46:00,
2013-01-22 09:47:00,49.7,-2.7,30.04,SE,136,1.0,2.0,11,0.00,,,0.00,VWS V14.01,2013-01-22 16:47:00,
2013-01-22 09:48:00,49.8,-2.6,30.04,SE,136,4.0,4.0,11,0.00,,,0.00,VWS V14.01,2013-01-22 16:48:00,
2013-01-22 09:49:00,49.9,-0.7,30.03,SE,136,4.0,4.0,12,0.00,,,0.00,VWS V14.01,2013-01-22 16:49:00,
2013-01-22 09:50:00,49.9,-0.7,30.04,SE,136,1.0,4.0,12,0.00,,,0.00,VWS V14.01,2013-01-22 16:50:00,
2013-01-22 09:51:00,50.0,-0.6,30.04,SE,136,2.0,2.0,12,0.00,,,0.00,VWS V14.01,2013-01-22 16:51:00,
2013-01-22 09:52:00,50.2,-0.4,30.04,SE,136,2.0,4.0,12,0.00,,,0.00,VWS V14.01,2013-01-22 16:52:00,
2013-01-22 09:53:00,50.3,-0.4,30.04,SSE,165,4.0,6.0,12,0.00,,,0.00,VWS V14.01,2013-01-22 16:53:00,
2013-01-22 09:54:00,50.5,-2.0,30.04,SSE,165,2.0,5.0,11,0.00,,,0.00,VWS V14.01,2013-01-22 16:54:00,
2013-01-22 09:55:00,50.6,-2.0,30.04,SSE,165,2.0,4.0,11,0.00,,,0.00,VWS V14.01,2013-01-22 16:55:00,
2013-01-22 09:56:00,50.6,-2.0,30.04,SSE,165,4.0,5.0,11,0.00,,,0.00,VWS V14.01,2013-01-22 16:56:00,
2013-01-22 09:57:00,50.8,-1.8,30.04,SE,124,2.0,5.0,11,0.00,,,0.00,VWS V14.01,2013-01-22 16:57:00,
2013-01-22 09:58:00,50.8,-1.8,30.04,SE,124,2.0,3.0,11,0.00,,,0.00,VWS V14.01,2013-01-22 16:58:00,
2013-01-22 09:59:00,50.9,-1.7,30.04,SE,124,2.0,2.0,11,0.00,,,0.00,VWS V14.01,2013-01-22 16:59:00,
2013-01-22 10:00:00,51.0,-1.7,30.04,SE,124,2.0,4.0,11,0.00,,,0.00,VWS V14.01,2013-01-22 17:00:00,
2013-01-22 10:01:00,51.1,-1.6,30.04,SE,124,4.0,4.0,11,0.00,,,0.00,VWS V14.01,2013-01-22 17:01:00,
2013-01-22 10:02:00,51.3,-1.4,30.04,SE,124,1.0,5.0,11,0.00,,,0.00,VWS V14.01,2013-01-22 17:02:00,
2013-01-22 10:03:00,51.5,-1.3,30.04,SE,124,2.0,3.0,11,0.00,,,0.00,VWS V14.01,2013-01-22 17:03:00,
2013-01-22 10:04:00,51.6,-1.2,30.04,SE,124,2.0,4.0,11,0.00,,,0.00,VWS V14.01,2013-01-22 17:04:00,
2013-01-22 10:05:00,51.8,-1.0,30.04,SE,124,2.0,3.0,11,0.00,,,0.00,VWS V14.01,2013-01-22 17:05:00,
2013-01-22 10:06:00,51.9,-3.0,30.04,South,184,5.0,5.0,10,0.00,,,0.00,VWS V14.01,2013-01-22 17:06:00,
2013-01-22 10:07:00,51.9,-3.0,30.03,SSW,194,3.0,3.0,10,0.00,,,0.00,VWS V14.01,2013-01-22 17:07:00,
2013-01-22 10:08:00,51.9,-3.0,30.03,SSW,203,2.0,6.0,10,0.00,,,0.00,VWS V14.01,2013-01-22 17:08:00,
2013-01-22 10:09:00,51.9,-3.0,30.03,SSW,203,2.0,4.0,10,0.00,,,0.00,VWS V14.01,2013-01-22 17:09:00,
2013-01-22 10:10:00,51.9,-3.0,30.03,SSW,203,2.0,2.0,10,0.00,,,0.00,VWS V14.01,2013-01-22 17:10:00,
2013-01-22 10:11:00,51.9,-3.0,30.03,SSW,203,1.0,2.0,10,0.00,,,0.00,VWS V14.01,2013-01-22 17:11:00,
2013-01-22 10:12:00,52.0,-2.9,30.03,South,186,5.0,9.0,10,0.00,,,0.00,VWS V14.01,2013-01-22 17:12:00,
2013-01-22 10:13:00,52.1,-2.8,30.03,South,188,1.0,6.0,10,0.00,,,0.00,VWS V14.01,2013-01-22 17:13:00,
2013-01-22 10:14:00,52.2,-2.7,30.03,South,177,6.0,6.0,10,0.00,,,0.00,VWS V14.01,2013-01-22 17:14:00,
2013-01-22 10:15:00,52.3,-2.7,30.03,South,173,4.0,6.0,10,0.00,,,0.00,VWS V14.01,2013-01-22 17:15:00,
2013-01-22 10:16:00,52.3,-2.7,30.03,South,173,2.0,5.0,10,0.00,,,0.00,VWS V14.01,2013-01-22 17:16:00,
2013-01-22 10:17:00,52.4,-2.6,30.03,South,190,5.0,7.0,10,0.00,,,0.00,VWS V14.01,2013-01-22 17:17:00,
2013-01-22 10:18:00,52.4,-2.6,30.03,SSW,195,5.0,6.0,10,0.00,,,0.00,VWS V14.01,2013-01-22 17:18:00,
2013-01-22 10:19:00,52.3,-2.7,30.04,SSW,195,1.0,5.0,10,0.00,,,0.00,VWS V14.01,2013-01-22 17:19:00,
2013-01-22 10:20:00,52.3,-2.7,30.04,SSW,206,7.0,7.0,10,0.00,,,0.00,VWS V14.01,2013-01-22 17:20:00,
2013-01-22 10:21:00,52.3,-2.7,30.03,SSW,207,6.0,7.0,10,0.00,,,0.00,VWS V14.01,2013-01-22 17:21:00,
2013-01-22 10:22:00,52.3,-2.7,30.04,SSW,210,4.0,6.0,10,0.00,,,0.00,VWS V14.01,2013-01-22 17:22:00,
2013-01-22 10:23:00,52.2,-4.9,30.03,SW,225,2.0,7.0,9,0.00,,,0.00,VWS V14.01,2013-01-22 17:23:00,
2013-01-22 10:24:00,52.3,-2.7,30.03,SE,140,4.0,6.0,10,0.00,,,0.00,VWS V14.01,2013-01-22 17:24:00,
2013-01-22 10:25:00,52.3,-2.7,30.03,SSE,150,2.0,6.0,10,0.00,,,0.00,VWS V14.01,2013-01-22 17:25:00,
2013-01-22 10:26:00,52.4,-2.6,30.03,SSE,155,2.0,5.0,10,0.00,,,0.00,VWS V14.01,2013-01-22 17:26:00,
2013-01-22 10:27:00,52.6,-4.6,30.03,SW,217,5.0,8.0,9,0.00,,,0.00,VWS V14.01,2013-01-22 17:27:00,
2013-01-22 10:28:00,52.6,-4.6,30.03,SW,215,3.0,6.0,9,0.00,,,0.00,VWS V14.01,2013-01-22 17:28:00,
2013-01-22 10:29:00,52.7,-2.3,30.03,SSW,196,6.0,7.0,10,0.00,,,0.00,VWS V14.01,2013-01-22 17:29:00,
2013-01-22 10:30:00,52.8,-4.5,30.02,SSW,194,5.0,5.0,9,0.00,,,0.00,VWS V14.01,2013-01-22 17:30:00,
2013-01-22 10:31:00,52.9,-4.4,30.02,SSW,194,3.0,5.0,9,0.00,,,0.00,VWS V14.01,2013-01-22 17:31:00,
2013-01-22 10:32:00,53.0,-4.3,30.02,SSW,194,1.0,3.0,9,0.00,,,0.00,VWS V14.01,2013-01-22 17:32:00,
2013-01-22 10:33:00,53.2,-4.2,30.02,SSW,207,9.0,9.0,9,0.00,,,0.00,VWS V14.01,2013-01-22 17:33:00,
2013-01-22 10:34:00,53.3,-4.1,30.02,SSW,204,4.0,9.0,9,0.00,,,0.00,VWS V14.01,2013-01-22 17:34:00,
2013-01-22 10:35:00,53.5,-3.9,30.02,South,171,4.0,5.0,9,0.00,,,0.00,VWS V14.01,2013-01-22 17:35:00,
2013-01-22 10:36:00,53.5,-3.9,30.02,South,172,6.0,6.0,9,0.00,,,0.00,VWS V14.01,2013-01-22 17:36:00,
2013-01-22 10:37:00,53.7,-3.8,30.02,South,171,5.0,6.0,9,0.00,,,0.00,VWS V14.01,2013-01-22 17:37:00,
2013-01-22 10:38:00,53.8,-3.7,30.02,South,171,2.0,5.0,9,0.00,,,0.00,VWS V14.01,2013-01-22 17:38:00,
2013-01-22 10:39:00,54.1,-3.5,30.02,South,171,1.0,3.0,9,0.00,,,0.00,VWS V14.01,2013-01-22 17:39:00,
2013-01-22 10:40:00,54.4,-5.7,30.02,South,190,1.0,6.0,8,0.00,,,0.00,VWS V14.01,2013-01-22 17:40:00,
2013-01-22 10:41:00,54.5,-5.6,30.02,South,190,0.0,6.0,8,0.00,,,0.00,VWS V14.01,2013-01-22 17:41:00,
2013-01-22 10:42:00,54.7,-3.0,30.02,South,190,0.0,2.0,9,0.00,,,0.00,VWS V14.01,2013-01-22 17:42:00,
2013-01-22 10:43:00,54.9,-5.3,30.02,South,190,2.0,2.0,8,0.00,,,0.00,VWS V14.01,2013-01-22 17:43:00,
2013-01-22 10:44:00,55.0,-5.2,30.02,South,190,0.0,2.0,8,0.00,,,0.00,VWS V14.01,2013-01-22 17:44:00,
2013-01-22 10:45:00,55.2,-5.1,30.02,South,190,2.0,4.0,8,0.00,,,0.00,VWS V14.01,2013-01-22 17:45:00,
2013-01-22 10:46:00,55.3,-5.0,30.02,South,190,1.0,4.0,8,0.00,,,0.00,VWS V14.01,2013-01-22 17:46:00,
2013-01-22 10:47:00,55.5,-4.9,30.02,South,190,4.0,5.0,8,0.00,,,0.00,VWS V14.01,2013-01-22 17:47:00,
2013-01-22 10:48:00,55.7,-4.7,30.02,South,190,1.0,4.0,8,0.00,,,0.00,VWS V14.01,2013-01-22 17:48:00,
2013-01-22 10:49:00,55.8,-4.6,30.02,South,190,4.0,4.0,8,0.00,,,0.00,VWS V14.01,2013-01-22 17:49:00,
2013-01-22 10:50:00,55.9,-4.6,30.02,South,190,1.0,1.0,8,0.00,,,0.00,VWS V14.01,2013-01-22 17:50:00,
2013-01-22 10:51:00,55.9,-4.6,30.02,South,190,3.0,3.0,8,0.00,,,0.00,VWS V14.01,2013-01-22 17:51:00,
2013-01-22 10:52:00,56.0,-7.2,30.02,South,190,2.0,4.0,7,0.00,,,0.00,VWS V14.01,2013-01-22 17:52:00,
2013-01-22 10:53:00,56.0,-7.2,30.01,South,190,0.0,2.0,7,0.00,,,0.00,VWS V14.01,2013-01-22 17:53:00,
2013-01-22 10:54:00,56.2,-7.1,30.01,South,190,4.0,5.0,7,0.00,,,0.00,VWS V14.01,2013-01-22 17:54:00,
2013-01-22 10:55:00,56.4,-6.9,30.01,South,190,5.0,5.0,7,0.00,,,0.00,VWS V14.01,2013-01-22 17:55:00,
2013-01-22 10:56:00,56.4,-4.2,30.01,South,190,6.0,7.0,8,0.00,,,0.00,VWS V14.01,2013-01-22 17:56:00,
2013-01-22 10:57:00,56.5,-6.9,30.01,South,190,4.0,7.0,7,0.00,,,0.00,VWS V14.01,2013-01-22 17:57:00,
2013-01-22 10:58:00,56.6,-6.8,30.01,South,190,4.0,5.0,7,0.00,,,0.00,VWS V14.01,2013-01-22 17:58:00,
2013-01-22 10:59:00,56.7,-6.7,30.02,SSW,194,2.0,6.0,7,0.00,,,0.00,VWS V14.01,2013-01-22 17:59:00,
2013-01-22 11:00:00,57.0,-6.5,30.02,SSW,194,6.0,6.0,7,0.00,,,0.00,VWS V14.01,2013-01-22 18:00:00,
2013-01-22 11:01:00,57.1,-6.4,30.02,SSW,194,3.0,6.0,7,0.00,,,0.00,VWS V14.01,2013-01-22 18:01:00,
2013-01-22 11:02:00,57.3,-9.4,30.01,SSW,194,1.0,4.0,6,0.00,,,0.00,VWS V14.01,2013-01-22 18:02:00,
2013-01-22 11:03:00,57.4,-9.4,30.01,SSW,194,1.0,2.0,6,0.00,,,0.00,VWS V14.01,2013-01-22 18:03:00,
2013-01-22 11:04:00,57.6,-9.2,30.01,SSW,194,2.0,4.0,6,0.00,,,0.00,VWS V14.01,2013-01-22 18:04:00,
2013-01-22 11:05:00,58.0,-8.9,30.01,NW,306,5.0,7.0,6,0.00,,,0.00,VWS V14.01,2013-01-22 18:05:00,
2013-01-22 11:06:00,58.1,-12.5,30.01,WNW,293,6.0,7.0,5,0.00,,,0.00,VWS V14.01,2013-01-22 18:06:00,
2013-01-22 11:07:00,58.5,-12.2,30.01,NNW,336,5.0,9.0,5,0.00,,,0.00,VWS V14.01,2013-01-22 18:07:00,
2013-01-22 11:08:00,58.8,-12.0,30.01,NNW,327,6.0,7.0,5,0.00,,,0.00,VWS V14.01,2013-01-22 18:08:00,
2013-01-22 11:09:00,59.1,-11.8,30.01,NNE,15,6.0,6.0,5,0.00,,,0.00,VWS V14.01,2013-01-22 18:09:00,
2013-01-22 11:10:00,59.5,-11.5,30.01,NW,322,6.0,7.0,5,0.00,,,0.00,VWS V14.01,2013-01-22 18:10:00,
2013-01-22 11:11:00,59.7,-11.4,30.01,WNW,296,5.0,8.0,5,0.00,,,0.00,VWS V14.01,2013-01-22 18:11:00,
2013-01-22 11:12:00,59.9,-11.2,30.01,WNW,292,0.0,5.0,5,0.00,,,0.00,VWS V14.01,2013-01-22 18:12:00,
2013-01-22 11:13:00,60.1,-11.1,30.01,NNW,341,5.0,5.0,5,0.00,,,0.00,VWS V14.01,2013-01-22 18:13:00,
2013-01-22 11:14:00,60.2,-15.4,30.01,West,262,7.0,8.0,4,0.00,,,0.00,VWS V14.01,2013-01-22 18:14:00,
2013-01-22 11:15:00,60.4,-15.3,30.01,West,259,1.0,4.0,4,0.00,,,0.00,VWS V14.01,2013-01-22 18:15:00,
2013-01-22 11:16:00,60.5,-15.2,30.01,West,259,1.0,4.0,4,0.00,,,0.00,VWS V14.01,2013-01-22 18:16:00,
2013-01-22 11:17:00,60.7,-15.1,30.01,NW,323,7.0,7.0,4,0.00,,,0.00,VWS V14.01,2013-01-22 18:17:00,
2013-01-22 11:18:00,60.8,-15.0,30.00,NNW,331,2.0,7.0,4,0.00,,,0.00,VWS V14.01,2013-01-22 18:18:00,
2013-01-22 11:19:00,60.9,-15.0,30.01,West,266,6.0,6.0,4,0.00,,,0.00,VWS V14.01,2013-01-22 18:19:00,
2013-01-22 11:20:00,61.0,-14.9,30.00,North,355,4.0,8.0,4,0.00,,,0.00,VWS V14.01,2013-01-22 18:20:00,
2013-01-22 11:21:00,61.1,-10.4,30.00,NNW,329,5.0,8.0,5,0.00,,,0.00,VWS V14.01,2013-01-22 18:21:00,
2013-01-22 11:22:00,61.2,-14.8,30.00,WNW,301,9.0,9.0,4,0.00,,,0.00,VWS V14.01,2013-01-22 18:22:00,
2013-01-22 11:23:00,61.2,-14.8,30.00,WNW,296,8.0,12.0,4,0.00,,,0.00,VWS V14.01,2013-01-22 18:23:00,
2013-01-22 11:24:00,61.2,-14.8,30.00,NW,318,13.0,16.0,4,0.00,,,0.00,VWS V14.01,2013-01-22 18:24:00,
2013-01-22 11:25:00,61.1,-14.8,30.00,NW,318,7.0,15.0,4,0.00,,,0.00,VWS V14.01,2013-01-22 18:25:00,
2013-01-22 11:26:00,61.1,-14.8,30.00,West,269,6.0,8.0,4,0.00,,,0.00,VWS V14.01,2013-01-22 18:26:00,
2013-01-22 11:27:00,61.2,-14.8,30.00,WNW,284,8.0,12.0,4,0.00,,,0.00,VWS V14.01,2013-01-22 18:27:00,
2013-01-22 11:28:00,61.2,-14.8,30.00,WSW,255,9.0,12.0,4,0.00,,,0.00,VWS V14.01,2013-01-22 18:28:00,
2013-01-22 11:29:00,61.3,-14.7,30.00,NNW,328,8.0,15.0,4,0.00,,,0.00,VWS V14.01,2013-01-22 18:29:00,
2013-01-22 11:30:00,61.4,-14.6,30.00,WNW,298,3.0,10.0,4,0.00,,,0.00,VWS V14.01,2013-01-22 18:30:00,
2013-01-22 11:31:00,61.4,-14.6,30.00,NW,320,5.0,6.0,4,0.00,,,0.00,VWS V14.01,2013-01-22 18:31:00,
2013-01-22 11:32:00,61.5,-14.5,30.00,WNW,294,8.0,11.0,4,0.00,,,0.00,VWS V14.01,2013-01-22 18:32:00,
2013-01-22 11:33:00,61.5,-14.5,30.00,WNW,303,6.0,9.0,4,0.00,,,0.00,VWS V14.01,2013-01-22 18:33:00,
2013-01-22 11:34:00,61.5,-14.5,30.00,NW,311,13.0,13.0,4,0.00,,,0.00,VWS V14.01,2013-01-22 18:34:00,
2013-01-22 11:35:00,61.4,-14.6,30.00,NW,306,14.0,14.0,4,0.00,,,0.00,VWS V14.01,2013-01-22 18:35:00,
2013-01-22 11:36:00,61.3,-14.7,30.00,West,281,6.0,14.0,4,0.00,,,0.00,VWS V14.01,2013-01-22 18:36:00,
2013-01-22 11:37:00,61.3,-14.7,30.00,WNW,293,6.0,10.0,4,0.00,,,0.00,VWS V14.01,2013-01-22 18:37:00,
2013-01-22 11:38:00,61.3,-14.7,30.00,WSW,257,7.0,11.0,4,0.00,,,0.00,VWS V14.01,2013-01-22 18:38:00,
2013-01-22 11:39:00,61.3,-14.7,30.00,NW,313,6.0,13.0,4,0.00,,,0.00,VWS V14.01,2013-01-22 18:39:00,
2013-01-22 11:40:00,61.4,-14.6,30.00,West,260,3.0,8.0,4,0.00,,,0.00,VWS V14.01,2013-01-22 18:40:00,
2013-01-22 11:41:00,61.4,-14.6,30.00,West,281,5.0,12.0,4,0.00,,,0.00,VWS V14.01,2013-01-22 18:41:00,
2013-01-22 11:42:00,61.4,-14.6,30.01,NW,306,8.0,19.0,4,0.00,,,0.00,VWS V14.01,2013-01-22 18:42:00,
2013-01-22 11:43:00,61.3,-14.7,30.00,WNW,289,8.0,14.0,4,0.00,,,0.00,VWS V14.01,2013-01-22 18:43:00,
2013-01-22 11:44:00,61.3,-14.7,30.00,WNW,290,8.0,10.0,4,0.00,,,0.00,VWS V14.01,2013-01-22 18:44:00,
2013-01-22 11:45:00,61.3,-14.7,30.00,West,276,7.0,14.0,4,0.00,,,0.00,VWS V14.01,2013-01-22 18:45:00,
2013-01-22 11:46:00,61.3,-14.7,30.00,WNW,286,5.0,11.0,4,0.00,,,0.00,VWS V14.01,2013-01-22 18:46:00,
2013-01-22 11:47:00,61.3,-14.7,30.00,West,276,8.0,14.0,4,0.00,,,0.00,VWS V14.01,2013-01-22 18:47:00,
2013-01-22 11:48:00,61.3,-14.7,30.00,WNW,290,10.0,18.0,4,0.00,,,0.00,VWS V14.01,2013-01-22 18:48:00,
2013-01-22 11:49:00,61.2,-14.8,30.00,NW,311,7.0,15.0,4,0.00,,,0.00,VWS V14.01,2013-01-22 18:49:00,
2013-01-22 11:50:00,61.2,-14.8,30.00,SW,223,5.0,9.0,4,0.00,,,0.00,VWS V14.01,2013-01-22 18:50:00,
2013-01-22 11:51:00,61.3,-14.7,30.00,WSW,245,2.0,9.0,4,0.00,,,0.00,VWS V14.01,2013-01-22 18:51:00,
2013-01-22 11:52:00,61.3,-14.7,30.00,West,272,10.0,11.0,4,0.00,,,0.00,VWS V14.01,2013-01-22 18:52:00,
2013-01-22 11:53:00,61.4,-14.6,30.00,WSW,252,9.0,12.0,4,0.00,,,0.00,VWS V14.01,2013-01-22 18:53:00,
2013-01-22 11:54:00,61.5,-14.5,30.00,West,271,6.0,9.0,4,0.00,,,0.00,VWS V14.01,2013-01-22 18:54:00,
2013-01-22 11:55:00,61.6,-14.5,30.00,WNW,284,6.0,8.0,4,0.00,,,0.00,VWS V14.01,2013-01-22 18:55:00,
2013-01-22 11:56:00,61.7,-14.4,30.00,WNW,293,8.0,11.0,4,0.00,,,0.00,VWS V14.01,2013-01-22 18:56:00,
2013-01-22 11:57:00,61.7,-14.4,30.00,WNW,292,7.0,14.0,4,0.00,,,0.00,VWS V14.01,2013-01-22 18:57:00,
2013-01-22 11:58:00,61.8,-14.3,30.00,NW,322,8.0,14.0,4,0.00,,,0.00,VWS V14.01,2013-01-22 18:58:00,
2013-01-22 11:59:00,61.6,-14.5,30.00,West,268,9.0,13.0,4,0.00,,,0.00,VWS V14.01,2013-01-22 18:59:00,
2013-01-22 12:00:00,61.5,-14.5,30.00,WSW,254,4.0,12.0,4,0.00,,,0.00,VWS V14.01,2013-01-22 19:00:00,
2013-01-22 12:01:00,61.5,-14.5,30.00,NW,306,7.0,12.0,4,0.00,,,0.00,VWS V14.01,2013-01-22 19:01:00,
2013-01-22 12:02:00,61.4,-14.6,30.00,WNW,303,7.0,8.0,4,0.00,,,0.00,VWS V14.01,2013-01-22 19:02:00,
2013-01-22 12:03:00,61.4,-14.6,30.00,WSW,246,9.0,14.0,4,0.00,,,0.00,VWS V14.01,2013-01-22 19:03:00,
2013-01-22 12:04:00,61.4,-14.6,30.00,WNW,289,12.0,15.0,4,0.00,,,0.00,VWS V14.01,2013-01-22 19:04:00,
2013-01-22 12:05:00,61.3,-14.7,30.00,West,276,9.0,14.0,4,0.00,,,0.00,VWS V14.01,2013-01-22 19:05:00,
2013-01-22 12:06:00,61.3,-14.7,30.00,West,271,8.0,14.0,4,0.00,,,0.00,VWS V14.01,2013-01-22 19:06:00,
2013-01-22 12:07:00,61.2,-14.8,30.00,WNW,303,5.0,12.0,4,0.00,,,0.00,VWS V14.01,2013-01-22 19:07:00,
2013-01-22 12:08:00,61.3,-14.7,30.00,West,276,6.0,9.0,4,0.00,,,0.00,VWS V14.01,2013-01-22 19:08:00,
2013-01-22 12:09:00,61.4,-14.6,29.99,WSW,238,10.0,12.0,4,0.00,,,0.00,VWS V14.01,2013-01-22 19:09:00,
2013-01-22 12:10:00,61.4,-14.6,29.99,WNW,302,8.0,12.0,4,0.00,,,0.00,VWS V14.01,2013-01-22 19:10:00,
2013-01-22 12:11:00,61.5,-14.5,29.99,WSW,257,10.0,12.0,4,0.00,,,0.00,VWS V14.01,2013-01-22 19:11:00,
2013-01-22 12:12:00,61.5,-14.5,29.99,WNW,301,9.0,11.0,4,0.00,,,0.00,VWS V14.01,2013-01-22 19:12:00,
2013-01-22 12:13:00,61.6,-14.5,29.99,West,263,11.0,18.0,4,0.00,,,0.00,VWS V14.01,2013-01-22 19:13:00,
2013-01-22 12:14:00,61.6,-14.5,29.99,West,273,9.0,14.0,4,0.00,,,0.00,VWS V14.01,2013-01-22 19:14:00,
2013-01-22 12:15:00,61.6,-14.5,29.99,West,267,16.0,16.0,4,0.00,,,0.00,VWS V14.01,2013-01-22 19:15:00,
2013-01-22 12:16:00,61.5,-14.5,29.99,WNW,303,12.0,20.0,4,0.00,,,0.00,VWS V14.01,2013-01-22 19:16:00,
2013-01-22 12:17:00,61.6,-14.5,29.99,West,281,8.0,12.0,4,0.00,,,0.00,VWS V14.01,2013-01-22 19:17:00,
2013-01-22 12:18:00,61.6,-14.5,29.99,WSW,255,14.0,14.0,4,0.00,,,0.00,VWS V14.01,2013-01-22 19:18:00,
2013-01-22 12:19:00,61.7,-14.4,29.99,NW,313,11.0,14.0,4,0.00,,,0.00,VWS V14.01,2013-01-22 19:19:00,
2013-01-22 12:20:00,61.8,-14.3,29.98,WNW,298,12.0,14.0,4,0.00,,,0.00,VWS V14.01,2013-01-22 19:20:00,
2013-01-22 12:21:00,61.8,-14.3,29.98,WNW,293,9.0,14.0,4,0.00,,,0.00,VWS V14.01,2013-01-22 19:21:00,
2013-01-22 12:22:00,61.8,-14.3,29.99,West,270,9.0,19.0,4,0.00,,,0.00,VWS V14.01,2013-01-22 19:22:00,
2013-01-22 12:23:00,61.8,-14.3,29.98,West,272,4.0,12.0,4,0.00,,,0.00,VWS V14.01,2013-01-22 19:23:00,
2013-01-22 12:24:00,61.8,-14.3,29.98,West,269,8.0,9.0,4,0.00,,,0.00,VWS V14.01,2013-01-22 19:24:00,
2013-01-22 12:25:00,61.9,-14.3,29.98,NW,309,6.0,15.0,4,0.00,,,0.00,VWS V14.01,2013-01-22 19:25:00,
2013-01-22 12:26:00,61.9,-14.3,29.98,West,272,10.0,15.0,4,0.00,,,0.00,VWS V14.01,2013-01-22 19:26:00,
2013-01-22 12:27:00,61.8,-14.3,29.98,WNW,282,2.0,12.0,4,0.00,,,0.00,VWS V14.01,2013-01-22 19:27:00,
2013-01-22 12:28:00,61.9,-14.3,29.98,NW,317,7.0,12.0,4,0.00,,,0.00,VWS V14.01,2013-01-22 19:28:00,
2013-01-22 12:29:00,62.0,-14.2,29.98,West,271,11.0,11.0,4,0.00,,,0.00,VWS V14.01,2013-01-22 19:29:00,
2013-01-22 12:30:00,62.0,-14.2,29.98,West,263,11.0,15.0,4,0.00,,,0.00,VWS V14.01,2013-01-22 19:30:00,
2013-01-22 12:31:00,62.0,-14.2,29.98,WNW,292,6.0,15.0,4,0.00,,,0.00,VWS V14.01,2013-01-22 19:31:00,
2013-01-22 12:32:00,62.0,-14.2,29.98,West,259,9.0,10.0,4,0.00,,,0.00,VWS V14.01,2013-01-22 19:32:00,
2013-01-22 12:33:00,62.0,-14.2,29.98,West,275,8.0,13.0,4,0.00,,,0.00,VWS V14.01,2013-01-22 19:33:00,
2013-01-22 12:34:00,62.0,-14.2,29.98,WNW,286,6.0,13.0,4,0.00,,,0.00,VWS V14.01,2013-01-22 19:34:00,
2013-01-22 12:35:00,62.1,-14.1,29.98,WNW,284,10.0,18.0,4,0.00,,,0.00,VWS V14.01,2013-01-22 19:35:00,
2013-01-22 12:36:00,62.1,-14.1,29.98,WNW,288,7.0,18.0,4,0.00,,,0.00,VWS V14.01,2013-01-22 19:36:00,
2013-01-22 12:37:00,62.1,-14.1,29.98,WNW,287,6.0,12.0,4,0.00,,,0.00,VWS V14.01,2013-01-22 19:37:00,
2013-01-22 12:38:00,62.1,-14.1,29.98,WNW,297,5.0,11.0,4,0.00,,,0.00,VWS V14.01,2013-01-22 19:38:00,
2013-01-22 12:39:00,62.1,-14.1,29.98,West,269,1.0,9.0,4,0.00,,,0.00,VWS V14.01,2013-01-22 19:39:00,
2013-01-22 12:40:00,62.2,-14.1,29.98,SW,233,1.0,4.0,4,0.00,,,0.00,VWS V14.01,2013-01-22 19:40:00,
2013-01-22 12:41:00,62.3,-14.0,29.98,West,275,7.0,8.0,4,0.00,,,0.00,VWS V14.01,2013-01-22 19:41:00,
2013-01-22 12:42:00,62.5,-13.8,29.98,WNW,283,8.0,16.0,4,0.00,,,0.00,VWS V14.01,2013-01-22 19:42:00,
2013-01-22 12:43:00,62.5,-13.8,29.98,West,261,10.0,12.0,4,0.00,,,0.00,VWS V14.01,2013-01-22 19:43:00,
2013-01-22 12:44:00,62.4,-13.9,29.98,WSW,242,7.0,11.0,4,0.00,,,0.00,VWS V14.01,2013-01-22 19:44:00,
2013-01-22 12:45:00,62.4,-13.9,29.98,WSW,251,7.0,18.0,4,0.00,,,0.00,VWS V14.01,2013-01-22 19:45:00,
2013-01-22 12:46:00,62.4,-13.9,29.98,WNW,284,4.0,18.0,4,0.00,,,0.00,VWS V14.01,2013-01-22 19:46:00,
2013-01-22 12:47:00,62.4,-13.9,29.98,West,281,5.0,9.0,4,0.00,,,0.00,VWS V14.01,2013-01-22 19:47:00,
2013-01-22 12:48:00,62.5,-13.8,29.98,SSW,194,5.0,11.0,4,0.00,,,0.00,VWS V14.01,2013-01-22 19:48:00,
2013-01-22 12:49:00,62.5,-13.8,29.98,WSW,243,8.0,15.0,4,0.00,,,0.00,VWS V14.01,2013-01-22 19:49:00,
2013-01-22 12:50:00,62.5,-13.8,29.98,WSW,246,2.0,16.0,4,0.00,,,0.00,VWS V14.01,2013-01-22 19:50:00,
2013-01-22 12:51:00,62.5,-13.8,29.98,WSW,254,6.0,16.0,4,0.00,,,0.00,VWS V14.01,2013-01-22 19:51:00,
2013-01-22 12:52:00,62.5,-13.8,29.99,West,277,5.0,8.0,4,0.00,,,0.00,VWS V14.01,2013-01-22 19:52:00,
2013-01-22 12:53:00,62.6,-13.8,29.98,West,272,4.0,19.0,4,0.00,,,0.00,VWS V14.01,2013-01-22 19:53:00,
2013-01-22 12:54:00,62.6,-13.8,29.98,West,271,5.0,7.0,4,0.00,,,0.00,VWS V14.01,2013-01-22 19:54:00,
2013-01-22 12:55:00,62.7,-13.7,29.98,West,259,7.0,14.0,4,0.00,,,0.00,VWS V14.01,2013-01-22 19:55:00,
2013-01-22 12:56:00,62.7,-13.7,29.98,West,271,7.0,14.0,4,0.00,,,0.00,VWS V14.01,2013-01-22 19:56:00,
2013-01-22 12:57:00,62.7,-13.7,29.98,SW,225,9.0,10.0,4,0.00,,,0.00,VWS V14.01,2013-01-22 19:57:00,
2013-01-22 12:58:00,62.7,-13.7,29.98,WNW,284,9.0,18.0,4,0.00,,,0.00,VWS V14.01,2013-01-22 19:58:00,
2013-01-22 12:59:00,62.6,-13.8,29.98,WSW,257,6.0,12.0,4,0.00,,,0.00,VWS V14.01,2013-01-22 19:59:00,
2013-01-22 13:00:00,62.5,-13.8,29.98,WNW,292,5.0,11.0,4,0.00,,,0.00,VWS V14.01,2013-01-22 20:00:00,
2013-01-22 13:01:00,62.5,-13.8,29.98,SW,235,6.0,11.0,4,0.00,,,0.00,VWS V14.01,2013-01-22 20:01:00,
2013-01-22 13:02:00,62.5,-13.8,29.98,WNW,299,8.0,12.0,4,0.00,,,0.00,VWS V14.01,2013-01-22 20:02:00,
2013-01-22 13:03:00,62.4,-13.9,29.99,West,265,5.0,10.0,4,0.00,,,0.00,VWS V14.01,2013-01-22 20:03:00,
2013-01-22 13:04:00,62.3,-14.0,29.98,WSW,250,9.0,14.0,4,0.00,,,0.00,VWS V14.01,2013-01-22 20:04:00,
2013-01-22 13:05:00,62.2,-19.7,29.98,West,273,7.0,10.0,3,0.00,,,0.00,VWS V14.01,2013-01-22 20:05:00,
2013-01-22 13:06:00,62.1,-19.7,29.98,West,267,8.0,15.0,3,0.00,,,0.00,VWS V14.01,2013-01-22 20:06:00,
2013-01-22 13:07:00,62.1,-14.1,29.98,NW,309,8.0,12.0,4,0.00,,,0.00,VWS V14.01,2013-01-22 20:07:00,
2013-01-22 13:08:00,62.1,-14.1,29.98,NE,53,4.0,14.0,4,0.00,,,0.00,VWS V14.01,2013-01-22 20:08:00,
2013-01-22 13:09:00,62.1,-14.1,29.98,SW,232,6.0,10.0,4,0.00,,,0.00,VWS V14.01,2013-01-22 20:09:00,
2013-01-22 13:10:00,62.2,-14.1,29.98,WNW,289,7.0,13.0,4,0.00,,,0.00,VWS V14.01,2013-01-22 20:10:00,
2013-01-22 13:11:00,62.3,-14.0,29.98,WSW,255,7.0,13.0,4,0.00,,,0.00,VWS V14.01,2013-01-22 20:11:00,
2013-01-22 13:12:00,62.3,-14.0,29.98,WSW,238,11.0,13.0,4,0.00,,,0.00,VWS V14.01,2013-01-22 20:12:00,
2013-01-22 13:13:00,62.4,-19.5,29.98,West,261,6.0,15.0,3,0.00,,,0.00,VWS V14.01,2013-01-22 20:13:00,
2013-01-22 13:14:00,62.3,-14.0,29.98,WNW,292,8.0,11.0,4,0.00,,,0.00,VWS V14.01,2013-01-22 20:14:00,
2013-01-22 13:15:00,62.3,-19.6,29.98,West,279,15.0,16.0,3,0.00,,,0.00,VWS V14.01,2013-01-22 20:15:00,
2013-01-22 13:16:00,62.3,-19.6,29.98,West,269,8.0,16.0,3,0.00,,,0.00,VWS V14.01,2013-01-22 20:16:00,
2013-01-22 13:17:00,62.3,-14.0,29.98,West,265,9.0,13.0,4,0.00,,,0.00,VWS V14.01,2013-01-22 20:17:00,
2013-01-22 13:18:00,62.2,-14.1,29.98,WNW,289,9.0,15.0,4,0.00,,,0.00,VWS V14.01,2013-01-22 20:18:00,
2013-01-22 13:19:00,62.2,-14.1,29.98,West,276,12.0,16.0,4,0.00,,,0.00,VWS V14.01,2013-01-22 20:19:00,
2013-01-22 13:20:00,62.2,-14.1,29.98,WNW,286,6.0,11.0,4,0.00,,,0.00,VWS V14.01,2013-01-22 20:20:00,
2013-01-22 13:21:00,62.2,-14.1,29.98,WNW,287,4.0,11.0,4,0.00,,,0.00,VWS V14.01,2013-01-22 20:21:00,
2013-01-22 13:22:00,62.3,-14.0,29.98,West,277,5.0,9.0,4,0.00,,,0.00,VWS V14.01,2013-01-22 20:22:00,
2013-01-22 13:23:00,62.4,-13.9,29.98,West,271,7.0,10.0,4,0.00,,,0.00,VWS V14.01,2013-01-22 20:23:00,
2013-01-22 13:24:00,62.5,-13.8,29.97,WNW,290,7.0,11.0,4,0.00,,,0.00,VWS V14.01,2013-01-22 20:24:00,
2013-01-22 13:25:00,62.5,-13.8,29.98,West,278,7.0,8.0,4,0.00,,,0.00,VWS V14.01,2013-01-22 20:25:00,
2013-01-22 13:26:00,62.5,-13.8,29.98,WNW,284,10.0,14.0,4,0.00,,,0.00,VWS V14.01,2013-01-22 20:26:00,
2013-01-22 13:27:00,62.4,-19.5,29.98,West,280,11.0,15.0,3,0.00,,,0.00,VWS V14.01,2013-01-22 20:27:00,
2013-01-22 13:28:00,62.2,-19.7,29.98,WNW,287,13.0,13.0,3,0.00,,,0.00,VWS V14.01,2013-01-22 20:28:00,
2013-01-22 13:29:00,62.1,-14.1,29.98,WNW,296,8.0,13.0,4,0.00,,,0.00,VWS V14.01,2013-01-22 20:29:00,
2013-01-22 13:30:00,62.0,-14.2,29.97,WNW,295,8.0,8.0,4,0.00,,,0.00,VWS V14.01,2013-01-22 20:30:00,
2013-01-22 13:31:00,62.1,-14.1,29.97,WNW,288,11.0,23.0,4,0.00,,,0.00,VWS V14.01,2013-01-22 20:31:00,
2013-01-22 13:32:00,62.0,-19.8,29.98,West,281,7.0,18.0,3,0.00,,,0.00,VWS V14.01,2013-01-22 20:32:00,
2013-01-22 13:33:00,62.0,-14.2,29.97,West,278,12.0,12.0,4,0.00,,,0.00,VWS V14.01,2013-01-22 20:33:00,
2013-01-22 13:34:00,62.0,-14.2,29.97,West,281,7.0,12.0,4,0.00,,,0.00,VWS V14.01,2013-01-22 20:34:00,
2013-01-22 13:35:00,62.1,-14.1,29.97,WNW,291,7.0,8.0,4,0.00,,,0.00,VWS V14.01,2013-01-22 20:35:00,
2013-01-22 13:36:00,62.1,-14.1,29.97,WNW,284,6.0,9.0,4,0.00,,,0.00,VWS V14.01,2013-01-22 20:36:00,
2013-01-22 13:37:00,62.1,-14.1,29.97,WNW,294,7.0,12.0,4,0.00,,,0.00,VWS V14.01,2013-01-22 20:37:00,
2013-01-22 13:38:00,62.2,-14.1,29.97,WNW,289,6.0,11.0,4,0.00,,,0.00,VWS V14.01,2013-01-22 20:38:00,
2013-01-22 13:39:00,62.3,-14.0,29.97,West,267,4.0,7.0,4,0.00,,,0.00,VWS V14.01,2013-01-22 20:39:00,
2013-01-22 13:40:00,62.4,-13.9,29.97,WNW,303,13.0,21.0,4,0.00,,,0.00,VWS V14.01,2013-01-22 20:40:00,
2013-01-22 13:41:00,62.3,-14.0,29.97,West,280,11.0,21.0,4,0.00,,,0.00,VWS V14.01,2013-01-22 20:41:00,
2013-01-22 13:42:00,62.3,-19.6,29.97,WNW,302,7.0,11.0,3,0.00,,,0.00,VWS V14.01,2013-01-22 20:42:00,
2013-01-22 13:43:00,62.2,-19.7,29.97,WNW,289,7.0,15.0,3,0.00,,,0.00,VWS V14.01,2013-01-22 20:43:00,
2013-01-22 13:44:00,62.1,-19.7,29.97,West,260,8.0,16.0,3,0.00,,,0.00,VWS V14.01,2013-01-22 20:44:00,
2013-01-22 13:45:00,62.0,-19.8,29.97,WNW,282,8.0,12.0,3,0.00,,,0.00,VWS V14.01,2013-01-22 20:45:00,
2013-01-22 13:46:00,61.9,-19.9,29.96,WNW,284,5.0,12.0,3,0.00,,,0.00,VWS V14.01,2013-01-22 20:46:00,
2013-01-22 13:47:00,61.9,-14.3,29.96,WSW,248,7.0,8.0,4,0.00,,,0.00,VWS V14.01,2013-01-22 20:47:00,
2013-01-22 13:48:00,62.0,-14.2,29.97,NW,322,7.0,8.0,4,0.00,,,0.00,VWS V14.01,2013-01-22 20:48:00,
2013-01-22 13:49:00,62.2,-14.1,29.97,West,272,12.0,12.0,4,0.00,,,0.00,VWS V14.01,2013-01-22 20:49:00,
2013-01-22 13:50:00,62.2,-19.7,29.96,WNW,290,15.0,15.0,3,0.00,,,0.00,VWS V14.01,2013-01-22 20:50:00,
2013-01-22 13:51:00,62.2,-19.7,29.96,West,263,13.0,15.0,3,0.00,,,0.00,VWS V14.01,2013-01-22 20:51:00,
2013-01-22 13:52:00,62.1,-19.7,29.96,WNW,292,9.0,14.0,3,0.00,,,0.00,VWS V14.01,2013-01-22 20:52:00,
2013-01-22 13:53:00,62.1,-19.7,29.96,WNW,288,13.0,18.0,3,0.00,,,0.00,VWS V14.01,2013-01-22 20:53:00,
2013-01-22 13:54:00,62.0,-19.8,29.96,West,259,12.0,18.0,3,0.00,,,0.00,VWS V14.01,2013-01-22 20:54:00,
2013-01-22 13:55:00,61.9,-19.9,29.95,West,267,8.0,11.0,3,0.00,,,0.00,VWS V14.01,2013-01-22 20:55:00,
2013-01-22 13:56:00,61.8,-19.9,29.95,SW,234,10.0,14.0,3,0.00,,,0.00,VWS V14.01,2013-01-22 20:56:00,
2013-01-22 13:57:00,61.8,-14.3,29.95,West,281,8.0,13.0,4,0.00,,,0.00,VWS V14.01,2013-01-22 20:57:00,
2013-01-22 13:58:00,62.0,-14.2,29.95,WNW,290,5.0,8.0,4,0.00,,,0.00,VWS V14.01,2013-01-22 20:58:00,
2013-01-22 13:59:00,62.1,-14.1,29.95,SW,223,3.0,15.0,4,0.00,,,0.00,VWS V14.01,2013-01-22 20:59:00,
2013-01-22 14:00:00,62.4,-13.9,29.95,WSW,251,6.0,9.0,4,0.00,,,0.00,VWS V14.01,2013-01-22 21:00:00,
2013-01-22 14:01:00,62.5,-13.8,29.95,WSW,238,6.0,9.0,4,0.00,,,0.00,VWS V14.01,2013-01-22 21:01:00,
2013-01-22 14:02:00,62.5,-19.5,29.95,WNW,288,10.0,15.0,3,0.00,,,0.00,VWS V14.01,2013-01-22 21:02:00,
2013-01-22 14:03:00,62.5,-19.5,29.95,West,272,11.0,12.0,3,0.00,,,0.00,VWS V14.01,2013-01-22 21:03:00,
2013-01-22 14:04:00,62.6,-19.4,29.95,WNW,286,8.0,15.0,3,0.00,,,0.00,VWS V14.01,2013-01-22 21:04:00,
2013-01-22 14:05:00,62.4,-19.5,29.95,West,265,7.0,8.0,3,0.00,,,0.00,VWS V14.01,2013-01-22 21:05:00,
2013-01-22 14:06:00,62.4,-19.5,29.95,West,261,11.0,11.0,3,0.00,,,0.00,VWS V14.01,2013-01-22 21:06:00,
2013-01-22 14:07:00,62.3,-19.6,29.95,WSW,251,6.0,15.0,3,0.00,,,0.00,VWS V14.01,2013-01-22 21:07:00,
2013-01-22 14:08:00,62.3,-14.0,29.95,West,281,13.0,14.0,4,0.00,,,0.00,VWS V14.01,2013-01-22 21:08:00,
2013-01-22 14:09:00,62.3,-19.6,29.95,WNW,282,13.0,15.0,3,0.00,,,0.00,VWS V14.01,2013-01-22 21:09:00,
2013-01-22 14:10:00,62.2,-19.7,29.95,West,278,7.0,12.0,3,0.00,,,0.00,VWS V14.01,2013-01-22 21:10:00,
2013-01-22 14:11:00,62.3,-19.6,29.95,WNW,287,5.0,12.0,3,0.00,,,0.00,VWS V14.01,2013-01-22 21:11:00,
2013-01-22 14:12:00,62.3,-14.0,29.94,West,263,2.0,8.0,4,0.00,,,0.00,VWS V14.01,2013-01-22 21:12:00,
2013-01-22 14:13:00,62.4,-13.9,29.94,WNW,282,6.0,6.0,4,0.00,,,0.00,VWS V14.01,2013-01-22 21:13:00,
2013-01-22 14:14:00,62.5,-13.8,29.94,North,349,5.0,8.0,4,0.00,,,0.00,VWS V14.01,2013-01-22 21:14:00,
2013-01-22 14:15:00,62.7,-13.7,29.95,WNW,286,10.0,10.0,4,0.00,,,0.00,VWS V14.01,2013-01-22 21:15:00,
2013-01-22 14:16:00,62.7,-13.7,29.95,West,267,6.0,15.0,4,0.00,,,0.00,VWS V14.01,2013-01-22 21:16:00,
2013-01-22 14:17:00,62.6,-13.8,29.95,NW,314,8.0,10.0,4,0.00,,,0.00,VWS V14.01,2013-01-22 21:17:00,
2013-01-22 14:18:00,62.7,-13.7,29.95,NW,307,7.0,13.0,4,0.00,,,0.00,VWS V14.01,2013-01-22 21:18:00,
2013-01-22 14:19:00,62.7,-13.7,29.94,WSW,258,10.0,12.0,4,0.00,,,0.00,VWS V14.01,2013-01-22 21:19:00,
2013-01-22 14:20:00,62.7,-13.7,29.95,West,264,16.0,16.0,4,0.00,,,0.00,VWS V14.01,2013-01-22 21:20:00,
2013-01-22 14:21:00,62.6,-13.8,29.95,West,261,6.0,16.0,4,0.00,,,0.00,VWS V14.01,2013-01-22 21:21:00,
2013-01-22 14:22:00,62.7,-13.7,29.94,WNW,284,4.0,12.0,4,0.00,,,0.00,VWS V14.01,2013-01-22 21:22:00,
2013-01-22 14:23:00,62.6,-13.8,29.94,West,265,6.0,13.0,4,0.00,,,0.00,VWS V14.01,2013-01-22 21:23:00,
2013-01-22 14:24:00,62.6,-13.8,29.95,WNW,290,11.0,23.0,4,0.00,,,0.00,VWS V14.01,2013-01-22 21:24:00,
2013-01-22 14:25:00,62.5,-19.5,29.94,WNW,286,15.0,15.0,3,0.00,,,0.00,VWS V14.01,2013-01-22 21:25:00,
2013-01-22 14:26:00,62.4,-19.5,29.94,West,271,7.0,15.0,3,0.00,,,0.00,VWS V14.01,2013-01-22 21:26:00,
2013-01-22 14:27:00,62.3,-19.6,29.94,West,278,12.0,19.0,3,0.00,,,0.00,VWS V14.01,2013-01-22 21:27:00,
2013-01-22 14:28:00,62.2,-19.7,29.94,NW,308,8.0,12.0,3,0.00,,,0.00,VWS V14.01,2013-01-22 21:28:00,
2013-01-22 14:29:00,62.1,-19.7,29.94,WNW,286,11.0,11.0,3,0.00,,,0.00,VWS V14.01,2013-01-22 21:29:00,
2013-01-22 14:30:00,62.2,-14.1,29.95,West,266,8.0,9.0,4,0.00,,,0.00,VWS V14.01,2013-01-22 21:30:00,
2013-01-22 14:31:00,62.2,-14.1,29.95,WSW,248,6.0,9.0,4,0.00,,,0.00,VWS V14.01,2013-01-22 21:31:00,
2013-01-22 14:32:00,62.2,-19.7,29.95,SW,224,8.0,14.0,3,0.00,,,0.00,VWS V14.01,2013-01-22 21:32:00,
2013-01-22 14:33:00,62.3,-19.6,29.95,West,261,13.0,16.0,3,0.00,,,0.00,VWS V14.01,2013-01-22 21:33:00,
2013-01-22 14:34:00,62.2,-14.1,29.95,West,263,6.0,16.0,4,0.00,,,0.00,VWS V14.01,2013-01-22 21:34:00,
2013-01-22 14:35:00,62.2,-14.1,29.95,WNW,291,9.0,14.0,4,0.00,,,0.00,VWS V14.01,2013-01-22 21:35:00,
2013-01-22 14:36:00,62.2,-14.1,29.95,West,279,6.0,10.0,4,0.00,,,0.00,VWS V14.01,2013-01-22 21:36:00,
2013-01-22 14:37:00,62.2,-14.1,29.94,West,278,5.0,20.0,4,0.00,,,0.00,VWS V14.01,2013-01-22 21:37:00,
2013-01-22 14:38:00,62.1,-14.1,29.95,WNW,294,8.0,11.0,4,0.00,,,0.00,VWS V14.01,2013-01-22 21:38:00,
2013-01-22 14:39:00,62.1,-14.1,29.94,WNW,286,16.0,16.0,4,0.00,,,0.00,VWS V14.01,2013-01-22 21:39:00,
2013-01-22 14:40:00,62.0,-19.8,29.94,WSW,258,14.0,25.0,3,0.00,,,0.00,VWS V14.01,2013-01-22 21:40:00,
2013-01-22 14:41:00,61.9,-19.9,29.94,NW,307,7.0,15.0,3,0.00,,,0.00,VWS V14.01,2013-01-22 21:41:00,
2013-01-22 14:42:00,61.8,-19.9,29.94,WSW,249,6.0,18.0,3,0.00,,,0.00,VWS V14.01,2013-01-22 21:42:00,
2013-01-22 14:43:00,61.9,-19.9,29.95,West,278,14.0,20.0,3,0.00,,,0.00,VWS V14.01,2013-01-22 21:43:00,
2013-01-22 14:44:00,61.8,-19.9,29.95,West,272,11.0,18.0,3,0.00,,,0.00,VWS V14.01,2013-01-22 21:44:00,
2013-01-22 14:45:00,61.8,-14.3,29.94,WSW,250,19.0,19.0,4,0.00,,,0.00,VWS V14.01,2013-01-22 21:45:00,
2013-01-22 14:46:00,61.8,-19.9,29.94,West,280,11.0,19.0,3,0.00,,,0.00,VWS V14.01,2013-01-22 21:46:00,
2013-01-22 14:47:00,61.8,-19.9,29.95,WNW,292,11.0,14.0,3,0.00,,,0.00,VWS V14.01,2013-01-22 21:47:00,
2013-01-22 14:48:00,61.7,-20.0,29.95,WNW,297,6.0,23.0,3,0.00,,,0.00,VWS V14.01,2013-01-22 21:48:00,
2013-01-22 14:49:00,61.7,-20.0,29.95,WSW,248,9.0,19.0,3,0.00,,,0.00,VWS V14.01,2013-01-22 21:49:00,
2013-01-22 14:50:00,61.7,-20.0,29.95,WNW,302,8.0,15.0,3,0.00,,,0.00,VWS V14.01,2013-01-22 21:50:00,
2013-01-22 14:51:00,61.8,-19.9,29.95,NW,314,5.0,8.0,3,0.00,,,0.00,VWS V14.01,2013-01-22 21:51:00,
2013-01-22 14:52:00,61.8,-19.9,29.95,West,267,6.0,9.0,3,0.00,,,0.00,VWS V14.01,2013-01-22 21:52:00,
2013-01-22 14:53:00,61.9,-19.9,29.95,NW,308,10.0,14.0,3,0.00,,,0.00,VWS V14.01,2013-01-22 21:53:00,
2013-01-22 14:54:00,62.0,-19.8,29.95,WSW,239,6.0,12.0,3,0.00,,,0.00,VWS V14.01,2013-01-22 21:54:00,
2013-01-22 14:55:00,62.0,-19.8,29.96,West,263,5.0,9.0,3,0.00,,,0.00,VWS V14.01,2013-01-22 21:55:00,
2013-01-22 14:56:00,62.0,-19.8,29.96,WNW,290,15.0,22.0,3,0.00,,,0.00,VWS V14.01,2013-01-22 21:56:00,
2013-01-22 14:57:00,62.0,-19.8,29.96,WNW,294,13.0,13.0,3,0.00,,,0.00,VWS V14.01,2013-01-22 21:57:00,
2013-01-22 14:58:00,62.0,-19.8,29.96,WNW,293,7.0,13.0,3,0.00,,,0.00,VWS V14.01,2013-01-22 21:58:00,
2013-01-22 14:59:00,62.0,-19.8,29.96,SSW,210,4.0,10.0,3,0.00,,,0.00,VWS V14.01,2013-01-22 21:59:00,
2013-01-22 15:00:00,62.0,-19.8,29.96,West,260,6.0,14.0,3,0.00,,,0.00,VWS V14.01,2013-01-22 22:00:00,
2013-01-22 15:01:00,62.0,-19.8,29.96,WNW,301,7.0,10.0,3,0.00,,,0.00,VWS V14.01,2013-01-22 22:01:00,
2013-01-22 15:02:00,62.1,-19.7,29.96,WNW,284,7.0,8.0,3,0.00,,,0.00,VWS V14.01,2013-01-22 22:02:00,
2013-01-22 15:03:00,62.1,-19.7,29.96,WNW,288,16.0,19.0,3,0.00,,,0.00,VWS V14.01,2013-01-22 22:03:00,
2013-01-22 15:04:00,62.1,-19.7,29.96,West,266,13.0,16.0,3,0.00,,,0.00,VWS V14.01,2013-01-22 22:04:00,
2013-01-22 15:05:00,62.0,-19.8,29.96,West,264,9.0,21.0,3,0.00,,,0.00,VWS V14.01,2013-01-22 22:05:00,
2013-01-22 15:06:00,61.9,-19.9,29.96,West,279,5.0,9.0,3,0.00,,,0.00,VWS V14.01,2013-01-22 22:06:00,
2013-01-22 15:07:00,61.9,-19.9,29.96,West,271,5.0,10.0,3,0.00,,,0.00,VWS V14.01,2013-01-22 22:07:00,
2013-01-22 15:08:00,61.9,-19.9,29.96,WNW,297,6.0,8.0,3,0.00,,,0.00,VWS V14.01,2013-01-22 22:08:00,
2013-01-22 15:09:00,62.0,-19.8,29.96,WNW,290,13.0,22.0,3,0.00,,,0.00,VWS V14.01,2013-01-22 22:09:00,
2013-01-22 15:10:00,61.9,-19.9,29.96,WNW,290,9.0,13.0,3,0.00,,,0.00,VWS V14.01,2013-01-22 22:10:00,
2013-01-22 15:11:00,61.9,-19.9,29.96,West,264,8.0,10.0,3,0.00,,,0.00,VWS V14.01,2013-01-22 22:11:00,
2013-01-22 15:12:00,61.9,-19.9,29.97,SW,225,5.0,15.0,3,0.00,,,0.00,VWS V14.01,2013-01-22 22:12:00,
2013-01-22 15:13:00,61.8,-19.9,29.97,NW,317,10.0,18.0,3,0.00,,,0.00,VWS V14.01,2013-01-22 22:13:00,
2013-01-22 15:14:00,61.8,-19.9,29.96,West,277,9.0,12.0,3,0.00,,,0.00,VWS V14.01,2013-01-22 22:14:00,
2013-01-22 15:15:00,61.7,-20.0,29.96,West,264,8.0,15.0,3,0.00,,,0.00,VWS V14.01,2013-01-22 22:15:00,
2013-01-22 15:16:00,61.7,-20.0,29.96,West,281,4.0,8.0,3,0.00,,,0.00,VWS V14.01,2013-01-22 22:16:00,
2013-01-22 15:17:00,61.7,-20.0,29.96,West,276,5.0,10.0,3,0.00,,,0.00,VWS V14.01,2013-01-22 22:17:00,
2013-01-22 15:18:00,61.7,-20.0,29.97,West,273,5.0,9.0,3,0.00,,,0.00,VWS V14.01,2013-01-22 22:18:00,
2013-01-22 15:19:00,61.8,-19.9,29.96,West,270,9.0,13.0,3,0.00,,,0.00,VWS V14.01,2013-01-22 22:19:00,
2013-01-22 15:20:00,61.8,-19.9,29.96,West,276,6.0,12.0,3,0.00,,,0.00,VWS V14.01,2013-01-22 22:20:00,
2013-01-22 15:21:00,61.8,-19.9,29.96,WNW,286,5.0,9.0,3,0.00,,,0.00,VWS V14.01,2013-01-22 22:21:00,
2013-01-22 15:22:00,61.7,-20.0,29.96,WNW,285,5.0,8.0,3,0.00,,,0.00,VWS V14.01,2013-01-22 22:22:00,
2013-01-22 15:23:00,61.8,-19.9,29.96,West,281,11.0,11.0,3,0.00,,,0.00,VWS V14.01,2013-01-22 22:23:00,
2013-01-22 15:24:00,61.8,-14.3,29.96,WNW,284,7.0,15.0,4,0.00,,,0.00,VWS V14.01,2013-01-22 22:24:00,
2013-01-22 15:25:00,61.8,-19.9,29.96,West,268,8.0,9.0,3,0.00,,,0.00,VWS V14.01,2013-01-22 22:25:00,
2013-01-22 15:26:00,61.8,-19.9,29.97,WSW,257,6.0,12.0,3,0.00,,,0.00,VWS V14.01,2013-01-22 22:26:00,
2013-01-22 15:27:00,61.8,-19.9,29.96,WNW,294,7.0,12.0,3,0.00,,,0.00,VWS V14.01,2013-01-22 22:27:00,
2013-01-22 15:28:00,61.7,-20.0,29.96,WNW,293,10.0,16.0,3,0.00,,,0.00,VWS V14.01,2013-01-22 22:28:00,
2013-01-22 15:29:00,61.6,-20.1,29.97,WNW,284,6.0,18.0,3,0.00,,,0.00,VWS V14.01,2013-01-22 22:29:00,
2013-01-22 15:30:00,61.6,-20.1,29.96,West,277,4.0,14.0,3,0.00,,,0.00,VWS V14.01,2013-01-22 22:30:00,
2013-01-22 15:31:00,61.5,-20.1,29.96,West,273,4.0,6.0,3,0.00,,,0.00,VWS V14.01,2013-01-22 22:31:00,
2013-01-22 15:32:00,61.5,-20.1,29.96,WSW,248,2.0,9.0,3,0.00,,,0.00,VWS V14.01,2013-01-22 22:32:00,
2013-01-22 15:33:00,61.6,-20.1,29.96,West,268,4.0,7.0,3,0.00,,,0.00,VWS V14.01,2013-01-22 22:33:00,
2013-01-22 15:34:00,61.6,-20.1,29.96,West,272,7.0,15.0,3,0.00,,,0.00,VWS V14.01,2013-01-22 22:34:00,
2013-01-22 15:35:00,61.6,-20.1,29.96,WNW,294,4.0,11.0,3,0.00,,,0.00,VWS V14.01,2013-01-22 22:35:00,
2013-01-22 15:36:00,61.6,-20.1,29.96,WSW,254,4.0,8.0,3,0.00,,,0.00,VWS V14.01,2013-01-22 22:36:00,
2013-01-22 15:37:00,61.5,-20.1,29.96,WSW,254,2.0,11.0,3,0.00,,,0.00,VWS V14.01,2013-01-22 22:37:00,
2013-01-22 15:38:00,61.5,-20.1,29.96,West,265,5.0,7.0,3,0.00,,,0.00,VWS V14.01,2013-01-22 22:38:00,
2013-01-22 15:39:00,61.5,-20.1,29.97,WNW,286,5.0,10.0,3,0.00,,,0.00,VWS V14.01,2013-01-22 22:39:00,
2013-01-22 15:40:00,61.5,-20.1,29.97,WNW,287,8.0,10.0,3,0.00,,,0.00,VWS V14.01,2013-01-22 22:40:00,
2013-01-22 15:41:00,61.4,-20.2,29.96,West,272,4.0,13.0,3,0.00,,,0.00,VWS V14.01,2013-01-22 22:41:00,
2013-01-22 15:42:00,61.4,-20.2,29.96,NW,319,5.0,8.0,3,0.00,,,0.00,VWS V14.01,2013-01-22 22:42:00,
2013-01-22 15:43:00,61.4,-20.2,29.96,SW,230,11.0,11.0,3,0.00,,,0.00,VWS V14.01,2013-01-22 22:43:00,
2013-01-22 15:44:00,61.3,-20.3,29.97,WNW,288,10.0,11.0,3,0.00,,,0.00,VWS V14.01,2013-01-22 22:44:00,
2013-01-22 15:45:00,61.3,-20.3,29.97,WNW,292,1.0,10.0,3,0.00,,,0.00,VWS V14.01,2013-01-22 22:45:00,
2013-01-22 15:46:00,61.3,-20.3,29.96,West,273,12.0,12.0,3,0.00,,,0.00,VWS V14.01,2013-01-22 22:46:00,
2013-01-22 15:47:00,61.2,-20.3,29.97,WNW,296,5.0,9.0,3,0.00,,,0.00,VWS V14.01,2013-01-22 22:47:00,
2013-01-22 15:48:00,61.2,-20.3,29.97,SW,226,2.0,7.0,3,0.00,,,0.00,VWS V14.01,2013-01-22 22:48:00,
2013-01-22 15:49:00,61.2,-20.3,29.97,WNW,282,6.0,8.0,3,0.00,,,0.00,VWS V14.01,2013-01-22 22:49:00,
2013-01-22 15:50:00,61.1,-20.4,29.97,WNW,287,4.0,10.0,3,0.00,,,0.00,VWS V14.01,2013-01-22 22:50:00,
2013-01-22 15:51:00,61.1,-20.4,29.97,WNW,288,5.0,10.0,3,0.00,,,0.00,VWS V14.01,2013-01-22 22:51:00,
2013-01-22 15:52:00,61.1,-20.4,29.97,NW,311,6.0,9.0,3,0.00,,,0.00,VWS V14.01,2013-01-22 22:52:00,
2013-01-22 15:53:00,61.0,-20.5,29.97,WNW,284,8.0,13.0,3,0.00,,,0.00,VWS V14.01,2013-01-22 22:53:00,
2013-01-22 15:54:00,60.9,-20.5,29.97,West,280,6.0,9.0,3,0.00,,,0.00,VWS V14.01,2013-01-22 22:54:00,
2013-01-22 15:55:00,60.7,-20.7,29.97,West,281,1.0,11.0,3,0.00,,,0.00,VWS V14.01,2013-01-22 22:55:00,
2013-01-22 15:56:00,60.7,-20.7,29.97,West,277,10.0,11.0,3,0.00,,,0.00,VWS V14.01,2013-01-22 22:56:00,
2013-01-22 15:57:00,60.5,-20.8,29.97,WNW,284,9.0,9.0,3,0.00,,,0.00,VWS V14.01,2013-01-22 22:57:00,
2013-01-22 15:58:00,60.4,-20.9,29.97,WNW,284,5.0,9.0,3,0.00,,,0.00,VWS V14.01,2013-01-22 22:58:00,
2013-01-22 15:59:00,60.4,-20.9,29.97,WNW,298,1.0,7.0,3,0.00,,,0.00,VWS V14.01,2013-01-22 22:59:00,
2013-01-22 16:00:00,60.3,-21.0,29.97,NW,325,5.0,10.0,3,0.00,,,0.00,VWS V14.01,2013-01-22 23:00:00,
2013-01-22 16:01:00,60.2,-21.0,29.97,WNW,294,3.0,7.0,3,0.00,,,0.00,VWS V14.01,2013-01-22 23:01:00,
2013-01-22 16:02:00,60.1,-21.1,29.97,West,280,4.0,8.0,3,0.00,,,0.00,VWS V14.01,2013-01-22 23:02:00,
2013-01-22 16:03:00,60.0,-21.2,29.97,WSW,256,11.0,13.0,3,0.00,,,0.00,VWS V14.01,2013-01-22 23:03:00,
2013-01-22 16:04:00,59.9,-21.2,29.97,WNW,288,7.0,11.0,3,0.00,,,0.00,VWS V14.01,2013-01-22 23:04:00,
2013-01-22 16:05:00,59.8,-21.3,29.97,WNW,302,8.0,10.0,3,0.00,,,0.00,VWS V14.01,2013-01-22 23:05:00,
2013-01-22 16:06:00,59.7,-21.4,29.97,WNW,297,7.0,8.0,3,0.00,,,0.00,VWS V14.01,2013-01-22 23:06:00,
2013-01-22 16:07:00,59.6,-21.4,29.97,NW,304,2.0,5.0,3,0.00,,,0.00,VWS V14.01,2013-01-22 23:07:00,
2013-01-22 16:08:00,59.5,-21.5,29.97,WSW,254,2.0,3.0,3,0.00,,,0.00,VWS V14.01,2013-01-22 23:08:00,
2013-01-22 16:09:00,59.5,-15.9,29.97,WNW,293,5.0,10.0,4,0.00,,,0.00,VWS V14.01,2013-01-22 23:09:00,
2013-01-22 16:10:00,59.4,-21.6,29.98,SW,223,6.0,10.0,3,0.00,,,0.00,VWS V14.01,2013-01-22 23:10:00,
2013-01-22 16:11:00,59.4,-21.6,29.98,NNW,334,6.0,11.0,3,0.00,,,0.00,VWS V14.01,2013-01-22 23:11:00,
2013-01-22 16:12:00,59.3,-21.6,29.98,WNW,301,5.0,8.0,3,0.00,,,0.00,VWS V14.01,2013-01-22 23:12:00,
2013-01-22 16:13:00,59.3,-21.6,29.97,WNW,292,6.0,12.0,3,0.00,,,0.00,VWS V14.01,2013-01-22 23:13:00,
2013-01-22 16:14:00,59.2,-21.7,29.97,West,261,5.0,7.0,3,0.00,,,0.00,VWS V14.01,2013-01-22 23:14:00,
2013-01-22 16:15:00,59.1,-21.8,29.98,West,273,4.0,10.0,3,0.00,,,0.00,VWS V14.01,2013-01-22 23:15:00,
2013-01-22 16:16:00,59.1,-21.8,29.97,WNW,290,8.0,8.0,3,0.00,,,0.00,VWS V14.01,2013-01-22 23:16:00,
2013-01-22 16:17:00,59.0,-16.3,29.97,WSW,253,5.0,6.0,4,0.00,,,0.00,VWS V14.01,2013-01-22 23:17:00,
2013-01-22 16:18:00,58.9,-16.4,29.97,WNW,296,6.0,10.0,4,0.00,,,0.00,VWS V14.01,2013-01-22 23:18:00,
2013-01-22 16:19:00,58.9,-16.4,29.97,WSW,257,2.0,6.0,4,0.00,,,0.00,VWS V14.01,2013-01-22 23:19:00,
2013-01-22 16:20:00,58.9,-16.4,29.97,West,269,9.0,9.0,4,0.00,,,0.00,VWS V14.01,2013-01-22 23:20:00,
2013-01-22 16:21:00,58.8,-16.4,29.97,WNW,300,5.0,9.0,4,0.00,,,0.00,VWS V14.01,2013-01-22 23:21:00,
2013-01-22 16:22:00,58.7,-16.5,29.97,NW,306,1.0,8.0,4,0.00,,,0.00,VWS V14.01,2013-01-22 23:22:00,
2013-01-22 16:23:00,58.6,-16.6,29.97,WNW,287,5.0,6.0,4,0.00,,,0.00,VWS V14.01,2013-01-22 23:23:00,
2013-01-22 16:24:00,58.6,-16.6,29.97,West,261,6.0,10.0,4,0.00,,,0.00,VWS V14.01,2013-01-22 23:24:00,
2013-01-22 16:25:00,58.5,-16.6,29.98,West,273,6.0,8.0,4,0.00,,,0.00,VWS V14.01,2013-01-22 23:25:00,
2013-01-22 16:26:00,58.4,-16.7,29.98,West,273,3.0,6.0,4,0.00,,,0.00,VWS V14.01,2013-01-22 23:26:00,
2013-01-22 16:27:00,58.4,-16.7,29.98,West,280,4.0,10.0,4,0.00,,,0.00,VWS V14.01,2013-01-22 23:27:00,
2013-01-22 16:28:00,58.4,-16.7,29.98,WNW,288,5.0,7.0,4,0.00,,,0.00,VWS V14.01,2013-01-22 23:28:00,
2013-01-22 16:29:00,58.4,-16.7,29.98,West,278,2.0,6.0,4,0.00,,,0.00,VWS V14.01,2013-01-22 23:29:00,
2013-01-22 16:30:00,58.3,-16.8,29.98,WSW,257,4.0,7.0,4,0.00,,,0.00,VWS V14.01,2013-01-22 23:30:00,
2013-01-22 16:31:00,58.3,-16.8,29.98,WNW,296,6.0,9.0,4,0.00,,,0.00,VWS V14.01,2013-01-22 23:31:00,
2013-01-22 16:32:00,58.2,-16.9,29.98,WNW,288,2.0,5.0,4,0.00,,,0.00,VWS V14.01,2013-01-22 23:32:00,
2013-01-22 16:33:00,58.2,-16.9,29.98,WNW,287,3.0,6.0,4,0.00,,,0.00,VWS V14.01,2013-01-22 23:33:00,
2013-01-22 16:34:00,58.2,-16.9,29.98,WNW,298,6.0,7.0,4,0.00,,,0.00,VWS V14.01,2013-01-22 23:34:00,
2013-01-22 16:35:00,58.1,-16.9,29.98,WNW,300,3.0,8.0,4,0.00,,,0.00,VWS V14.01,2013-01-22 23:35:00,
2013-01-22 16:36:00,58.1,-16.9,29.98,WNW,303,7.0,7.0,4,0.00,,,0.00,VWS V14.01,2013-01-22 23:36:00,
2013-01-22 16:37:00,58.0,-17.0,29.98,WNW,294,7.0,9.0,4,0.00,,,0.00,VWS V14.01,2013-01-22 23:37:00,
2013-01-22 16:38:00,58.0,-17.0,29.98,WNW,295,7.0,10.0,4,0.00,,,0.00,VWS V14.01,2013-01-22 23:38:00,
2013-01-22 16:39:00,57.9,-17.1,29.98,West,267,4.0,8.0,4,0.00,,,0.00,VWS V14.01,2013-01-22 23:39:00,
2013-01-22 16:40:00,57.8,-17.1,29.98,West,268,1.0,6.0,4,0.00,,,0.00,VWS V14.01,2013-01-22 23:40:00,
2013-01-22 16:41:00,57.7,-17.2,29.98,NW,314,7.0,8.0,4,0.00,,,0.00,VWS V14.01,2013-01-22 23:41:00,
2013-01-22 16:42:00,57.6,-17.3,29.98,NW,305,5.0,5.0,4,0.00,,,0.00,VWS V14.01,2013-01-22 23:42:00,
2013-01-22 16:43:00,57.5,-12.9,29.98,NW,311,7.0,8.0,5,0.00,,,0.00,VWS V14.01,2013-01-22 23:43:00,
2013-01-22 16:44:00,57.4,-13.0,29.98,WNW,286,4.0,8.0,5,0.00,,,0.00,VWS V14.01,2013-01-22 23:44:00,
2013-01-22 16:45:00,57.2,-17.5,29.98,WNW,289,7.0,8.0,4,0.00,,,0.00,VWS V14.01,2013-01-22 23:45:00,
2013-01-22 16:46:00,57.1,-13.2,29.98,West,273,5.0,7.0,5,0.00,,,0.00,VWS V14.01,2013-01-22 23:46:00,
2013-01-22 16:47:00,57.0,-13.3,29.98,West,277,6.0,9.0,5,0.00,,,0.00,VWS V14.01,2013-01-22 23:47:00,
2013-01-22 16:48:00,56.9,-13.4,29.98,WNW,300,7.0,8.0,5,0.00,,,0.00,VWS V14.01,2013-01-22 23:48:00,
2013-01-22 16:49:00,56.9,-13.4,29.98,West,280,2.0,9.0,5,0.00,,,0.00,VWS V14.01,2013-01-22 23:49:00,
2013-01-22 16:50:00,56.8,-13.4,29.98,WNW,291,6.0,7.0,5,0.00,,,0.00,VWS V14.01,2013-01-22 23:50:00,
2013-01-22 16:51:00,56.7,-13.5,29.98,West,273,4.0,6.0,5,0.00,,,0.00,VWS V14.01,2013-01-22 23:51:00,
2013-01-22 16:52:00,56.6,-13.6,29.98,WNW,302,4.0,7.0,5,0.00,,,0.00,VWS V14.01,2013-01-22 23:52:00,
2013-01-22 16:53:00,56.6,-13.6,29.98,WNW,286,6.0,8.0,5,0.00,,,0.00,VWS V14.01,2013-01-22 23:53:00,
2013-01-22 16:54:00,56.5,-13.7,29.98,WNW,298,5.0,8.0,5,0.00,,,0.00,VWS V14.01,2013-01-22 23:54:00,
2013-01-22 16:55:00,56.4,-13.7,29.98,WNW,293,7.0,10.0,5,0.00,,,0.00,VWS V14.01,2013-01-22 23:55:00,
2013-01-22 16:56:00,56.4,-13.7,29.98,WNW,286,2.0,8.0,5,0.00,,,0.00,VWS V14.01,2013-01-22 23:56:00,
2013-01-22 16:57:00,56.3,-13.8,29.98,WNW,286,5.0,6.0,5,0.00,,,0.00,VWS V14.01,2013-01-22 23:57:00,
2013-01-22 16:58:00,56.2,-13.9,29.98,West,274,7.0,7.0,5,0.00,,,0.00,VWS V14.01,2013-01-22 23:58:00,
2013-01-22 16:59:00,56.2,-13.9,29.98,West,275,2.0,7.0,5,0.00,,,0.00,VWS V14.01,2013-01-22 23:59:00,
2013-01-22 17:00:00,56.1,-13.9,29.98,West,279,4.0,5.0,5,0.00,,,0.00,VWS V14.01,2013-01-23 00:00:00,
2013-01-22 17:01:00,56.0,-18.4,29.98,NW,314,9.0,9.0,4,0.00,,,0.00,VWS V14.01,2013-01-23 00:01:00,
2013-01-22 17:02:00,56.0,-18.4,29.98,NNW,327,4.0,5.0,4,0.00,,,0.00,VWS V14.01,2013-01-23 00:02:00,
2013-01-22 17:03:00,55.9,-18.5,29.98,WNW,300,4.0,4.0,4,0.00,,,0.00,VWS V14.01,2013-01-23 00:03:00,
2013-01-22 17:04:00,55.9,-18.5,29.98,WNW,302,1.0,7.0,4,0.00,,,0.00,VWS V14.01,2013-01-23 00:04:00,
2013-01-22 17:05:00,55.9,-18.5,29.98,West,267,3.0,5.0,4,0.00,,,0.00,VWS V14.01,2013-01-23 00:05:00,
2013-01-22 17:06:00,55.9,-18.5,29.98,WNW,292,4.0,8.0,4,0.00,,,0.00,VWS V14.01,2013-01-23 00:06:00,
2013-01-22 17:07:00,55.9,-18.5,29.98,NNE,26,2.0,5.0,4,0.00,,,0.00,VWS V14.01,2013-01-23 00:07:00,
2013-01-22 17:08:00,55.9,-18.5,29.98,WNW,303,4.0,7.0,4,0.00,,,0.00,VWS V14.01,2013-01-23 00:08:00,
2013-01-22 17:09:00,55.9,-18.5,29.98,WNW,303,2.0,4.0,4,0.00,,,0.00,VWS V14.01,2013-01-23 00:09:00,
2013-01-22 17:10:00,55.9,-18.5,29.98,West,276,1.0,6.0,4,0.00,,,0.00,VWS V14.01,2013-01-23 00:10:00,
2013-01-22 17:11:00,55.9,-18.5,29.99,West,276,0.0,2.0,4,0.00,,,0.00,VWS V14.01,2013-01-23 00:11:00,
2013-01-22 17:12:00,55.8,-18.5,29.99,WNW,289,2.0,5.0,4,0.00,,,0.00,VWS V14.01,2013-01-23 00:12:00,
2013-01-22 17:13:00,55.8,-18.5,29.98,WNW,290,3.0,6.0,4,0.00,,,0.00,VWS V14.01,2013-01-23 00:13:00,
2013-01-22 17:14:00,55.8,-18.5,29.98,WNW,302,2.0,4.0,4,0.00,,,0.00,VWS V14.01,2013-01-23 00:14:00,
2013-01-22 17:15:00,55.7,-18.6,29.99,WNW,302,2.0,4.0,4,0.00,,,0.00,VWS V14.01,2013-01-23 00:15:00,
2013-01-22 17:16:00,55.7,-18.6,29.99,WSW,251,6.0,6.0,4,0.00,,,0.00,VWS V14.01,2013-01-23 00:16:00,
2013-01-22 17:17:00,55.7,-18.6,29.99,West,275,1.0,8.0,4,0.00,,,0.00,VWS V14.01,2013-01-23 00:17:00,
2013-01-22 17:18:00,55.8,-18.5,29.99,West,275,2.0,4.0,4,0.00,,,0.00,VWS V14.01,2013-01-23 00:18:00,
2013-01-22 17:19:00,55.8,-18.5,29.99,WSW,250,5.0,8.0,4,0.00,,,0.00,VWS V14.01,2013-01-23 00:19:00,
2013-01-22 17:20:00,55.8,-18.5,29.99,WSW,250,0.0,5.0,4,0.00,,,0.00,VWS V14.01,2013-01-23 00:20:00,
2013-01-22 17:21:00,55.7,-18.6,29.99,WSW,250,0.0,0.0,4,0.00,,,0.00,VWS V14.01,2013-01-23 00:21:00,
2013-01-22 17:22:00,55.7,-18.6,29.99,WSW,250,3.0,5.0,4,0.00,,,0.00,VWS V14.01,2013-01-23 00:22:00,
2013-01-22 17:23:00,55.7,-18.6,29.99,WSW,250,0.0,3.0,4,0.00,,,0.00,VWS V14.01,2013-01-23 00:23:00,
2013-01-22 17:24:00,55.6,-18.7,29.99,WSW,250,0.0,1.0,4,0.00,,,0.00,VWS V14.01,2013-01-23 00:24:00,
2013-01-22 17:25:00,55.5,-18.7,29.99,WSW,250,0.0,2.0,4,0.00,,,0.00,VWS V14.01,2013-01-23 00:25:00,
2013-01-22 17:26:00,55.5,-18.7,29.99,WSW,250,0.0,1.0,4,0.00,,,0.00,VWS V14.01,2013-01-23 00:26:00,
2013-01-22 17:27:00,55.4,-18.8,29.99,WSW,250,0.0,5.0,4,0.00,,,0.00,VWS V14.01,2013-01-23 00:27:00,
2013-01-22 17:28:00,55.4,-18.8,29.99,WSW,250,0.0,1.0,4,0.00,,,0.00,VWS V14.01,2013-01-23 00:28:00,
2013-01-22 17:29:00,55.3,-18.9,29.99,WSW,250,0.0,1.0,4,0.00,,,0.00,VWS V14.01,2013-01-23 00:29:00,
2013-01-22 17:30:00,55.3,-18.9,29.99,WSW,250,2.0,2.0,4,0.00,,,0.00,VWS V14.01,2013-01-23 00:30:00,
2013-01-22 17:31:00,55.2,-19.0,29.99,West,264,2.0,5.0,4,0.00,,,0.00,VWS V14.01,2013-01-23 00:31:00,
2013-01-22 17:32:00,55.1,-19.0,29.99,West,264,2.0,5.0,4,0.00,,,0.00,VWS V14.01,2013-01-23 00:32:00,
2013-01-22 17:33:00,55.1,-19.0,30.00,West,263,7.0,7.0,4,0.00,,,0.00,VWS V14.01,2013-01-23 00:33:00,
2013-01-22 17:34:00,55.1,-19.0,30.00,WSW,258,2.0,8.0,4,0.00,,,0.00,VWS V14.01,2013-01-23 00:34:00,
2013-01-22 17:35:00,55.1,-19.0,30.00,WSW,258,0.0,2.0,4,0.00,,,0.00,VWS V14.01,2013-01-23 00:35:00,
2013-01-22 17:36:00,55.1,-19.0,30.00,WSW,258,0.0,1.0,4,0.00,,,0.00,VWS V14.01,2013-01-23 00:36:00,
2013-01-22 17:37:00,55.1,-19.0,30.00,WSW,258,0.0,0.0,4,0.00,,,0.00,VWS V14.01,2013-01-23 00:37:00,
2013-01-22 17:38:00,55.1,-19.0,30.00,WSW,258,1.0,2.0,4,0.00,,,0.00,VWS V14.01,2013-01-23 00:38:00,
2013-01-22 17:39:00,55.0,-19.1,30.00,WSW,258,0.0,1.0,4,0.00,,,0.00,VWS V14.01,2013-01-23 00:39:00,
2013-01-22 17:40:00,54.8,-19.2,30.00,WSW,258,0.0,1.0,4,0.00,,,0.00,VWS V14.01,2013-01-23 00:40:00,
2013-01-22 17:41:00,54.8,-19.2,30.00,WSW,258,1.0,1.0,4,0.00,,,0.00,VWS V14.01,2013-01-23 00:41:00,
2013-01-22 17:42:00,54.6,-19.4,30.00,WSW,258,0.0,0.0,4,0.00,,,0.00,VWS V14.01,2013-01-23 00:42:00,
2013-01-22 17:43:00,54.6,-19.4,30.00,WSW,258,1.0,1.0,4,0.00,,,0.00,VWS V14.01,2013-01-23 00:43:00,
2013-01-22 17:44:00,54.4,-19.5,30.00,WSW,258,0.0,2.0,4,0.00,,,0.00,VWS V14.01,2013-01-23 00:44:00,
2013-01-22 17:45:00,54.3,-19.6,30.00,WSW,258,0.0,1.0,4,0.00,,,0.00,VWS V14.01,2013-01-23 00:45:00,
2013-01-22 17:46:00,54.2,-19.6,30.00,WSW,258,3.0,3.0,4,0.00,,,0.00,VWS V14.01,2013-01-23 00:46:00,
2013-01-22 17:47:00,54.1,-19.7,30.00,West,280,2.0,7.0,4,0.00,,,0.00,VWS V14.01,2013-01-23 00:47:00,
2013-01-22 17:48:00,54.0,-15.5,30.00,West,273,2.0,3.0,5,0.00,,,0.00,VWS V14.01,2013-01-23 00:48:00,
2013-01-22 17:49:00,53.9,-15.5,30.00,West,270,0.0,3.0,5,0.00,,,0.00,VWS V14.01,2013-01-23 00:49:00,
2013-01-22 17:50:00,53.8,-15.6,30.00,WSW,257,2.0,3.0,5,0.00,,,0.00,VWS V14.01,2013-01-23 00:50:00,
2013-01-22 17:51:00,53.7,-15.7,30.00,WSW,257,1.0,4.0,5,0.00,,,0.00,VWS V14.01,2013-01-23 00:51:00,
2013-01-22 17:52:00,53.6,-15.7,30.00,SW,222,4.0,10.0,5,0.00,,,0.00,VWS V14.01,2013-01-23 00:52:00,
2013-01-22 17:53:00,53.5,-15.8,30.00,SW,234,5.0,6.0,5,0.00,,,0.00,VWS V14.01,2013-01-23 00:53:00,
2013-01-22 17:54:00,53.4,-15.9,30.00,SW,234,0.0,5.0,5,0.00,,,0.00,VWS V14.01,2013-01-23 00:54:00,
2013-01-22 17:55:00,53.3,-16.0,30.00,SW,234,0.0,1.0,5,0.00,,,0.00,VWS V14.01,2013-01-23 00:55:00,
2013-01-22 17:56:00,53.3,-16.0,30.00,SW,234,2.0,3.0,5,0.00,,,0.00,VWS V14.01,2013-01-23 00:56:00,
2013-01-22 17:57:00,53.4,-15.9,30.01,SW,234,1.0,6.0,5,0.00,,,0.00,VWS V14.01,2013-01-23 00:57:00,
2013-01-22 17:58:00,53.5,-15.8,30.01,SSW,204,5.0,6.0,5,0.00,,,0.00,VWS V14.01,2013-01-23 00:58:00,
2013-01-22 17:59:00,53.5,-15.8,30.01,SW,231,3.0,6.0,5,0.00,,,0.00,VWS V14.01,2013-01-23 00:59:00,
2013-01-22 18:00:00,53.6,-15.7,30.01,WSW,250,4.0,10.0,5,0.00,,,0.00,VWS V14.01,2013-01-23 01:00:00,
2013-01-22 18:01:00,53.7,-15.7,30.01,WSW,250,0.0,4.0,5,0.00,,,0.00,VWS V14.01,2013-01-23 01:01:00,
2013-01-22 18:02:00,53.8,-15.6,30.01,WSW,253,5.0,5.0,5,0.00,,,0.00,VWS V14.01,2013-01-23 01:02:00,
2013-01-22 18:03:00,53.9,-15.5,30.01,WSW,254,3.0,5.0,5,0.00,,,0.00,VWS V14.01,2013-01-23 01:03:00,
2013-01-22 18:04:00,54.0,-15.5,30.01,WSW,252,1.0,6.0,5,0.00,,,0.00,VWS V14.01,2013-01-23 01:04:00,
2013-01-22 18:05:00,54.0,-15.5,30.01,WSW,252,1.0,2.0,5,0.00,,,0.00,VWS V14.01,2013-01-23 01:05:00,
2013-01-22 18:06:00,54.1,-15.4,30.01,WSW,252,5.0,5.0,5,0.00,,,0.00,VWS V14.01,2013-01-23 01:06:00,
2013-01-22 18:07:00,54.1,-15.4,30.01,WSW,252,0.0,2.0,5,0.00,,,0.00,VWS V14.01,2013-01-23 01:07:00,
2013-01-22 18:08:00,54.2,-15.3,30.01,WSW,252,0.0,0.0,5,0.00,,,0.00,VWS V14.01,2013-01-23 01:08:00,
2013-01-22 18:09:00,54.1,-15.4,30.01,WSW,252,0.0,0.0,5,0.00,,,0.00,VWS V14.01,2013-01-23 01:09:00,
2013-01-22 18:10:00,54.1,-15.4,30.01,WSW,252,0.0,0.0,5,0.00,,,0.00,VWS V14.01,2013-01-23 01:10:00,
2013-01-22 18:11:00,54.0,-15.5,30.01,West,261,4.0,6.0,5,0.00,,,0.00,VWS V14.01,2013-01-23 01:11:00,
2013-01-22 18:12:00,53.8,-15.6,30.01,West,261,2.0,3.0,5,0.00,,,0.00,VWS V14.01,2013-01-23 01:12:00,
2013-01-22 18:13:00,53.7,-15.7,30.02,WSW,248,1.0,7.0,5,0.00,,,0.00,VWS V14.01,2013-01-23 01:13:00,
2013-01-22 18:14:00,53.6,-15.7,30.02,WSW,250,6.0,6.0,5,0.00,,,0.00,VWS V14.01,2013-01-23 01:14:00,
2013-01-22 18:15:00,53.6,-15.7,30.02,WSW,250,6.0,6.0,5,0.00,,,0.00,VWS V14.01,2013-01-23 01:15:00,
2013-01-22 18:16:00,53.6,-15.7,30.02,WSW,250,5.0,7.0,5,0.00,,,0.00,VWS V14.01,2013-01-23 01:16:00,
2013-01-22 18:17:00,53.7,-15.7,30.02,WSW,250,1.0,2.0,5,0.00,,,0.00,VWS V14.01,2013-01-23 01:17:00,
2013-01-22 18:18:00,53.7,-15.7,30.02,WSW,250,3.0,4.0,5,0.00,,,0.00,VWS V14.01,2013-01-23 01:18:00,
2013-01-22 18:19:00,53.7,-15.7,30.02,WSW,250,0.0,1.0,5,0.00,,,0.00,VWS V14.01,2013-01-23 01:19:00,
2013-01-22 18:20:00,53.7,-15.7,30.02,WSW,250,2.0,2.0,5,0.00,,,0.00,VWS V14.01,2013-01-23 01:20:00,
2013-01-22 18:21:00,53.7,-15.7,30.02,WSW,250,0.0,1.0,5,0.00,,,0.00,VWS V14.01,2013-01-23 01:21:00,
2013-01-22 18:22:00,53.7,-15.7,30.02,WSW,250,0.0,0.0,5,0.00,,,0.00,VWS V14.01,2013-01-23 01:22:00,
2013-01-22 18:23:00,53.6,-15.7,30.02,WSW,250,0.0,1.0,5,0.00,,,0.00,VWS V14.01,2013-01-23 01:23:00,
2013-01-22 18:24:00,53.5,-15.8,30.02,WSW,250,4.0,4.0,5,0.00,,,0.00,VWS V14.01,2013-01-23 01:24:00,
2013-01-22 18:25:00,53.5,-15.8,30.02,WSW,252,2.0,6.0,5,0.00,,,0.00,VWS V14.01,2013-01-23 01:25:00,
2013-01-22 18:26:00,53.5,-15.8,30.02,West,260,6.0,6.0,5,0.00,,,0.00,VWS V14.01,2013-01-23 01:26:00,
2013-01-22 18:27:00,53.6,-15.7,30.02,West,260,2.0,4.0,5,0.00,,,0.00,VWS V14.01,2013-01-23 01:27:00,
2013-01-22 18:28:00,53.7,-15.7,30.02,West,260,0.0,2.0,5,0.00,,,0.00,VWS V14.01,2013-01-23 01:28:00,
2013-01-22 18:29:00,53.7,-15.7,30.02,West,260,0.0,1.0,5,0.00,,,0.00,VWS V14.01,2013-01-23 01:29:00,
2013-01-22 18:30:00,53.7,-15.7,30.02,West,260,1.0,2.0,5,0.00,,,0.00,VWS V14.01,2013-01-23 01:30:00,
2013-01-22 18:31:00,53.6,-15.7,30.02,West,260,1.0,1.0,5,0.00,,,0.00,VWS V14.01,2013-01-23 01:31:00,
2013-01-22 18:32:00,53.5,-15.8,30.02,West,260,5.0,5.0,5,0.00,,,0.00,VWS V14.01,2013-01-23 01:32:00,
2013-01-22 18:33:00,53.5,-15.8,30.02,WSW,253,4.0,5.0,5,0.00,,,0.00,VWS V14.01,2013-01-23 01:33:00,
2013-01-22 18:34:00,53.5,-15.8,30.02,WSW,253,4.0,5.0,5,0.00,,,0.00,VWS V14.01,2013-01-23 01:34:00,
2013-01-22 18:35:00,53.4,-15.9,30.02,WSW,253,1.0,5.0,5,0.00,,,0.00,VWS V14.01,2013-01-23 01:35:00,
2013-01-22 18:36:00,53.4,-15.9,30.02,WSW,253,4.0,5.0,5,0.00,,,0.00,VWS V14.01,2013-01-23 01:36:00,
2013-01-22 18:37:00,53.2,-16.0,30.02,West,263,1.0,6.0,5,0.00,,,0.00,VWS V14.01,2013-01-23 01:37:00,
2013-01-22 18:38:00,53.2,-16.0,30.02,WSW,257,4.0,8.0,5,0.00,,,0.00,VWS V14.01,2013-01-23 01:38:00,
2013-01-22 18:39:00,53.3,-16.0,30.02,WSW,257,4.0,5.0,5,0.00,,,0.00,VWS V14.01,2013-01-23 01:39:00,
2013-01-22 18:40:00,53.3,-16.0,30.02,WSW,257,3.0,5.0,5,0.00,,,0.00,VWS V14.01,2013-01-23 01:40:00,
2013-01-22 18:41:00,53.3,-16.0,30.02,WSW,257,2.0,3.0,5,0.00,,,0.00,VWS V14.01,2013-01-23 01:41:00,
2013-01-22 18:42:00,53.2,-16.0,30.02,WSW,257,2.0,2.0,5,0.00,,,0.00,VWS V14.01,2013-01-23 01:42:00,
2013-01-22 18:43:00,53.2,-16.0,30.02,WSW,257,2.0,2.0,5,0.00,,,0.00,VWS V14.01,2013-01-23 01:43:00,
2013-01-22 18:44:00,53.1,-16.1,30.02,WSW,257,0.0,2.0,5,0.00,,,0.00,VWS V14.01,2013-01-23 01:44:00,
2013-01-22 18:45:00,53.0,-16.2,30.02,WSW,257,2.0,2.0,5,0.00,,,0.00,VWS V14.01,2013-01-23 01:45:00,
2013-01-22 18:46:00,52.9,-16.2,30.02,WSW,257,3.0,4.0,5,0.00,,,0.00,VWS V14.01,2013-01-23 01:46:00,
2013-01-22 18:47:00,52.8,-16.3,30.02,WSW,257,4.0,4.0,5,0.00,,,0.00,VWS V14.01,2013-01-23 01:47:00,
2013-01-22 18:48:00,52.8,-16.3,30.02,WSW,257,3.0,5.0,5,0.00,,,0.00,VWS V14.01,2013-01-23 01:48:00,
2013-01-22 18:49:00,52.8,-16.3,30.02,WSW,257,2.0,4.0,5,0.00,,,0.00,VWS V14.01,2013-01-23 01:49:00,
2013-01-22 18:50:00,52.8,-16.3,30.02,WSW,257,4.0,4.0,5,0.00,,,0.00,VWS V14.01,2013-01-23 01:50:00,
2013-01-22 18:51:00,52.8,-16.3,30.02,WSW,257,2.0,4.0,5,0.00,,,0.00,VWS V14.01,2013-01-23 01:51:00,
2013-01-22 18:52:00,52.8,-16.3,30.02,WSW,257,4.0,4.0,5,0.00,,,0.00,VWS V14.01,2013-01-23 01:52:00,
2013-01-22 18:53:00,52.7,-16.4,30.02,WSW,257,3.0,5.0,5,0.00,,,0.00,VWS V14.01,2013-01-23 01:53:00,
2013-01-22 18:54:00,52.7,-16.4,30.02,WSW,256,6.0,7.0,5,0.00,,,0.00,VWS V14.01,2013-01-23 01:54:00,
2013-01-22 18:55:00,52.7,-16.4,30.02,West,259,8.0,10.0,5,0.00,,,0.00,VWS V14.01,2013-01-23 01:55:00,
2013-01-22 18:56:00,52.6,-16.5,30.02,West,259,5.0,6.0,5,0.00,,,0.00,VWS V14.01,2013-01-23 01:56:00,
2013-01-22 18:57:00,52.7,-20.7,30.02,West,265,1.0,8.0,4,0.00,,,0.00,VWS V14.01,2013-01-23 01:57:00,
2013-01-22 18:58:00,52.8,-20.6,30.02,West,265,2.0,4.0,4,0.00,,,0.00,VWS V14.01,2013-01-23 01:58:00,
2013-01-22 18:59:00,52.9,-20.6,30.02,West,265,0.0,2.0,4,0.00,,,0.00,VWS V14.01,2013-01-23 01:59:00,
2013-01-22 19:00:00,52.9,-20.6,30.02,West,265,2.0,4.0,4,0.00,,,0.00,VWS V14.01,2013-01-23 02:00:00,
2013-01-22 19:01:00,53.0,-20.5,30.02,West,265,2.0,4.0,4,0.00,,,0.00,VWS V14.01,2013-01-23 02:01:00,
2013-01-22 19:02:00,53.0,-20.5,30.02,West,265,1.0,4.0,4,0.00,,,0.00,VWS V14.01,2013-01-23 02:02:00,
2013-01-22 19:03:00,53.1,-20.4,30.02,West,265,1.0,4.0,4,0.00,,,0.00,VWS V14.01,2013-01-23 02:03:00,
2013-01-22 19:04:00,53.1,-20.4,30.03,West,265,0.0,1.0,4,0.00,,,0.00,VWS V14.01,2013-01-23 02:04:00,
2013-01-22 19:05:00,53.1,-20.4,30.03,West,265,2.0,2.0,4,0.00,,,0.00,VWS V14.01,2013-01-23 02:05:00,
2013-01-22 19:06:00,53.1,-20.4,30.03,West,265,2.0,2.0,4,0.00,,,0.00,VWS V14.01,2013-01-23 02:06:00,
2013-01-22 19:07:00,53.0,-20.5,30.03,West,265,2.0,2.0,4,0.00,,,0.00,VWS V14.01,2013-01-23 02:07:00,
2013-01-22 19:08:00,53.0,-20.5,30.03,West,265,1.0,4.0,4,0.00,,,0.00,VWS V14.01,2013-01-23 02:08:00,
2013-01-22 19:09:00,53.0,-20.5,30.03,West,265,0.0,1.0,4,0.00,,,0.00,VWS V14.01,2013-01-23 02:09:00,
2013-01-22 19:10:00,53.0,-20.5,30.03,West,265,2.0,2.0,4,0.00,,,0.00,VWS V14.01,2013-01-23 02:10:00,
2013-01-22 19:11:00,52.9,-20.6,30.03,West,265,0.0,2.0,4,0.00,,,0.00,VWS V14.01,2013-01-23 02:11:00,
2013-01-22 19:12:00,52.9,-16.2,30.03,West,265,1.0,4.0,5,0.00,,,0.00,VWS V14.01,2013-01-23 02:12:00,
2013-01-22 19:13:00,52.8,-20.6,30.03,West,265,4.0,6.0,4,0.00,,,0.00,VWS V14.01,2013-01-23 02:13:00,
2013-01-22 19:14:00,52.7,-20.7,30.03,West,263,2.0,3.0,4,0.00,,,0.00,VWS V14.01,2013-01-23 02:14:00,
2013-01-22 19:15:00,52.7,-20.7,30.03,West,263,5.0,5.0,4,0.00,,,0.00,VWS V14.01,2013-01-23 02:15:00,
2013-01-22 19:16:00,52.7,-20.7,30.03,West,263,2.0,5.0,4,0.00,,,0.00,VWS V14.01,2013-01-23 02:16:00,
2013-01-22 19:17:00,52.6,-20.8,30.03,West,263,2.0,3.0,4,0.00,,,0.00,VWS V14.01,2013-01-23 02:17:00,
2013-01-22 19:18:00,52.6,-20.8,30.03,West,263,3.0,3.0,4,0.00,,,0.00,VWS V14.01,2013-01-23 02:18:00,
2013-01-22 19:19:00,52.6,-20.8,30.03,West,263,2.0,5.0,4,0.00,,,0.00,VWS V14.01,2013-01-23 02:19:00,
2013-01-22 19:20:00,52.7,-20.7,30.03,West,264,3.0,5.0,4,0.00,,,0.00,VWS V14.01,2013-01-23 02:20:00,
2013-01-22 19:21:00,52.7,-20.7,30.03,West,264,1.0,3.0,4,0.00,,,0.00,VWS V14.01,2013-01-23 02:21:00,
2013-01-22 19:22:00,52.7,-20.7,30.03,West,264,1.0,4.0,4,0.00,,,0.00,VWS V14.01,2013-01-23 02:22:00,
2013-01-22 19:23:00,52.7,-20.7,30.03,West,265,4.0,6.0,4,0.00,,,0.00,VWS V14.01,2013-01-23 02:23:00,
2013-01-22 19:24:00,52.8,-20.6,30.03,West,265,2.0,4.0,4,0.00,,,0.00,VWS V14.01,2013-01-23 02:24:00,
2013-01-22 19:25:00,52.8,-20.6,30.03,West,265,0.0,2.0,4,0.00,,,0.00,VWS V14.01,2013-01-23 02:25:00,
2013-01-22 19:26:00,52.8,-20.6,30.03,West,265,2.0,3.0,4,0.00,,,0.00,VWS V14.01,2013-01-23 02:26:00,
2013-01-22 19:27:00,52.8,-20.6,30.03,West,263,4.0,6.0,4,0.00,,,0.00,VWS V14.01,2013-01-23 02:27:00,
2013-01-22 19:28:00,52.8,-20.6,30.03,West,265,4.0,5.0,4,0.00,,,0.00,VWS V14.01,2013-01-23 02:28:00,
2013-01-22 19:29:00,52.8,-20.6,30.03,West,265,5.0,5.0,4,0.00,,,0.00,VWS V14.01,2013-01-23 02:29:00,
2013-01-22 19:30:00,52.9,-20.6,30.03,West,261,3.0,6.0,4,0.00,,,0.00,VWS V14.01,2013-01-23 02:30:00,
2013-01-22 19:31:00,52.9,-20.6,30.03,West,260,4.0,5.0,4,0.00,,,0.00,VWS V14.01,2013-01-23 02:31:00,
2013-01-22 19:32:00,52.9,-20.6,30.03,West,260,1.0,4.0,4,0.00,,,0.00,VWS V14.01,2013-01-23 02:32:00,
2013-01-22 19:33:00,52.9,-20.6,30.03,West,260,2.0,4.0,4,0.00,,,0.00,VWS V14.01,2013-01-23 02:33:00,
2013-01-22 19:34:00,52.9,-20.6,30.03,West,260,2.0,4.0,4,0.00,,,0.00,VWS V14.01,2013-01-23 02:34:00,
2013-01-22 19:35:00,52.9,-20.6,30.03,West,260,4.0,5.0,4,0.00,,,0.00,VWS V14.01,2013-01-23 02:35:00,
2013-01-22 19:36:00,52.8,-20.6,30.03,West,260,5.0,5.0,4,0.00,,,0.00,VWS V14.01,2013-01-23 02:36:00,
2013-01-22 19:37:00,52.8,-20.6,30.04,WSW,258,2.0,5.0,4,0.00,,,0.00,VWS V14.01,2013-01-23 02:37:00,
2013-01-22 19:38:00,52.9,-20.6,30.04,WSW,258,2.0,4.0,4,0.00,,,0.00,VWS V14.01,2013-01-23 02:38:00,
2013-01-22 19:39:00,52.8,-16.3,30.04,WSW,258,3.0,4.0,5,0.00,,,0.00,VWS V14.01,2013-01-23 02:39:00,
2013-01-22 19:40:00,52.8,-16.3,30.03,WSW,258,4.0,5.0,5,0.00,,,0.00,VWS V14.01,2013-01-23 02:40:00,
2013-01-22 19:41:00,52.7,-16.4,30.04,WSW,258,2.0,4.0,5,0.00,,,0.00,VWS V14.01,2013-01-23 02:41:00,
2013-01-22 19:42:00,52.6,-20.8,30.04,WSW,258,3.0,5.0,4,0.00,,,0.00,VWS V14.01,2013-01-23 02:42:00,
2013-01-22 19:43:00,52.6,-20.8,30.03,WSW,258,4.0,5.0,4,0.00,,,0.00,VWS V14.01,2013-01-23 02:43:00,
2013-01-22 19:44:00,52.6,-20.8,30.03,WSW,258,6.0,6.0,4,0.00,,,0.00,VWS V14.01,2013-01-23 02:44:00,
2013-01-22 19:45:00,52.5,-20.9,30.03,WSW,258,5.0,7.0,4,0.00,,,0.00,VWS V14.01,2013-01-23 02:45:00,
2013-01-22 19:46:00,52.6,-20.8,30.03,WSW,257,2.0,5.0,4,0.00,,,0.00,VWS V14.01,2013-01-23 02:46:00,
2013-01-22 19:47:00,52.6,-20.8,30.04,WSW,257,5.0,7.0,4,0.00,,,0.00,VWS V14.01,2013-01-23 02:47:00,
2013-01-22 19:48:00,52.8,-20.6,30.03,WNW,284,7.0,11.0,4,0.00,,,0.00,VWS V14.01,2013-01-23 02:48:00,
2013-01-22 19:49:00,53.0,-20.5,30.04,WNW,283,1.0,7.0,4,0.00,,,0.00,VWS V14.01,2013-01-23 02:49:00,
2013-01-22 19:50:00,53.2,-20.4,30.04,West,281,2.0,4.0,4,0.00,,,0.00,VWS V14.01,2013-01-23 02:50:00,
2013-01-22 19:51:00,53.2,-20.4,30.04,West,278,6.0,6.0,4,0.00,,,0.00,VWS V14.01,2013-01-23 02:51:00,
2013-01-22 19:52:00,53.4,-20.2,30.04,WSW,254,8.0,9.0,4,0.00,,,0.00,VWS V14.01,2013-01-23 02:52:00,
2013-01-22 19:53:00,53.5,-20.1,30.04,West,270,3.0,10.0,4,0.00,,,0.00,VWS V14.01,2013-01-23 02:53:00,
2013-01-22 19:54:00,53.7,-20.0,30.04,West,270,2.0,2.0,4,0.00,,,0.00,VWS V14.01,2013-01-23 02:54:00,
2013-01-22 19:55:00,53.7,-20.0,30.04,West,270,0.0,4.0,4,0.00,,,0.00,VWS V14.01,2013-01-23 02:55:00,
2013-01-22 19:56:00,53.7,-20.0,30.04,West,270,5.0,6.0,4,0.00,,,0.00,VWS V14.01,2013-01-23 02:56:00,
2013-01-22 19:57:00,53.7,-20.0,30.04,West,270,1.0,1.0,4,0.00,,,0.00,VWS V14.01,2013-01-23 02:57:00,
2013-01-22 19:58:00,53.7,-20.0,30.04,West,270,1.0,2.0,4,0.00,,,0.00,VWS V14.01,2013-01-23 02:58:00,
2013-01-22 19:59:00,53.7,-20.0,30.04,West,270,2.0,3.0,4,0.00,,,0.00,VWS V14.01,2013-01-23 02:59:00,
2013-01-22 20:00:00,53.6,-20.1,30.04,West,270,1.0,4.0,4,0.00,,,0.00,VWS V14.01,2013-01-23 03:00:00,
2013-01-22 20:01:00,53.6,-20.1,30.04,West,270,2.0,2.0,4,0.00,,,0.00,VWS V14.01,2013-01-23 03:01:00,
2013-01-22 20:02:00,53.5,-20.1,30.04,West,270,1.0,2.0,4,0.00,,,0.00,VWS V14.01,2013-01-23 03:02:00,
2013-01-22 20:03:00,53.5,-20.1,30.04,West,270,0.0,2.0,4,0.00,,,0.00,VWS V14.01,2013-01-23 03:03:00,
2013-01-22 20:04:00,53.5,-20.1,30.04,West,270,4.0,5.0,4,0.00,,,0.00,VWS V14.01,2013-01-23 03:04:00,
2013-01-22 20:05:00,53.4,-20.2,30.04,West,270,0.0,5.0,4,0.00,,,0.00,VWS V14.01,2013-01-23 03:05:00,
2013-01-22 20:06:00,53.3,-20.3,30.04,West,270,1.0,1.0,4,0.00,,,0.00,VWS V14.01,2013-01-23 03:06:00,
2013-01-22 20:07:00,53.2,-20.4,30.04,West,270,2.0,3.0,4,0.00,,,0.00,VWS V14.01,2013-01-23 03:07:00,
2013-01-22 20:08:00,53.1,-20.4,30.04,West,270,1.0,2.0,4,0.00,,,0.00,VWS V14.01,2013-01-23 03:08:00,
2013-01-22 20:09:00,53.0,-20.5,30.04,West,270,0.0,1.0,4,0.00,,,0.00,VWS V14.01,2013-01-23 03:09:00,
2013-01-22 20:10:00,52.9,-20.6,30.04,West,270,1.0,2.0,4,0.00,,,0.00,VWS V14.01,2013-01-23 03:10:00,
2013-01-22 20:11:00,52.8,-20.6,30.04,West,270,2.0,2.0,4,0.00,,,0.00,VWS V14.01,2013-01-23 03:11:00,
2013-01-22 20:12:00,52.6,-20.8,30.04,West,270,0.0,1.0,4,0.00,,,0.00,VWS V14.01,2013-01-23 03:12:00,
2013-01-22 20:13:00,52.5,-20.9,30.04,West,270,1.0,1.0,4,0.00,,,0.00,VWS V14.01,2013-01-23 03:13:00,
2013-01-22 20:14:00,52.3,-21.0,30.04,West,270,0.0,2.0,4,0.00,,,0.00,VWS V14.01,2013-01-23 03:14:00,
2013-01-22 20:15:00,52.2,-21.1,30.04,West,270,0.0,1.0,4,0.00,,,0.00,VWS V14.01,2013-01-23 03:15:00,
2013-01-22 20:16:00,52.1,-21.1,30.04,West,270,0.0,0.0,4,0.00,,,0.00,VWS V14.01,2013-01-23 03:16:00,
2013-01-22 20:17:00,52.0,-21.2,30.03,West,270,1.0,1.0,4,0.00,,,0.00,VWS V14.01,2013-01-23 03:17:00,
2013-01-22 20:18:00,51.9,-21.3,30.04,West,270,2.0,3.0,4,0.00,,,0.00,VWS V14.01,2013-01-23 03:18:00,
2013-01-22 20:19:00,51.8,-17.0,30.03,West,270,1.0,3.0,5,0.00,,,0.00,VWS V14.01,2013-01-23 03:19:00,
2013-01-22 20:20:00,51.6,-17.2,30.04,West,270,0.0,0.0,5,0.00,,,0.00,VWS V14.01,2013-01-23 03:20:00,
2013-01-22 20:21:00,51.6,-17.2,30.04,West,270,1.0,1.0,5,0.00,,,0.00,VWS V14.01,2013-01-23 03:21:00,
2013-01-22 20:22:00,51.4,-17.3,30.04,West,270,3.0,3.0,5,0.00,,,0.00,VWS V14.01,2013-01-23 03:22:00,
2013-01-22 20:23:00,51.2,-17.5,30.04,West,270,0.0,2.0,5,0.00,,,0.00,VWS V14.01,2013-01-23 03:23:00,
2013-01-22 20:24:00,51.1,-17.5,30.03,West,270,2.0,2.0,5,0.00,,,0.00,VWS V14.01,2013-01-23 03:24:00,
2013-01-22 20:25:00,50.9,-22.0,30.04,West,270,1.0,2.0,4,0.00,,,0.00,VWS V14.01,2013-01-23 03:25:00,
2013-01-22 20:26:00,50.9,-22.0,30.04,West,270,0.0,2.0,4,0.00,,,0.00,VWS V14.01,2013-01-23 03:26:00,
2013-01-22 20:27:00,50.8,-22.0,30.04,West,270,1.0,2.0,4,0.00,,,0.00,VWS V14.01,2013-01-23 03:27:00,
2013-01-22 20:28:00,50.8,-22.0,30.04,West,270,0.0,2.0,4,0.00,,,0.00,VWS V14.01,2013-01-23 03:28:00,
2013-01-22 20:29:00,50.9,-22.0,30.04,West,270,2.0,3.0,4,0.00,,,0.00,VWS V14.01,2013-01-23 03:29:00,
2013-01-22 20:30:00,51.1,-21.8,30.04,West,270,1.0,5.0,4,0.00,,,0.00,VWS V14.01,2013-01-23 03:30:00,
2013-01-22 20:31:00,51.2,-21.8,30.04,West,270,2.0,5.0,4,0.00,,,0.00,VWS V14.01,2013-01-23 03:31:00,
2013-01-22 20:32:00,51.4,-21.6,30.04,West,270,2.0,5.0,4,0.00,,,0.00,VWS V14.01,2013-01-23 03:32:00,
2013-01-22 20:33:00,51.6,-21.5,30.03,West,270,1.0,4.0,4,0.00,,,0.00,VWS V14.01,2013-01-23 03:33:00,
2013-01-22 20:34:00,51.7,-21.4,30.03,West,270,1.0,1.0,4,0.00,,,0.00,VWS V14.01,2013-01-23 03:34:00,
2013-01-22 20:35:00,51.8,-21.3,30.03,West,270,2.0,4.0,4,0.00,,,0.00,VWS V14.01,2013-01-23 03:35:00,
2013-01-22 20:36:00,51.8,-21.3,30.03,West,270,4.0,4.0,4,0.00,,,0.00,VWS V14.01,2013-01-23 03:36:00,
2013-01-22 20:37:00,51.9,-21.3,30.03,West,270,4.0,4.0,4,0.00,,,0.00,VWS V14.01,2013-01-23 03:37:00,
2013-01-22 20:38:00,51.9,-21.3,30.03,West,270,2.0,4.0,4,0.00,,,0.00,VWS V14.01,2013-01-23 03:38:00,
2013-01-22 20:39:00,52.0,-21.2,30.03,West,270,4.0,5.0,4,0.00,,,0.00,VWS V14.01,2013-01-23 03:39:00,
2013-01-22 20:40:00,52.2,-21.1,30.03,West,269,4.0,5.0,4,0.00,,,0.00,VWS V14.01,2013-01-23 03:40:00,
2013-01-22 20:41:00,52.2,-21.1,30.03,West,269,3.0,5.0,4,0.00,,,0.00,VWS V14.01,2013-01-23 03:41:00,
2013-01-22 20:42:00,52.3,-21.0,30.03,West,268,4.0,5.0,4,0.00,,,0.00,VWS V14.01,2013-01-23 03:42:00,
2013-01-22 20:43:00,52.3,-21.0,30.03,West,268,1.0,5.0,4,0.00,,,0.00,VWS V14.01,2013-01-23 03:43:00,
2013-01-22 20:44:00,52.3,-21.0,30.03,West,268,2.0,2.0,4,0.00,,,0.00,VWS V14.01,2013-01-23 03:44:00,
2013-01-22 20:45:00,52.3,-21.0,30.03,West,268,1.0,4.0,4,0.00,,,0.00,VWS V14.01,2013-01-23 03:45:00,
2013-01-22 20:46:00,52.2,-21.1,30.03,West,268,2.0,4.0,4,0.00,,,0.00,VWS V14.01,2013-01-23 03:46:00,
2013-01-22 20:47:00,52.2,-21.1,30.03,West,268,1.0,3.0,4,0.00,,,0.00,VWS V14.01,2013-01-23 03:47:00,
2013-01-22 20:48:00,52.1,-21.1,30.03,West,268,2.0,4.0,4,0.00,,,0.00,VWS V14.01,2013-01-23 03:48:00,
2013-01-22 20:49:00,51.9,-21.3,30.03,West,268,2.0,2.0,4,0.00,,,0.00,VWS V14.01,2013-01-23 03:49:00,
2013-01-22 20:50:00,51.8,-21.3,30.02,West,268,1.0,2.0,4,0.00,,,0.00,VWS V14.01,2013-01-23 03:50:00,
2013-01-22 20:51:00,51.8,-21.3,30.02,West,268,1.0,2.0,4,0.00,,,0.00,VWS V14.01,2013-01-23 03:51:00,
2013-01-22 20:52:00,51.7,-21.4,30.03,West,268,1.0,2.0,4,0.00,,,0.00,VWS V14.01,2013-01-23 03:52:00,
2013-01-22 20:53:00,51.6,-21.5,30.03,West,268,2.0,2.0,4,0.00,,,0.00,VWS V14.01,2013-01-23 03:53:00,
2013-01-22 20:54:00,51.5,-21.5,30.03,West,268,2.0,2.0,4,0.00,,,0.00,VWS V14.01,2013-01-23 03:54:00,
2013-01-22 20:55:00,51.3,-21.7,30.03,West,268,2.0,3.0,4,0.00,,,0.00,VWS V14.01,2013-01-23 03:55:00,
2013-01-22 20:56:00,51.2,-21.8,30.03,West,268,1.0,3.0,4,0.00,,,0.00,VWS V14.01,2013-01-23 03:56:00,
2013-01-22 20:57:00,51.1,-21.8,30.03,West,268,1.0,2.0,4,0.00,,,0.00,VWS V14.01,2013-01-23 03:57:00,
2013-01-22 20:58:00,51.1,-21.8,30.03,West,268,1.0,1.0,4,0.00,,,0.00,VWS V14.01,2013-01-23 03:58:00,
2013-01-22 20:59:00,51.1,-21.8,30.03,West,268,1.0,2.0,4,0.00,,,0.00,VWS V14.01,2013-01-23 03:59:00,
2013-01-22 21:00:00,51.1,-21.8,30.03,West,268,2.0,2.0,4,0.00,,,0.00,VWS V14.01,2013-01-23 04:00:00,
2013-01-22 21:01:00,51.1,-21.8,30.03,West,268,0.0,4.0,4,0.00,,,0.00,VWS V14.01,2013-01-23 04:01:00,
2013-01-22 21:02:00,51.1,-21.8,30.03,West,268,1.0,2.0,4,0.00,,,0.00,VWS V14.01,2013-01-23 04:02:00,
2013-01-22 21:03:00,51.1,-21.8,30.03,West,268,1.0,2.0,4,0.00,,,0.00,VWS V14.01,2013-01-23 04:03:00,
2013-01-22 21:04:00,51.1,-21.8,30.03,West,268,2.0,4.0,4,0.00,,,0.00,VWS V14.01,2013-01-23 04:04:00,
2013-01-22 21:05:00,51.3,-21.7,30.03,West,268,0.0,1.0,4,0.00,,,0.00,VWS V14.01,2013-01-23 04:05:00,
2013-01-22 21:06:00,51.3,-27.1,30.03,West,268,0.0,1.0,3,0.00,,,0.00,VWS V14.01,2013-01-23 04:06:00,
2013-01-22 21:07:00,51.3,-27.1,30.03,West,268,0.0,0.0,3,0.00,,,0.00,VWS V14.01,2013-01-23 04:07:00,
2013-01-22 21:08:00,51.3,-27.1,30.03,West,268,0.0,0.0,3,0.00,,,0.00,VWS V14.01,2013-01-23 04:08:00,
2013-01-22 21:09:00,51.3,-27.1,30.03,West,268,0.0,0.0,3,0.00,,,0.00,VWS V14.01,2013-01-23 04:09:00,
2013-01-22 21:10:00,51.3,-27.1,30.03,West,268,0.0,1.0,3,0.00,,,0.00,VWS V14.01,2013-01-23 04:10:00,
2013-01-22 21:11:00,51.3,-27.1,30.03,West,268,2.0,2.0,3,0.00,,,0.00,VWS V14.01,2013-01-23 04:11:00,
2013-01-22 21:12:00,51.3,-27.1,30.04,West,268,1.0,2.0,3,0.00,,,0.00,VWS V14.01,2013-01-23 04:12:00,
2013-01-22 21:13:00,51.4,-27.0,30.03,West,268,1.0,1.0,3,0.00,,,0.00,VWS V14.01,2013-01-23 04:13:00,
2013-01-22 21:14:00,51.4,-27.0,30.03,West,268,0.0,0.0,3,0.00,,,0.00,VWS V14.01,2013-01-23 04:14:00,
2013-01-22 21:15:00,51.4,-27.0,30.03,West,268,0.0,0.0,3,0.00,,,0.00,VWS V14.01,2013-01-23 04:15:00,
2013-01-22 21:16:00,51.4,-27.0,30.03,West,268,0.0,0.0,3,0.00,,,0.00,VWS V14.01,2013-01-23 04:16:00,
2013-01-22 21:17:00,51.3,-21.7,30.03,West,268,0.0,1.0,4,0.00,,,0.00,VWS V14.01,2013-01-23 04:17:00,
2013-01-22 21:18:00,51.2,-21.8,30.03,West,268,0.0,1.0,4,0.00,,,0.00,VWS V14.01,2013-01-23 04:18:00,
2013-01-22 21:19:00,51.2,-21.8,30.03,West,268,1.0,2.0,4,0.00,,,0.00,VWS V14.01,2013-01-23 04:19:00,
2013-01-22 21:20:00,51.2,-21.8,30.03,West,268,2.0,3.0,4,0.00,,,0.00,VWS V14.01,2013-01-23 04:20:00,
2013-01-22 21:21:00,51.1,-21.8,30.03,West,268,2.0,4.0,4,0.00,,,0.00,VWS V14.01,2013-01-23 04:21:00,
2013-01-22 21:22:00,51.1,-27.2,30.03,West,268,2.0,4.0,3,0.00,,,0.00,VWS V14.01,2013-01-23 04:22:00,
2013-01-22 21:23:00,51.2,-27.1,30.03,West,268,0.0,2.0,3,0.00,,,0.00,VWS V14.01,2013-01-23 04:23:00,
2013-01-22 21:24:00,51.2,-27.1,30.03,West,268,1.0,1.0,3,0.00,,,0.00,VWS V14.01,2013-01-23 04:24:00,
2013-01-22 21:25:00,51.3,-27.1,30.03,West,268,2.0,4.0,3,0.00,,,0.00,VWS V14.01,2013-01-23 04:25:00,
2013-01-22 21:26:00,51.3,-21.7,30.03,West,268,2.0,3.0,4,0.00,,,0.00,VWS V14.01,2013-01-23 04:26:00,
2013-01-22 21:27:00,51.4,-21.6,30.03,West,268,2.0,3.0,4,0.00,,,0.00,VWS V14.01,2013-01-23 04:27:00,
2013-01-22 21:28:00,51.4,-27.0,30.04,West,268,4.0,4.0,3,0.00,,,0.00,VWS V14.01,2013-01-23 04:28:00,
2013-01-22 21:29:00,51.4,-21.6,30.04,West,268,4.0,5.0,4,0.00,,,0.00,VWS V14.01,2013-01-23 04:29:00,
2013-01-22 21:30:00,51.5,-27.0,30.03,West,268,2.0,4.0,3,0.00,,,0.00,VWS V14.01,2013-01-23 04:30:00,
2013-01-22 21:31:00,51.5,-27.0,30.03,West,268,2.0,2.0,3,0.00,,,0.00,VWS V14.01,2013-01-23 04:31:00,
2013-01-22 21:32:00,51.5,-21.5,30.03,West,268,1.0,3.0,4,0.00,,,0.00,VWS V14.01,2013-01-23 04:32:00,
2013-01-22 21:33:00,51.5,-27.0,30.03,West,268,1.0,2.0,3,0.00,,,0.00,VWS V14.01,2013-01-23 04:33:00,
2013-01-22 21:34:00,51.5,-27.0,30.03,West,268,2.0,2.0,3,0.00,,,0.00,VWS V14.01,2013-01-23 04:34:00,
2013-01-22 21:35:00,51.5,-27.0,30.03,West,268,1.0,2.0,3,0.00,,,0.00,VWS V14.01,2013-01-23 04:35:00,
2013-01-22 21:36:00,51.5,-27.0,30.03,West,268,0.0,1.0,3,0.00,,,0.00,VWS V14.01,2013-01-23 04:36:00,
2013-01-22 21:37:00,51.4,-21.6,30.03,West,268,1.0,4.0,4,0.00,,,0.00,VWS V14.01,2013-01-23 04:37:00,
2013-01-22 21:38:00,51.5,-21.5,30.03,West,268,4.0,4.0,4,0.00,,,0.00,VWS V14.01,2013-01-23 04:38:00,
2013-01-22 21:39:00,51.7,-26.8,30.03,West,268,5.0,5.0,3,0.00,,,0.00,VWS V14.01,2013-01-23 04:39:00,
2013-01-22 21:40:00,51.8,-26.7,30.03,West,268,4.0,5.0,3,0.00,,,0.00,VWS V14.01,2013-01-23 04:40:00,
2013-01-22 21:41:00,51.8,-26.7,30.03,West,268,1.0,4.0,3,0.00,,,0.00,VWS V14.01,2013-01-23 04:41:00,
2013-01-22 21:42:00,52.0,-26.6,30.03,West,268,0.0,5.0,3,0.00,,,0.00,VWS V14.01,2013-01-23 04:42:00,
2013-01-22 21:43:00,52.1,-26.5,30.03,West,268,1.0,2.0,3,0.00,,,0.00,VWS V14.01,2013-01-23 04:43:00,
2013-01-22 21:44:00,52.2,-26.5,30.03,West,268,4.0,5.0,3,0.00,,,0.00,VWS V14.01,2013-01-23 04:44:00,
2013-01-22 21:45:00,52.1,-26.5,30.03,West,268,2.0,4.0,3,0.00,,,0.00,VWS V14.01,2013-01-23 04:45:00,
2013-01-22 21:46:00,52.1,-26.5,30.03,West,268,1.0,4.0,3,0.00,,,0.00,VWS V14.01,2013-01-23 04:46:00,
2013-01-22 21:47:00,52.0,-26.6,30.03,West,268,4.0,4.0,3,0.00,,,0.00,VWS V14.01,2013-01-23 04:47:00,
2013-01-22 21:48:00,51.9,-26.7,30.03,West,268,2.0,4.0,3,0.00,,,0.00,VWS V14.01,2013-01-23 04:48:00,
2013-01-22 21:49:00,51.9,-26.7,30.03,West,268,2.0,6.0,3,0.00,,,0.00,VWS V14.01,2013-01-23 04:49:00,
2013-01-22 21:50:00,51.9,-26.7,30.03,West,268,4.0,4.0,3,0.00,,,0.00,VWS V14.01,2013-01-23 04:50:00,
2013-01-22 21:51:00,52.0,-26.6,30.03,West,269,5.0,6.0,3,0.00,,,0.00,VWS V14.01,2013-01-23 04:51:00,
2013-01-22 21:52:00,52.3,-26.4,30.03,West,269,2.0,4.0,3,0.00,,,0.00,VWS V14.01,2013-01-23 04:52:00,
2013-01-22 21:53:00,52.3,-26.4,30.03,West,269,4.0,5.0,3,0.00,,,0.00,VWS V14.01,2013-01-23 04:53:00,
2013-01-22 21:54:00,52.5,-26.3,30.03,West,269,1.0,3.0,3,0.00,,,0.00,VWS V14.01,2013-01-23 04:54:00,
2013-01-22 21:55:00,52.5,-26.3,30.03,West,269,1.0,3.0,3,0.00,,,0.00,VWS V14.01,2013-01-23 04:55:00,
2013-01-22 21:56:00,52.6,-26.2,30.03,West,269,3.0,3.0,3,0.00,,,0.00,VWS V14.01,2013-01-23 04:56:00,
2013-01-22 21:57:00,52.6,-26.2,30.03,West,269,0.0,2.0,3,0.00,,,0.00,VWS V14.01,2013-01-23 04:57:00,
2013-01-22 21:58:00,52.6,-26.2,30.03,West,269,0.0,1.0,3,0.00,,,0.00,VWS V14.01,2013-01-23 04:58:00,
2013-01-22 21:59:00,52.6,-26.2,30.03,West,269,0.0,0.0,3,0.00,,,0.00,VWS V14.01,2013-01-23 04:59:00,
2013-01-22 22:00:00,52.6,-26.2,30.03,West,269,0.0,0.0,3,0.00,,,0.00,VWS V14.01,2013-01-23 05:00:00,
2013-01-22 22:01:00,52.5,-26.3,30.03,West,269,0.0,0.0,3,0.00,,,0.00,VWS V14.01,2013-01-23 05:01:00,
2013-01-22 22:02:00,52.5,-26.3,30.03,West,269,0.0,0.0,3,0.00,,,0.00,VWS V14.01,2013-01-23 05:02:00,
2013-01-22 22:03:00,52.3,-16.7,30.03,West,276,5.0,6.0,5,0.00,,,0.00,VWS V14.01,2013-01-23 05:03:00,
2013-01-22 22:04:00,51.6,-13.6,30.03,West,276,2.0,5.0,6,0.00,,,0.00,VWS V14.01,2013-01-23 05:04:00,
2013-01-22 22:05:00,50.8,-14.2,30.03,West,276,1.0,2.0,6,0.00,,,0.00,VWS V14.01,2013-01-23 05:05:00,
2013-01-22 22:06:00,49.5,-12.1,30.03,West,276,0.0,1.0,7,0.00,,,0.00,VWS V14.01,2013-01-23 05:06:00,
2013-01-22 22:07:00,49.1,-12.4,30.03,West,277,0.0,1.0,7,0.00,,,0.00,VWS V14.01,2013-01-23 05:07:00,
2013-01-22 22:08:00,48.5,-10.1,30.03,West,276,0.0,1.0,8,0.00,,,0.00,VWS V14.01,2013-01-23 05:08:00,
2013-01-22 22:09:00,47.7,-10.8,30.03,West,276,0.0,0.0,8,0.00,,,0.00,VWS V14.01,2013-01-23 05:09:00,
2013-01-22 22:10:00,47.2,-11.1,30.03,West,276,0.0,0.0,8,0.00,,,0.00,VWS V14.01,2013-01-23 05:10:00,
2013-01-22 22:11:00,46.4,-11.7,30.03,West,276,0.0,1.0,8,0.00,,,0.00,VWS V14.01,2013-01-23 05:11:00,
2013-01-22 22:12:00,46.1,-12.0,30.03,West,276,0.0,1.0,8,0.00,,,0.00,VWS V14.01,2013-01-23 05:12:00,
2013-01-22 22:13:00,45.6,-12.3,30.03,West,276,0.0,0.0,8,0.00,,,0.00,VWS V14.01,2013-01-23 05:13:00,
2013-01-22 22:14:00,45.2,-12.6,30.03,West,276,2.0,2.0,8,0.00,,,0.00,VWS V14.01,2013-01-23 05:14:00,
2013-01-22 22:15:00,44.9,-12.9,30.03,West,276,0.0,2.0,8,0.00,,,0.00,VWS V14.01,2013-01-23 05:15:00,
2013-01-22 22:16:00,44.6,-13.1,30.03,West,276,0.0,0.0,8,0.00,,,0.00,VWS V14.01,2013-01-23 05:16:00,
2013-01-22 22:17:00,44.5,-13.2,30.03,West,276,0.0,0.0,8,0.00,,,0.00,VWS V14.01,2013-01-23 05:17:00,
2013-01-22 22:18:00,44.3,-13.3,30.03,West,276,0.0,1.0,8,0.00,,,0.00,VWS V14.01,2013-01-23 05:18:00,
2013-01-22 22:19:00,44.1,-13.5,30.03,West,276,1.0,1.0,8,0.00,,,0.00,VWS V14.01,2013-01-23 05:19:00,
2013-01-22 22:20:00,44.0,-13.6,30.03,West,276,2.0,2.0,8,0.00,,,0.00,VWS V14.01,2013-01-23 05:20:00,
2013-01-22 22:21:00,43.9,-13.6,30.03,West,276,4.0,4.0,8,0.00,,,0.00,VWS V14.01,2013-01-23 05:21:00,
2013-01-22 22:22:00,43.9,-13.6,30.03,West,276,4.0,4.0,8,0.00,,,0.00,VWS V14.01,2013-01-23 05:22:00,
2013-01-22 22:23:00,43.8,-13.7,30.03,West,276,0.0,5.0,8,0.00,,,0.00,VWS V14.01,2013-01-23 05:23:00,
2013-01-22 22:24:00,43.8,-11.4,30.03,West,276,0.0,2.0,9,0.00,,,0.00,VWS V14.01,2013-01-23 05:24:00,
2013-01-22 22:25:00,43.8,-13.7,30.03,West,276,2.0,3.0,8,0.00,,,0.00,VWS V14.01,2013-01-23 05:25:00,
2013-01-22 22:26:00,43.7,-13.8,30.03,West,276,0.0,2.0,8,0.00,,,0.00,VWS V14.01,2013-01-23 05:26:00,
2013-01-22 22:27:00,43.7,-13.8,30.03,West,277,4.0,5.0,8,0.00,,,0.00,VWS V14.01,2013-01-23 05:27:00,
2013-01-22 22:28:00,43.6,-11.5,30.04,West,276,1.0,5.0,9,0.00,,,0.00,VWS V14.01,2013-01-23 05:28:00,
2013-01-22 22:29:00,43.4,-11.7,30.03,West,276,1.0,1.0,9,0.00,,,0.00,VWS V14.01,2013-01-23 05:29:00,
2013-01-22 22:30:00,43.3,-11.7,30.04,West,277,0.0,1.0,9,0.00,,,0.00,VWS V14.01,2013-01-23 05:30:00,
2013-01-22 22:31:00,43.1,-11.9,30.03,West,277,0.0,0.0,9,0.00,,,0.00,VWS V14.01,2013-01-23 05:31:00,
2013-01-22 22:32:00,43.1,-11.9,30.03,West,276,0.0,0.0,9,0.00,,,0.00,VWS V14.01,2013-01-23 05:32:00,
2013-01-22 22:33:00,42.9,-12.1,30.03,West,276,0.0,0.0,9,0.00,,,0.00,VWS V14.01,2013-01-23 05:33:00,
2013-01-22 22:34:00,42.9,-12.1,30.03,West,276,0.0,0.0,9,0.00,,,0.00,VWS V14.01,2013-01-23 05:34:00,
2013-01-22 22:35:00,42.8,-12.1,30.03,West,276,0.0,0.0,9,0.00,,,0.00,VWS V14.01,2013-01-23 05:35:00,
2013-01-22 22:36:00,42.7,-12.2,30.03,West,276,0.0,0.0,9,0.00,,,0.00,VWS V14.01,2013-01-23 05:36:00,
2013-01-22 22:37:00,42.7,-12.2,30.03,West,277,0.0,0.0,9,0.00,,,0.00,VWS V14.01,2013-01-23 05:37:00,
2013-01-22 22:38:00,42.6,-12.3,30.03,West,276,2.0,2.0,9,0.00,,,0.00,VWS V14.01,2013-01-23 05:38:00,
2013-01-22 22:39:00,42.4,-10.3,30.04,West,276,4.0,5.0,10,0.00,,,0.00,VWS V14.01,2013-01-23 05:39:00,
2013-01-22 22:40:00,42.0,-10.6,30.04,West,271,0.0,5.0,10,0.00,,,0.00,VWS V14.01,2013-01-23 05:40:00,
2013-01-22 22:41:00,41.7,-10.9,30.04,West,271,2.0,2.0,10,0.00,,,0.00,VWS V14.01,2013-01-23 05:41:00,
2013-01-22 22:42:00,41.4,-9.2,30.04,West,271,0.0,4.0,11,0.00,,,0.00,VWS V14.01,2013-01-23 05:42:00,
2013-01-22 22:43:00,41.0,-7.7,30.04,West,271,1.0,2.0,12,0.00,,,0.00,VWS V14.01,2013-01-23 05:43:00,
2013-01-22 22:44:00,40.7,-7.9,30.04,West,271,0.0,2.0,12,0.00,,,0.00,VWS V14.01,2013-01-23 05:44:00,
2013-01-22 22:45:00,40.5,-8.1,30.04,West,271,1.0,2.0,12,0.00,,,0.00,VWS V14.01,2013-01-23 05:45:00,
2013-01-22 22:46:00,40.2,-8.4,30.04,West,271,0.0,1.0,12,0.00,,,0.00,VWS V14.01,2013-01-23 05:46:00,
2013-01-22 22:47:00,39.9,-6.9,30.04,West,271,0.0,0.0,13,0.00,,,0.00,VWS V14.01,2013-01-23 05:47:00,
2013-01-22 22:48:00,39.7,-7.1,30.04,West,271,2.0,2.0,13,0.00,,,0.00,VWS V14.01,2013-01-23 05:48:00,
2013-01-22 22:49:00,39.5,-5.7,30.04,West,271,2.0,2.0,14,0.00,,,0.00,VWS V14.01,2013-01-23 05:49:00,
2013-01-22 22:50:00,39.3,-5.9,30.04,West,271,1.0,2.0,14,0.00,,,0.00,VWS V14.01,2013-01-23 05:50:00,
2013-01-22 22:51:00,39.2,-6.0,30.04,West,271,1.0,2.0,14,0.00,,,0.00,VWS V14.01,2013-01-23 05:51:00,
2013-01-22 22:52:00,39.2,-6.0,30.04,West,271,2.0,2.0,14,0.00,,,0.00,VWS V14.01,2013-01-23 05:52:00,
2013-01-22 22:53:00,39.2,-6.0,30.04,West,271,2.0,4.0,14,0.00,,,0.00,VWS V14.01,2013-01-23 05:53:00,
2013-01-22 22:54:00,39.2,-6.0,30.04,West,271,4.0,4.0,14,0.00,,,0.00,VWS V14.01,2013-01-23 05:54:00,
2013-01-22 22:55:00,39.3,-5.9,30.04,West,271,5.0,5.0,14,0.00,,,0.00,VWS V14.01,2013-01-23 05:55:00,
2013-01-22 22:56:00,39.3,-5.9,30.04,West,271,3.0,5.0,14,0.00,,,0.00,VWS V14.01,2013-01-23 05:56:00,
2013-01-22 22:57:00,39.4,-5.8,30.04,West,271,5.0,5.0,14,0.00,,,0.00,VWS V14.01,2013-01-23 05:57:00,
2013-01-22 22:58:00,39.5,-5.7,30.04,West,271,5.0,5.0,14,0.00,,,0.00,VWS V14.01,2013-01-23 05:58:00,
2013-01-22 22:59:00,39.7,-5.6,30.04,West,271,2.0,5.0,14,0.00,,,0.00,VWS V14.01,2013-01-23 05:59:00,
2013-01-22 23:00:00,39.8,-7.0,30.04,West,271,2.0,5.0,13,0.00,,,0.00,VWS V14.01,2013-01-23 06:00:00,
2013-01-22 23:01:00,40.0,-6.9,30.04,West,271,3.0,4.0,13,0.00,,,0.00,VWS V14.01,2013-01-23 06:01:00,
2013-01-22 23:02:00,40.2,-6.7,30.04,West,271,5.0,5.0,13,0.00,,,0.00,VWS V14.01,2013-01-23 06:02:00,
2013-01-22 23:03:00,40.4,-6.6,30.04,West,271,3.0,6.0,13,0.00,,,0.00,VWS V14.01,2013-01-23 06:03:00,
2013-01-22 23:04:00,40.5,-6.5,30.04,West,271,1.0,4.0,13,0.00,,,0.00,VWS V14.01,2013-01-23 06:04:00,
2013-01-22 23:05:00,40.6,-6.4,30.04,West,271,2.0,4.0,13,0.00,,,0.00,VWS V14.01,2013-01-23 06:05:00,
2013-01-22 23:06:00,40.6,-6.4,30.04,West,271,1.0,4.0,13,0.00,,,0.00,VWS V14.01,2013-01-23 06:06:00,
2013-01-22 23:07:00,40.7,-6.3,30.04,West,271,1.0,4.0,13,0.00,,,0.00,VWS V14.01,2013-01-23 06:07:00,
2013-01-22 23:08:00,40.7,-6.3,30.04,West,271,2.0,2.0,13,0.00,,,0.00,VWS V14.01,2013-01-23 06:08:00,
2013-01-22 23:09:00,40.8,-7.9,30.04,West,271,1.0,2.0,12,0.00,,,0.00,VWS V14.01,2013-01-23 06:09:00,
2013-01-22 23:10:00,40.9,-7.8,30.04,West,271,0.0,1.0,12,0.00,,,0.00,VWS V14.01,2013-01-23 06:10:00,
2013-01-22 23:11:00,41.0,-7.7,30.04,West,271,0.0,0.0,12,0.00,,,0.00,VWS V14.01,2013-01-23 06:11:00,
2013-01-22 23:12:00,41.1,-6.0,30.04,West,271,0.0,0.0,13,0.00,,,0.00,VWS V14.01,2013-01-23 06:12:00,
2013-01-22 23:13:00,41.1,-7.6,30.04,West,271,1.0,1.0,12,0.00,,,0.00,VWS V14.01,2013-01-23 06:13:00,
2013-01-22 23:14:00,41.2,-7.6,30.04,West,271,2.0,2.0,12,0.00,,,0.00,VWS V14.01,2013-01-23 06:14:00,
2013-01-22 23:15:00,41.3,-5.8,30.04,West,271,2.0,2.0,13,0.00,,,0.00,VWS V14.01,2013-01-23 06:15:00,
2013-01-22 23:16:00,41.2,-5.9,30.04,West,271,0.0,2.0,13,0.00,,,0.00,VWS V14.01,2013-01-23 06:16:00,
2013-01-22 23:17:00,41.0,-6.1,30.04,West,271,0.0,0.0,13,0.00,,,0.00,VWS V14.01,2013-01-23 06:17:00,
2013-01-22 23:18:00,40.9,-6.2,30.04,West,271,0.0,2.0,13,0.00,,,0.00,VWS V14.01,2013-01-23 06:18:00,
2013-01-22 23:19:00,40.8,-6.2,30.04,West,271,0.0,3.0,13,0.00,,,0.00,VWS V14.01,2013-01-23 06:19:00,
2013-01-22 23:20:00,40.7,-6.3,30.04,West,271,1.0,1.0,13,0.00,,,0.00,VWS V14.01,2013-01-23 06:20:00,
2013-01-22 23:21:00,40.7,-6.3,30.04,West,271,1.0,2.0,13,0.00,,,0.00,VWS V14.01,2013-01-23 06:21:00,
2013-01-22 23:22:00,40.6,-6.4,30.04,West,271,1.0,2.0,13,0.00,,,0.00,VWS V14.01,2013-01-23 06:22:00,
2013-01-22 23:23:00,40.6,-4.9,30.04,West,271,0.0,2.0,14,0.00,,,0.00,VWS V14.01,2013-01-23 06:23:00,
2013-01-22 23:24:00,40.6,-4.9,30.04,West,271,1.0,2.0,14,0.00,,,0.00,VWS V14.01,2013-01-23 06:24:00,
2013-01-22 23:25:00,40.6,-4.9,30.04,West,271,0.0,2.0,14,0.00,,,0.00,VWS V14.01,2013-01-23 06:25:00,
2013-01-22 23:26:00,40.5,-4.9,30.04,West,271,2.0,4.0,14,0.00,,,0.00,VWS V14.01,2013-01-23 06:26:00,
2013-01-22 23:27:00,40.5,-4.9,30.04,West,271,0.0,2.0,14,0.00,,,0.00,VWS V14.01,2013-01-23 06:27:00,
2013-01-22 23:28:00,40.4,-5.0,30.04,West,271,0.0,0.0,14,0.00,,,0.00,VWS V14.01,2013-01-23 06:28:00,
2013-01-22 23:29:00,40.4,-5.0,30.04,West,271,0.0,1.0,14,0.00,,,0.00,VWS V14.01,2013-01-23 06:29:00,
2013-01-22 23:30:00,40.4,-5.0,30.04,West,271,0.0,0.0,14,0.00,,,0.00,VWS V14.01,2013-01-23 06:30:00,
2013-01-22 23:31:00,40.3,-5.1,30.04,West,271,0.0,0.0,14,0.00,,,0.00,VWS V14.01,2013-01-23 06:31:00,
2013-01-22 23:32:00,40.3,-5.1,30.04,West,271,0.0,0.0,14,0.00,,,0.00,VWS V14.01,2013-01-23 06:32:00,
2013-01-22 23:33:00,40.2,-5.2,30.04,West,271,0.0,1.0,14,0.00,,,0.00,VWS V14.01,2013-01-23 06:33:00,
2013-01-22 23:34:00,40.1,-5.3,30.04,West,271,0.0,0.0,14,0.00,,,0.00,VWS V14.01,2013-01-23 06:34:00,
2013-01-22 23:35:00,40.1,-5.3,30.04,West,271,1.0,2.0,14,0.00,,,0.00,VWS V14.01,2013-01-23 06:35:00,
2013-01-22 23:36:00,40.0,-5.3,30.04,West,271,0.0,2.0,14,0.00,,,0.00,VWS V14.01,2013-01-23 06:36:00,
2013-01-22 23:37:00,39.9,-5.4,30.04,West,271,1.0,2.0,14,0.00,,,0.00,VWS V14.01,2013-01-23 06:37:00,
2013-01-22 23:38:00,39.9,-4.0,30.04,West,271,0.0,1.0,15,0.00,,,0.00,VWS V14.01,2013-01-23 06:38:00,
2013-01-22 23:39:00,39.8,-4.1,30.04,West,271,0.0,0.0,15,0.00,,,0.00,VWS V14.01,2013-01-23 06:39:00,
2013-01-22 23:40:00,39.7,-4.2,30.04,West,271,0.0,0.0,15,0.00,,,0.00,VWS V14.01,2013-01-23 06:40:00,
2013-01-22 23:41:00,39.7,-4.2,30.04,West,271,0.0,1.0,15,0.00,,,0.00,VWS V14.01,2013-01-23 06:41:00,
2013-01-22 23:42:00,39.6,-4.2,30.04,West,271,0.0,0.0,15,0.00,,,0.00,VWS V14.01,2013-01-23 06:42:00,
2013-01-22 23:43:00,39.6,-4.2,30.04,West,271,0.0,0.0,15,0.00,,,0.00,VWS V14.01,2013-01-23 06:43:00,
2013-01-22 23:44:00,39.6,-4.2,30.04,West,271,0.0,1.0,15,0.00,,,0.00,VWS V14.01,2013-01-23 06:44:00,
2013-01-22 23:45:00,39.6,-4.2,30.04,West,271,0.0,0.0,15,0.00,,,0.00,VWS V14.01,2013-01-23 06:45:00,
2013-01-22 23:46:00,39.6,-4.2,30.04,West,271,1.0,1.0,15,0.00,,,0.00,VWS V14.01,2013-01-23 06:46:00,
2013-01-22 23:47:00,39.5,-4.3,30.04,West,271,2.0,2.0,15,0.00,,,0.00,VWS V14.01,2013-01-23 06:47:00,
2013-01-22 23:48:00,39.5,-4.3,30.04,West,271,0.0,2.0,15,0.00,,,0.00,VWS V14.01,2013-01-23 06:48:00,
2013-01-22 23:49:00,39.5,-4.3,30.04,West,271,1.0,1.0,15,0.00,,,0.00,VWS V14.01,2013-01-23 06:49:00,
2013-01-22 23:50:00,39.5,-4.3,30.04,West,271,1.0,2.0,15,0.00,,,0.00,VWS V14.01,2013-01-23 06:50:00,
2013-01-22 23:51:00,39.5,-4.3,30.04,West,271,0.0,0.0,15,0.00,,,0.00,VWS V14.01,2013-01-23 06:51:00,
2013-01-22 23:52:00,39.4,-4.4,30.04,West,271,0.0,0.0,15,0.00,,,0.00,VWS V14.01,2013-01-23 06:52:00,
2013-01-22 23:53:00,39.3,-4.5,30.04,West,271,0.0,1.0,15,0.00,,,0.00,VWS V14.01,2013-01-23 06:53:00,
2013-01-22 23:54:00,39.3,-3.1,30.04,West,271,1.0,1.0,16,0.00,,,0.00,VWS V14.01,2013-01-23 06:54:00,
2013-01-22 23:55:00,39.2,-4.6,30.04,West,271,0.0,1.0,15,0.00,,,0.00,VWS V14.01,2013-01-23 06:55:00,
2013-01-22 23:56:00,39.1,-3.3,30.04,West,271,1.0,1.0,16,0.00,,,0.00,VWS V14.01,2013-01-23 06:56:00,
2013-01-22 23:57:00,39.1,-3.3,30.04,West,271,1.0,3.0,16,0.00,,,0.00,VWS V14.01,2013-01-23 06:57:00,
2013-01-22 23:58:00,39.1,-3.3,30.04,West,271,1.0,2.0,16,0.00,,,0.00,VWS V14.01,2013-01-23 06:58:00,
2013-01-22 23:59:00,39.0,-3.4,30.04,West,271,0.0,1.0,16,0.00,,,0.00,VWS V14.01,2013-01-23 06:59:00,